<?xml version="1.0" encoding="UTF-8"?>
<gpx version="1.1" creator="https://www.youtrack.es" xsi:schemaLocation="http://www.topografix.com/GPX/1/1 http://www.topografix.com/GPX/1/1/gpx.xsd http://www.garmin.com/xmlschemas/GpxExtensions/v3 http://www.garmin.com/xmlschemas/GpxExtensionsv3.xsd http://www.garmin.com/xmlschemas/TrackPointExtension/v1 http://www.garmin.com/xmlschemas/TrackPointExtensionv1.xsd" xmlns:gpxtpx="http://www.garmin.com/xmlschemas/TrackPointExtension/v1" xmlns:gpxx="http://www.garmin.com/xmlschemas/GpxExtensions/v3" xmlns:xsi="http://www.w3.org/2001/XMLSchema-instance">
  <metadata>
    <link href="https://www.youtrack.es">
      <text>YouTrack.es</text>
    </link>
    <time>2026-05-08T17:02:19Z</time>
  </metadata>
  <trk>
    <src>https://www.youtrack.es</src>
    <link href="https://www.youtrack.es/ruta/25318-camino-santiago-gc">
      <text>YouTrack.es</text>
    </link>
    <trkseg>
      <trkpt lat="27.925353" lon="-15.573132">
        <ele>887.542000</ele>
        <time>2021-01-01T09:19:01.946Z</time>
      </trkpt>
      <trkpt lat="27.925353" lon="-15.573132">
        <ele>887.570000</ele>
        <time>2021-01-01T09:19:01.979Z</time>
      </trkpt>
      <trkpt lat="27.925328" lon="-15.573132">
        <ele>887.659000</ele>
        <time>2021-01-01T09:19:05.333Z</time>
      </trkpt>
      <trkpt lat="27.925305" lon="-15.573129">
        <ele>887.733000</ele>
        <time>2021-01-01T09:19:08.439Z</time>
      </trkpt>
      <trkpt lat="27.925296" lon="-15.573146">
        <ele>887.840000</ele>
        <time>2021-01-01T09:19:10.791Z</time>
      </trkpt>
      <trkpt lat="27.925278" lon="-15.573136">
        <ele>887.877000</ele>
        <time>2021-01-01T09:19:13.480Z</time>
      </trkpt>
      <trkpt lat="27.925245" lon="-15.573154">
        <ele>888.056000</ele>
        <time>2021-01-01T09:19:18.397Z</time>
      </trkpt>
      <trkpt lat="27.925193" lon="-15.573189">
        <ele>888.359000</ele>
        <time>2021-01-01T09:19:26.518Z</time>
      </trkpt>
      <trkpt lat="27.925148" lon="-15.573198">
        <ele>888.614000</ele>
        <time>2021-01-01T09:19:32.653Z</time>
      </trkpt>
      <trkpt lat="27.925085" lon="-15.573206">
        <ele>889.008000</ele>
        <time>2021-01-01T09:19:41.167Z</time>
      </trkpt>
      <trkpt lat="27.925021" lon="-15.573206">
        <ele>889.441000</ele>
        <time>2021-01-01T09:19:49.765Z</time>
      </trkpt>
      <trkpt lat="27.924952" lon="-15.573235">
        <ele>890.145000</ele>
        <time>2021-01-01T09:19:59.671Z</time>
      </trkpt>
      <trkpt lat="27.924867" lon="-15.573265">
        <ele>890.758000</ele>
        <time>2021-01-01T09:20:11.633Z</time>
      </trkpt>
      <trkpt lat="27.924854" lon="-15.573267">
        <ele>890.796000</ele>
        <time>2021-01-01T09:20:13.393Z</time>
      </trkpt>
      <trkpt lat="27.924810" lon="-15.573292">
        <ele>891.025000</ele>
        <time>2021-01-01T09:20:20Z</time>
      </trkpt>
      <trkpt lat="27.924731" lon="-15.573336">
        <ele>891.599000</ele>
        <time>2021-01-01T09:20:31.828Z</time>
      </trkpt>
      <trkpt lat="27.924724" lon="-15.573396">
        <ele>892.116000</ele>
        <time>2021-01-01T09:20:39.025Z</time>
      </trkpt>
      <trkpt lat="27.924702" lon="-15.573631">
        <ele>894.583000</ele>
        <time>2021-01-01T09:21:07.181Z</time>
      </trkpt>
      <trkpt lat="27.924691" lon="-15.573681">
        <ele>895.156000</ele>
        <time>2021-01-01T09:21:13.325Z</time>
      </trkpt>
      <trkpt lat="27.924687" lon="-15.573748">
        <ele>895.959000</ele>
        <time>2021-01-01T09:21:21.340Z</time>
      </trkpt>
      <trkpt lat="27.924693" lon="-15.573785">
        <ele>896.314000</ele>
        <time>2021-01-01T09:21:25.818Z</time>
      </trkpt>
      <trkpt lat="27.924680" lon="-15.573823">
        <ele>896.808000</ele>
        <time>2021-01-01T09:21:30.682Z</time>
      </trkpt>
      <trkpt lat="27.924689" lon="-15.573874">
        <ele>897.421000</ele>
        <time>2021-01-01T09:21:36.888Z</time>
      </trkpt>
      <trkpt lat="27.924694" lon="-15.573928">
        <ele>898.215000</ele>
        <time>2021-01-01T09:21:43.392Z</time>
      </trkpt>
      <trkpt lat="27.924689" lon="-15.573960">
        <ele>898.998000</ele>
        <time>2021-01-01T09:21:47.356Z</time>
      </trkpt>
      <trkpt lat="27.924684" lon="-15.573993">
        <ele>899.816000</ele>
        <time>2021-01-01T09:21:51.444Z</time>
      </trkpt>
      <trkpt lat="27.924635" lon="-15.574033">
        <ele>901.115000</ele>
        <time>2021-01-01T09:21:59.695Z</time>
      </trkpt>
      <trkpt lat="27.924599" lon="-15.574031">
        <ele>901.359000</ele>
        <time>2021-01-01T09:22:04.537Z</time>
      </trkpt>
      <trkpt lat="27.924581" lon="-15.574026">
        <ele>901.436000</ele>
        <time>2021-01-01T09:22:07.024Z</time>
      </trkpt>
      <trkpt lat="27.924559" lon="-15.574029">
        <ele>901.633000</ele>
        <time>2021-01-01T09:22:10.005Z</time>
      </trkpt>
      <trkpt lat="27.924457" lon="-15.574021">
        <ele>902.473000</ele>
        <time>2021-01-01T09:22:23.753Z</time>
      </trkpt>
      <trkpt lat="27.924389" lon="-15.574050">
        <ele>903.985000</ele>
        <time>2021-01-01T09:22:33.666Z</time>
      </trkpt>
      <trkpt lat="27.924290" lon="-15.574085">
        <ele>905.913000</ele>
        <time>2021-01-01T09:22:47.767Z</time>
      </trkpt>
      <trkpt lat="27.924182" lon="-15.574102">
        <ele>907.508000</ele>
        <time>2021-01-01T09:23:02.514Z</time>
      </trkpt>
      <trkpt lat="27.924040" lon="-15.574214">
        <ele>911.133000</ele>
        <time>2021-01-01T09:23:26.131Z</time>
      </trkpt>
      <trkpt lat="27.924035" lon="-15.574218">
        <ele>911.247000</ele>
        <time>2021-01-01T09:23:26.964Z</time>
      </trkpt>
      <trkpt lat="27.924031" lon="-15.574224">
        <ele>911.440000</ele>
        <time>2021-01-01T09:23:27.884Z</time>
      </trkpt>
      <trkpt lat="27.924028" lon="-15.574228">
        <ele>911.548000</ele>
        <time>2021-01-01T09:23:28.520Z</time>
      </trkpt>
      <trkpt lat="27.924026" lon="-15.574231">
        <ele>911.647000</ele>
        <time>2021-01-01T09:23:28.981Z</time>
      </trkpt>
      <trkpt lat="27.924027" lon="-15.574241">
        <ele>911.871000</ele>
        <time>2021-01-01T09:23:30.203Z</time>
      </trkpt>
      <trkpt lat="27.924031" lon="-15.574257">
        <ele>912.198000</ele>
        <time>2021-01-01T09:23:32.212Z</time>
      </trkpt>
      <trkpt lat="27.924033" lon="-15.574271">
        <ele>912.485000</ele>
        <time>2021-01-01T09:23:33.928Z</time>
      </trkpt>
      <trkpt lat="27.924030" lon="-15.574303">
        <ele>913.147000</ele>
        <time>2021-01-01T09:23:37.823Z</time>
      </trkpt>
      <trkpt lat="27.924029" lon="-15.574317">
        <ele>913.529000</ele>
        <time>2021-01-01T09:23:39.550Z</time>
      </trkpt>
      <trkpt lat="27.924029" lon="-15.574329">
        <ele>913.721000</ele>
        <time>2021-01-01T09:23:40.990Z</time>
      </trkpt>
      <trkpt lat="27.924029" lon="-15.574342">
        <ele>914.008000</ele>
        <time>2021-01-01T09:23:42.569Z</time>
      </trkpt>
      <trkpt lat="27.924026" lon="-15.574375">
        <ele>914.740000</ele>
        <time>2021-01-01T09:23:46.597Z</time>
      </trkpt>
      <trkpt lat="27.924012" lon="-15.574408">
        <ele>915.264000</ele>
        <time>2021-01-01T09:23:50.980Z</time>
      </trkpt>
      <trkpt lat="27.924002" lon="-15.574426">
        <ele>915.417000</ele>
        <time>2021-01-01T09:23:53.506Z</time>
      </trkpt>
      <trkpt lat="27.923987" lon="-15.574465">
        <ele>915.945000</ele>
        <time>2021-01-01T09:23:58.586Z</time>
      </trkpt>
      <trkpt lat="27.923981" lon="-15.574481">
        <ele>916.164000</ele>
        <time>2021-01-01T09:24:00.662Z</time>
      </trkpt>
      <trkpt lat="27.923978" lon="-15.574529">
        <ele>916.888000</ele>
        <time>2021-01-01T09:24:06.430Z</time>
      </trkpt>
      <trkpt lat="27.923960" lon="-15.574527">
        <ele>917.485000</ele>
        <time>2021-01-01T09:24:08.960Z</time>
      </trkpt>
      <trkpt lat="27.923959" lon="-15.574547">
        <ele>917.782000</ele>
        <time>2021-01-01T09:24:11.360Z</time>
      </trkpt>
      <trkpt lat="27.923944" lon="-15.574564">
        <ele>918.425000</ele>
        <time>2021-01-01T09:24:14.310Z</time>
      </trkpt>
      <trkpt lat="27.923924" lon="-15.574609">
        <ele>919.726000</ele>
        <time>2021-01-01T09:24:20.481Z</time>
      </trkpt>
      <trkpt lat="27.923906" lon="-15.574626">
        <ele>920.708000</ele>
        <time>2021-01-01T09:24:23.840Z</time>
      </trkpt>
      <trkpt lat="27.923897" lon="-15.574664">
        <ele>921.808000</ele>
        <time>2021-01-01T09:24:28.687Z</time>
      </trkpt>
      <trkpt lat="27.923887" lon="-15.574684">
        <ele>922.578000</ele>
        <time>2021-01-01T09:24:31.563Z</time>
      </trkpt>
      <trkpt lat="27.923867" lon="-15.574686">
        <ele>923.272000</ele>
        <time>2021-01-01T09:24:34.383Z</time>
      </trkpt>
      <trkpt lat="27.923851" lon="-15.574673">
        <ele>923.485000</ele>
        <time>2021-01-01T09:24:37.036Z</time>
      </trkpt>
      <trkpt lat="27.923840" lon="-15.574662">
        <ele>923.533000</ele>
        <time>2021-01-01T09:24:39.006Z</time>
      </trkpt>
      <trkpt lat="27.923822" lon="-15.574650">
        <ele>923.922000</ele>
        <time>2021-01-01T09:24:41.846Z</time>
      </trkpt>
      <trkpt lat="27.923813" lon="-15.574637">
        <ele>923.956000</ele>
        <time>2021-01-01T09:24:43.803Z</time>
      </trkpt>
      <trkpt lat="27.923811" lon="-15.574639">
        <ele>924.053000</ele>
        <time>2021-01-01T09:24:44.180Z</time>
      </trkpt>
      <trkpt lat="27.923804" lon="-15.574635">
        <ele>924.270000</ele>
        <time>2021-01-01T09:24:45.263Z</time>
      </trkpt>
      <trkpt lat="27.923802" lon="-15.574608">
        <ele>923.768000</ele>
        <time>2021-01-01T09:24:48.530Z</time>
      </trkpt>
      <trkpt lat="27.923811" lon="-15.574591">
        <ele>923.242000</ele>
        <time>2021-01-01T09:24:50.962Z</time>
      </trkpt>
      <trkpt lat="27.923804" lon="-15.574586">
        <ele>923.426000</ele>
        <time>2021-01-01T09:24:52.094Z</time>
      </trkpt>
      <trkpt lat="27.923802" lon="-15.574566">
        <ele>923.208000</ele>
        <time>2021-01-01T09:24:54.493Z</time>
      </trkpt>
      <trkpt lat="27.923793" lon="-15.574549">
        <ele>923.332000</ele>
        <time>2021-01-01T09:24:56.846Z</time>
      </trkpt>
      <trkpt lat="27.923788" lon="-15.574529">
        <ele>923.366000</ele>
        <time>2021-01-01T09:24:59.309Z</time>
      </trkpt>
      <trkpt lat="27.923785" lon="-15.574500">
        <ele>923.269000</ele>
        <time>2021-01-01T09:25:02.770Z</time>
      </trkpt>
      <trkpt lat="27.923758" lon="-15.574449">
        <ele>923.647000</ele>
        <time>2021-01-01T09:25:09.829Z</time>
      </trkpt>
      <trkpt lat="27.923749" lon="-15.574436">
        <ele>923.876000</ele>
        <time>2021-01-01T09:25:11.805Z</time>
      </trkpt>
      <trkpt lat="27.923712" lon="-15.574368">
        <ele>924.480000</ele>
        <time>2021-01-01T09:25:21.295Z</time>
      </trkpt>
      <trkpt lat="27.923707" lon="-15.574355">
        <ele>924.397000</ele>
        <time>2021-01-01T09:25:22.978Z</time>
      </trkpt>
      <trkpt lat="27.923655" lon="-15.574306">
        <ele>924.974000</ele>
        <time>2021-01-01T09:25:32.078Z</time>
      </trkpt>
      <trkpt lat="27.923621" lon="-15.574296">
        <ele>925.856000</ele>
        <time>2021-01-01T09:25:36.907Z</time>
      </trkpt>
      <trkpt lat="27.923578" lon="-15.574312">
        <ele>927.759000</ele>
        <time>2021-01-01T09:25:43.396Z</time>
      </trkpt>
      <trkpt lat="27.923560" lon="-15.574320">
        <ele>928.514000</ele>
        <time>2021-01-01T09:25:46.144Z</time>
      </trkpt>
      <trkpt lat="27.923551" lon="-15.574325">
        <ele>928.908000</ele>
        <time>2021-01-01T09:25:47.570Z</time>
      </trkpt>
      <trkpt lat="27.923540" lon="-15.574333">
        <ele>929.551000</ele>
        <time>2021-01-01T09:25:49.487Z</time>
      </trkpt>
      <trkpt lat="27.923509" lon="-15.574372">
        <ele>931.365000</ele>
        <time>2021-01-01T09:25:56.077Z</time>
      </trkpt>
      <trkpt lat="27.923453" lon="-15.574500">
        <ele>942.938000</ele>
        <time>2021-01-01T09:26:18.012Z</time>
      </trkpt>
      <trkpt lat="27.923453" lon="-15.574500">
        <ele>942.916000</ele>
        <time>2021-01-01T09:26:18.038Z</time>
      </trkpt>
      <trkpt lat="27.923447" lon="-15.574699">
        <ele>946.425000</ele>
        <time>2021-01-01T09:26:42.006Z</time>
      </trkpt>
      <trkpt lat="27.923445" lon="-15.574813">
        <ele>948.599000</ele>
        <time>2021-01-01T09:26:55.768Z</time>
      </trkpt>
      <trkpt lat="27.923455" lon="-15.574952">
        <ele>950.656000</ele>
        <time>2021-01-01T09:27:12.476Z</time>
      </trkpt>
      <trkpt lat="27.923479" lon="-15.575028">
        <ele>951.183000</ele>
        <time>2021-01-01T09:27:22.060Z</time>
      </trkpt>
      <trkpt lat="27.923554" lon="-15.575104">
        <ele>950.084000</ele>
        <time>2021-01-01T09:27:35.624Z</time>
      </trkpt>
      <trkpt lat="27.923777" lon="-15.575346">
        <ele>948.707000</ele>
        <time>2021-01-01T09:28:17.085Z</time>
      </trkpt>
      <trkpt lat="27.923806" lon="-15.575389">
        <ele>948.617000</ele>
        <time>2021-01-01T09:28:23.495Z</time>
      </trkpt>
      <trkpt lat="27.923817" lon="-15.575415">
        <ele>948.808000</ele>
        <time>2021-01-01T09:28:26.918Z</time>
      </trkpt>
      <trkpt lat="27.923817" lon="-15.575475">
        <ele>949.764000</ele>
        <time>2021-01-01T09:28:34.120Z</time>
      </trkpt>
      <trkpt lat="27.923811" lon="-15.575639">
        <ele>950.018000</ele>
        <time>2021-01-01T09:28:53.570Z</time>
      </trkpt>
      <trkpt lat="27.923748" lon="-15.575699">
        <ele>950.161000</ele>
        <time>2021-01-01T09:29:04.612Z</time>
      </trkpt>
      <trkpt lat="27.923632" lon="-15.575775">
        <ele>950.599000</ele>
        <time>2021-01-01T09:29:22.593Z</time>
      </trkpt>
      <trkpt lat="27.923195" lon="-15.575957">
        <ele>950.638000</ele>
        <time>2021-01-01T09:30:25.033Z</time>
      </trkpt>
      <trkpt lat="27.923043" lon="-15.576063">
        <ele>949.492000</ele>
        <time>2021-01-01T09:30:49.014Z</time>
      </trkpt>
      <trkpt lat="27.922810" lon="-15.575956">
        <ele>950.199000</ele>
        <time>2021-01-01T09:31:22.742Z</time>
      </trkpt>
      <trkpt lat="27.922732" lon="-15.576035">
        <ele>949.586000</ele>
        <time>2021-01-01T09:31:36.798Z</time>
      </trkpt>
      <trkpt lat="27.922579" lon="-15.576214">
        <ele>948.694000</ele>
        <time>2021-01-01T09:32:06.325Z</time>
      </trkpt>
      <trkpt lat="27.922352" lon="-15.576522">
        <ele>946.457000</ele>
        <time>2021-01-01T09:32:53.922Z</time>
      </trkpt>
      <trkpt lat="27.922219" lon="-15.576814">
        <ele>946.522000</ele>
        <time>2021-01-01T09:33:32.845Z</time>
      </trkpt>
      <trkpt lat="27.922121" lon="-15.577073">
        <ele>947.008000</ele>
        <time>2021-01-01T09:34:06.233Z</time>
      </trkpt>
      <trkpt lat="27.922093" lon="-15.577168">
        <ele>947.025000</ele>
        <time>2021-01-01T09:34:18.098Z</time>
      </trkpt>
      <trkpt lat="27.922028" lon="-15.577235">
        <ele>947.079000</ele>
        <time>2021-01-01T09:34:29.888Z</time>
      </trkpt>
      <trkpt lat="27.921728" lon="-15.577485">
        <ele>947.012000</ele>
        <time>2021-01-01T09:35:19.844Z</time>
      </trkpt>
      <trkpt lat="27.921635" lon="-15.577564">
        <ele>947.270000</ele>
        <time>2021-01-01T09:35:35.440Z</time>
      </trkpt>
      <trkpt lat="27.921646" lon="-15.577680">
        <ele>947.669000</ele>
        <time>2021-01-01T09:35:49.271Z</time>
      </trkpt>
      <trkpt lat="27.921593" lon="-15.577842">
        <ele>947.543000</ele>
        <time>2021-01-01T09:36:09.740Z</time>
      </trkpt>
      <trkpt lat="27.921576" lon="-15.578057">
        <ele>946.960000</ele>
        <time>2021-01-01T09:36:35.325Z</time>
      </trkpt>
      <trkpt lat="27.921646" lon="-15.578498">
        <ele>946.797000</ele>
        <time>2021-01-01T09:37:28.413Z</time>
      </trkpt>
      <trkpt lat="27.921990" lon="-15.579544">
        <ele>953.055000</ele>
        <time>2021-01-01T09:39:40.867Z</time>
      </trkpt>
      <trkpt lat="27.922194" lon="-15.580405">
        <ele>963.807000</ele>
        <time>2021-01-01T09:41:27.277Z</time>
      </trkpt>
      <trkpt lat="27.922455" lon="-15.580614">
        <ele>968.117000</ele>
        <time>2021-01-01T09:42:10.464Z</time>
      </trkpt>
      <trkpt lat="27.922461" lon="-15.580698">
        <ele>969.908000</ele>
        <time>2021-01-01T09:42:20.680Z</time>
      </trkpt>
      <trkpt lat="27.922379" lon="-15.580744">
        <ele>970.621000</ele>
        <time>2021-01-01T09:42:32.982Z</time>
      </trkpt>
      <trkpt lat="27.922339" lon="-15.580806">
        <ele>971.865000</ele>
        <time>2021-01-01T09:42:42.201Z</time>
      </trkpt>
      <trkpt lat="27.922236" lon="-15.580882">
        <ele>973.788000</ele>
        <time>2021-01-01T09:42:58.851Z</time>
      </trkpt>
      <trkpt lat="27.922230" lon="-15.580945">
        <ele>975.766000</ele>
        <time>2021-01-01T09:43:06.728Z</time>
      </trkpt>
      <trkpt lat="27.921563" lon="-15.581617">
        <ele>990.165000</ele>
        <time>2021-01-01T09:45:07.725Z</time>
      </trkpt>
      <trkpt lat="27.921528" lon="-15.581702">
        <ele>992.529000</ele>
        <time>2021-01-01T09:45:19.196Z</time>
      </trkpt>
      <trkpt lat="27.922028" lon="-15.581923">
        <ele>998.566000</ele>
        <time>2021-01-01T09:46:31.542Z</time>
      </trkpt>
      <trkpt lat="27.922303" lon="-15.582002">
        <ele>1007.353000</ele>
        <time>2021-01-01T09:47:11.035Z</time>
      </trkpt>
      <trkpt lat="27.922442" lon="-15.582027">
        <ele>1012.445000</ele>
        <time>2021-01-01T09:47:30.881Z</time>
      </trkpt>
      <trkpt lat="27.922509" lon="-15.582091">
        <ele>1018.647000</ele>
        <time>2021-01-01T09:47:44.815Z</time>
      </trkpt>
      <trkpt lat="27.922625" lon="-15.582172">
        <ele>1027.211000</ele>
        <time>2021-01-01T09:48:05.808Z</time>
      </trkpt>
      <trkpt lat="27.922652" lon="-15.582263">
        <ele>1031.308000</ele>
        <time>2021-01-01T09:48:18.209Z</time>
      </trkpt>
      <trkpt lat="27.922781" lon="-15.582214">
        <ele>1032.970000</ele>
        <time>2021-01-01T09:48:36.565Z</time>
      </trkpt>
      <trkpt lat="27.922882" lon="-15.582232">
        <ele>1035.284000</ele>
        <time>2021-01-01T09:48:50.556Z</time>
      </trkpt>
      <trkpt lat="27.922934" lon="-15.582205">
        <ele>1035.477000</ele>
        <time>2021-01-01T09:48:58.231Z</time>
      </trkpt>
      <trkpt lat="27.923052" lon="-15.582090">
        <ele>1034.725000</ele>
        <time>2021-01-01T09:49:19.132Z</time>
      </trkpt>
      <trkpt lat="27.923104" lon="-15.581946">
        <ele>1033.134000</ele>
        <time>2021-01-01T09:49:37.663Z</time>
      </trkpt>
      <trkpt lat="27.923228" lon="-15.582276">
        <ele>1043.958000</ele>
        <time>2021-01-01T09:50:22.110Z</time>
      </trkpt>
      <trkpt lat="27.923224" lon="-15.582465">
        <ele>1049.095000</ele>
        <time>2021-01-01T09:50:45.350Z</time>
      </trkpt>
      <trkpt lat="27.923113" lon="-15.582494">
        <ele>1046.632000</ele>
        <time>2021-01-01T09:51:00.912Z</time>
      </trkpt>
      <trkpt lat="27.923127" lon="-15.582548">
        <ele>1049.756000</ele>
        <time>2021-01-01T09:51:08.570Z</time>
      </trkpt>
      <trkpt lat="27.923279" lon="-15.582563">
        <ele>1054.159000</ele>
        <time>2021-01-01T09:51:29.708Z</time>
      </trkpt>
      <trkpt lat="27.923323" lon="-15.582585">
        <ele>1055.914000</ele>
        <time>2021-01-01T09:51:36.496Z</time>
      </trkpt>
      <trkpt lat="27.923310" lon="-15.582594">
        <ele>1056.008000</ele>
        <time>2021-01-01T09:51:38.543Z</time>
      </trkpt>
      <trkpt lat="27.923237" lon="-15.582626">
        <ele>1055.831000</ele>
        <time>2021-01-01T09:51:49.042Z</time>
      </trkpt>
      <trkpt lat="27.923170" lon="-15.582660">
        <ele>1056.265000</ele>
        <time>2021-01-01T09:51:58.902Z</time>
      </trkpt>
      <trkpt lat="27.923212" lon="-15.582689">
        <ele>1058.218000</ele>
        <time>2021-01-01T09:52:05.907Z</time>
      </trkpt>
      <trkpt lat="27.923472" lon="-15.582643">
        <ele>1058.926000</ele>
        <time>2021-01-01T09:52:41.205Z</time>
      </trkpt>
      <trkpt lat="27.923619" lon="-15.582660">
        <ele>1059.675000</ele>
        <time>2021-01-01T09:53:01.040Z</time>
      </trkpt>
      <trkpt lat="27.923638" lon="-15.582671">
        <ele>1059.659000</ele>
        <time>2021-01-01T09:53:03.902Z</time>
      </trkpt>
      <trkpt lat="27.923531" lon="-15.583291">
        <ele>1070.456000</ele>
        <time>2021-01-01T09:54:19.872Z</time>
      </trkpt>
      <trkpt lat="27.923565" lon="-15.583473">
        <ele>1072.793000</ele>
        <time>2021-01-01T09:54:42.092Z</time>
      </trkpt>
      <trkpt lat="27.923560" lon="-15.583575">
        <ele>1075.034000</ele>
        <time>2021-01-01T09:54:54.494Z</time>
      </trkpt>
      <trkpt lat="27.923468" lon="-15.583748">
        <ele>1079.555000</ele>
        <time>2021-01-01T09:55:19.030Z</time>
      </trkpt>
      <trkpt lat="27.923487" lon="-15.583797">
        <ele>1079.010000</ele>
        <time>2021-01-01T09:55:25.404Z</time>
      </trkpt>
      <trkpt lat="27.923626" lon="-15.583888">
        <ele>1074.608000</ele>
        <time>2021-01-01T09:55:47.582Z</time>
      </trkpt>
      <trkpt lat="27.923649" lon="-15.584087">
        <ele>1075.749000</ele>
        <time>2021-01-01T09:56:11.400Z</time>
      </trkpt>
      <trkpt lat="27.923680" lon="-15.584208">
        <ele>1077.383000</ele>
        <time>2021-01-01T09:56:26.456Z</time>
      </trkpt>
      <trkpt lat="27.923573" lon="-15.584436">
        <ele>1086.566000</ele>
        <time>2021-01-01T09:56:58.987Z</time>
      </trkpt>
      <trkpt lat="27.923661" lon="-15.584521">
        <ele>1087.864000</ele>
        <time>2021-01-01T09:57:14.579Z</time>
      </trkpt>
      <trkpt lat="27.923708" lon="-15.584628">
        <ele>1091.323000</ele>
        <time>2021-01-01T09:57:29.338Z</time>
      </trkpt>
      <trkpt lat="27.923855" lon="-15.584819">
        <ele>1093.877000</ele>
        <time>2021-01-01T09:57:59.507Z</time>
      </trkpt>
      <trkpt lat="27.923912" lon="-15.584931">
        <ele>1093.034000</ele>
        <time>2021-01-01T09:58:14.854Z</time>
      </trkpt>
      <trkpt lat="27.924010" lon="-15.584975">
        <ele>1088.321000</ele>
        <time>2021-01-01T09:58:30.091Z</time>
      </trkpt>
      <trkpt lat="27.924021" lon="-15.585119">
        <ele>1086.116000</ele>
        <time>2021-01-01T09:58:47.421Z</time>
      </trkpt>
      <trkpt lat="27.923928" lon="-15.585518">
        <ele>1092.376000</ele>
        <time>2021-01-01T09:59:36.891Z</time>
      </trkpt>
      <trkpt lat="27.923823" lon="-15.585864">
        <ele>1107.313000</ele>
        <time>2021-01-01T10:00:23.830Z</time>
      </trkpt>
      <trkpt lat="27.923846" lon="-15.585935">
        <ele>1108.908000</ele>
        <time>2021-01-01T10:00:32.994Z</time>
      </trkpt>
      <trkpt lat="27.924145" lon="-15.585983">
        <ele>1107.227000</ele>
        <time>2021-01-01T10:01:13.539Z</time>
      </trkpt>
      <trkpt lat="27.924527" lon="-15.585909">
        <ele>1098.321000</ele>
        <time>2021-01-01T10:02:06.606Z</time>
      </trkpt>
      <trkpt lat="27.924586" lon="-15.585882">
        <ele>1096.314000</ele>
        <time>2021-01-01T10:02:15.476Z</time>
      </trkpt>
      <trkpt lat="27.924832" lon="-15.586062">
        <ele>1099.672000</ele>
        <time>2021-01-01T10:02:54.965Z</time>
      </trkpt>
      <trkpt lat="27.924988" lon="-15.586403">
        <ele>1107.271000</ele>
        <time>2021-01-01T10:03:41.374Z</time>
      </trkpt>
      <trkpt lat="27.925032" lon="-15.586783">
        <ele>1106.935000</ele>
        <time>2021-01-01T10:04:26.783Z</time>
      </trkpt>
      <trkpt lat="27.925051" lon="-15.586983">
        <ele>1106.912000</ele>
        <time>2021-01-01T10:04:50.615Z</time>
      </trkpt>
      <trkpt lat="27.925034" lon="-15.587172">
        <ele>1109.259000</ele>
        <time>2021-01-01T10:05:13.301Z</time>
      </trkpt>
      <trkpt lat="27.925053" lon="-15.587224">
        <ele>1108.931000</ele>
        <time>2021-01-01T10:05:19.980Z</time>
      </trkpt>
      <trkpt lat="27.925219" lon="-15.587292">
        <ele>1103.161000</ele>
        <time>2021-01-01T10:05:44.654Z</time>
      </trkpt>
      <trkpt lat="27.925238" lon="-15.587357">
        <ele>1102.607000</ele>
        <time>2021-01-01T10:05:52.793Z</time>
      </trkpt>
      <trkpt lat="27.925185" lon="-15.587528">
        <ele>1104.308000</ele>
        <time>2021-01-01T10:06:14.361Z</time>
      </trkpt>
      <trkpt lat="27.925099" lon="-15.587634">
        <ele>1106.589000</ele>
        <time>2021-01-01T10:06:31.631Z</time>
      </trkpt>
      <trkpt lat="27.925038" lon="-15.587741">
        <ele>1108.413000</ele>
        <time>2021-01-01T10:06:46.878Z</time>
      </trkpt>
      <trkpt lat="27.924992" lon="-15.587901">
        <ele>1111.516000</ele>
        <time>2021-01-01T10:07:07.161Z</time>
      </trkpt>
      <trkpt lat="27.925021" lon="-15.588004">
        <ele>1111.274000</ele>
        <time>2021-01-01T10:07:19.972Z</time>
      </trkpt>
      <trkpt lat="27.925228" lon="-15.588229">
        <ele>1102.763000</ele>
        <time>2021-01-01T10:07:59.803Z</time>
      </trkpt>
      <trkpt lat="27.925286" lon="-15.588321">
        <ele>1101.437000</ele>
        <time>2021-01-01T10:08:13.288Z</time>
      </trkpt>
      <trkpt lat="27.925190" lon="-15.588555">
        <ele>1109.424000</ele>
        <time>2021-01-01T10:08:45.337Z</time>
      </trkpt>
      <trkpt lat="27.925198" lon="-15.588669">
        <ele>1110.651000</ele>
        <time>2021-01-01T10:08:58.966Z</time>
      </trkpt>
      <trkpt lat="27.925167" lon="-15.588755">
        <ele>1112.835000</ele>
        <time>2021-01-01T10:09:10.282Z</time>
      </trkpt>
      <trkpt lat="27.925022" lon="-15.588893">
        <ele>1120.186000</ele>
        <time>2021-01-01T10:09:37.188Z</time>
      </trkpt>
      <trkpt lat="27.925013" lon="-15.588979">
        <ele>1122.614000</ele>
        <time>2021-01-01T10:09:47.858Z</time>
      </trkpt>
      <trkpt lat="27.925055" lon="-15.589042">
        <ele>1122.208000</ele>
        <time>2021-01-01T10:09:57.221Z</time>
      </trkpt>
      <trkpt lat="27.925438" lon="-15.589111">
        <ele>1109.589000</ele>
        <time>2021-01-01T10:10:51.406Z</time>
      </trkpt>
      <trkpt lat="27.925482" lon="-15.589173">
        <ele>1109.753000</ele>
        <time>2021-01-01T10:11:00.830Z</time>
      </trkpt>
      <trkpt lat="27.925429" lon="-15.589378">
        <ele>1117.446000</ele>
        <time>2021-01-01T10:11:27.784Z</time>
      </trkpt>
      <trkpt lat="27.925423" lon="-15.589403">
        <ele>1118.434000</ele>
        <time>2021-01-01T10:11:31.076Z</time>
      </trkpt>
      <trkpt lat="27.925434" lon="-15.589474">
        <ele>1119.943000</ele>
        <time>2021-01-01T10:11:39.808Z</time>
      </trkpt>
      <trkpt lat="27.925476" lon="-15.589655">
        <ele>1121.887000</ele>
        <time>2021-01-01T10:12:02.104Z</time>
      </trkpt>
      <trkpt lat="27.925539" lon="-15.589726">
        <ele>1121.434000</ele>
        <time>2021-01-01T10:12:14.038Z</time>
      </trkpt>
      <trkpt lat="27.925627" lon="-15.589743">
        <ele>1121.921000</ele>
        <time>2021-01-01T10:12:26.023Z</time>
      </trkpt>
      <trkpt lat="27.925730" lon="-15.589657">
        <ele>1120.936000</ele>
        <time>2021-01-01T10:12:43.227Z</time>
      </trkpt>
      <trkpt lat="27.925808" lon="-15.589612">
        <ele>1120.517000</ele>
        <time>2021-01-01T10:12:54.978Z</time>
      </trkpt>
      <trkpt lat="27.925843" lon="-15.589488">
        <ele>1118.418000</ele>
        <time>2021-01-01T10:13:10.607Z</time>
      </trkpt>
      <trkpt lat="27.925948" lon="-15.589256">
        <ele>1115.108000</ele>
        <time>2021-01-01T10:13:41.747Z</time>
      </trkpt>
      <trkpt lat="27.926083" lon="-15.589138">
        <ele>1115.429000</ele>
        <time>2021-01-01T10:14:04.623Z</time>
      </trkpt>
      <trkpt lat="27.926173" lon="-15.589124">
        <ele>1117.433000</ele>
        <time>2021-01-01T10:14:17.042Z</time>
      </trkpt>
      <trkpt lat="27.926424" lon="-15.589188">
        <ele>1125.566000</ele>
        <time>2021-01-01T10:14:52.910Z</time>
      </trkpt>
      <trkpt lat="27.926506" lon="-15.589238">
        <ele>1126.354000</ele>
        <time>2021-01-01T10:15:05.436Z</time>
      </trkpt>
      <trkpt lat="27.926539" lon="-15.589310">
        <ele>1127.773000</ele>
        <time>2021-01-01T10:15:15.197Z</time>
      </trkpt>
      <trkpt lat="27.926651" lon="-15.589438">
        <ele>1129.167000</ele>
        <time>2021-01-01T10:15:36.606Z</time>
      </trkpt>
      <trkpt lat="27.926758" lon="-15.589690">
        <ele>1130.924000</ele>
        <time>2021-01-01T10:16:09.799Z</time>
      </trkpt>
      <trkpt lat="27.926802" lon="-15.589759">
        <ele>1130.851000</ele>
        <time>2021-01-01T10:16:19.881Z</time>
      </trkpt>
      <trkpt lat="27.926884" lon="-15.589851">
        <ele>1130.841000</ele>
        <time>2021-01-01T10:16:35.364Z</time>
      </trkpt>
      <trkpt lat="27.926836" lon="-15.589982">
        <ele>1137.481000</ele>
        <time>2021-01-01T10:16:53.976Z</time>
      </trkpt>
      <trkpt lat="27.926815" lon="-15.590083">
        <ele>1141.709000</ele>
        <time>2021-01-01T10:17:07.285Z</time>
      </trkpt>
      <trkpt lat="27.927113" lon="-15.590200">
        <ele>1139.308000</ele>
        <time>2021-01-01T10:17:49.679Z</time>
      </trkpt>
      <trkpt lat="27.927508" lon="-15.590186">
        <ele>1137.020000</ele>
        <time>2021-01-01T10:18:42.744Z</time>
      </trkpt>
      <trkpt lat="27.927571" lon="-15.590228">
        <ele>1138.094000</ele>
        <time>2021-01-01T10:18:52.633Z</time>
      </trkpt>
      <trkpt lat="27.927613" lon="-15.591040">
        <ele>1157.127000</ele>
        <time>2021-01-01T10:20:31.697Z</time>
      </trkpt>
      <trkpt lat="27.927573" lon="-15.591283">
        <ele>1162.765000</ele>
        <time>2021-01-01T10:21:01.761Z</time>
      </trkpt>
      <trkpt lat="27.927683" lon="-15.591688">
        <ele>1172.254000</ele>
        <time>2021-01-01T10:21:53.247Z</time>
      </trkpt>
      <trkpt lat="27.927868" lon="-15.592179">
        <ele>1181.918000</ele>
        <time>2021-01-01T10:22:57.552Z</time>
      </trkpt>
      <trkpt lat="27.928002" lon="-15.592638">
        <ele>1187.335000</ele>
        <time>2021-01-01T10:23:55.196Z</time>
      </trkpt>
      <trkpt lat="27.928109" lon="-15.592758">
        <ele>1185.242000</ele>
        <time>2021-01-01T10:24:15.552Z</time>
      </trkpt>
      <trkpt lat="27.928215" lon="-15.592906">
        <ele>1187.559000</ele>
        <time>2021-01-01T10:24:38.296Z</time>
      </trkpt>
      <trkpt lat="27.928336" lon="-15.593197">
        <ele>1191.803000</ele>
        <time>2021-01-01T10:25:16.742Z</time>
      </trkpt>
      <trkpt lat="27.928358" lon="-15.593273">
        <ele>1192.523000</ele>
        <time>2021-01-01T10:25:26.257Z</time>
      </trkpt>
      <trkpt lat="27.928358" lon="-15.593273">
        <ele>1192.508000</ele>
        <time>2021-01-01T10:25:26.275Z</time>
      </trkpt>
      <trkpt lat="27.928385" lon="-15.593361">
        <ele>1192.721000</ele>
        <time>2021-01-01T10:25:37.314Z</time>
      </trkpt>
      <trkpt lat="27.928381" lon="-15.593522">
        <ele>1193.475000</ele>
        <time>2021-01-01T10:25:56.418Z</time>
      </trkpt>
      <trkpt lat="27.928318" lon="-15.593748">
        <ele>1197.448000</ele>
        <time>2021-01-01T10:26:24.900Z</time>
      </trkpt>
      <trkpt lat="27.928225" lon="-15.594167">
        <ele>1204.166000</ele>
        <time>2021-01-01T10:27:16.721Z</time>
      </trkpt>
      <trkpt lat="27.928284" lon="-15.594457">
        <ele>1200.635000</ele>
        <time>2021-01-01T10:27:52.235Z</time>
      </trkpt>
      <trkpt lat="27.928286" lon="-15.594755">
        <ele>1203.129000</ele>
        <time>2021-01-01T10:28:27.669Z</time>
      </trkpt>
      <trkpt lat="27.928257" lon="-15.594848">
        <ele>1204.366000</ele>
        <time>2021-01-01T10:28:39.448Z</time>
      </trkpt>
      <trkpt lat="27.928086" lon="-15.595080">
        <ele>1213.093000</ele>
        <time>2021-01-01T10:29:16.758Z</time>
      </trkpt>
      <trkpt lat="27.928007" lon="-15.595272">
        <ele>1216.185000</ele>
        <time>2021-01-01T10:29:42.127Z</time>
      </trkpt>
      <trkpt lat="27.927964" lon="-15.595302">
        <ele>1218.189000</ele>
        <time>2021-01-01T10:29:49.319Z</time>
      </trkpt>
      <trkpt lat="27.927946" lon="-15.595387">
        <ele>1218.817000</ele>
        <time>2021-01-01T10:29:59.702Z</time>
      </trkpt>
      <trkpt lat="27.927922" lon="-15.595452">
        <ele>1219.808000</ele>
        <time>2021-01-01T10:30:08.133Z</time>
      </trkpt>
      <trkpt lat="27.928097" lon="-15.595446">
        <ele>1212.544000</ele>
        <time>2021-01-01T10:30:33.191Z</time>
      </trkpt>
      <trkpt lat="27.928145" lon="-15.595464">
        <ele>1211.098000</ele>
        <time>2021-01-01T10:30:40.193Z</time>
      </trkpt>
      <trkpt lat="27.928143" lon="-15.595527">
        <ele>1211.361000</ele>
        <time>2021-01-01T10:30:47.668Z</time>
      </trkpt>
      <trkpt lat="27.928118" lon="-15.595662">
        <ele>1212.859000</ele>
        <time>2021-01-01T10:31:04.109Z</time>
      </trkpt>
      <trkpt lat="27.927885" lon="-15.595910">
        <ele>1223.018000</ele>
        <time>2021-01-01T10:31:48.714Z</time>
      </trkpt>
      <trkpt lat="27.927872" lon="-15.595985">
        <ele>1224.542000</ele>
        <time>2021-01-01T10:31:57.954Z</time>
      </trkpt>
      <trkpt lat="27.927954" lon="-15.596030">
        <ele>1221.919000</ele>
        <time>2021-01-01T10:32:10.576Z</time>
      </trkpt>
      <trkpt lat="27.928002" lon="-15.596262">
        <ele>1223.416000</ele>
        <time>2021-01-01T10:32:38.864Z</time>
      </trkpt>
      <trkpt lat="27.928252" lon="-15.596324">
        <ele>1217.132000</ele>
        <time>2021-01-01T10:33:14.009Z</time>
      </trkpt>
      <trkpt lat="27.928358" lon="-15.596563">
        <ele>1219.092000</ele>
        <time>2021-01-01T10:33:45.780Z</time>
      </trkpt>
      <trkpt lat="27.928355" lon="-15.596718">
        <ele>1223.011000</ele>
        <time>2021-01-01T10:34:04.746Z</time>
      </trkpt>
      <trkpt lat="27.928511" lon="-15.596903">
        <ele>1227.808000</ele>
        <time>2021-01-01T10:34:35.592Z</time>
      </trkpt>
      <trkpt lat="27.928519" lon="-15.596955">
        <ele>1229.819000</ele>
        <time>2021-01-01T10:34:42.299Z</time>
      </trkpt>
      <trkpt lat="27.928458" lon="-15.596960">
        <ele>1231.573000</ele>
        <time>2021-01-01T10:34:50.769Z</time>
      </trkpt>
      <trkpt lat="27.928419" lon="-15.596938">
        <ele>1231.596000</ele>
        <time>2021-01-01T10:34:56.612Z</time>
      </trkpt>
      <trkpt lat="27.928383" lon="-15.596941">
        <ele>1232.654000</ele>
        <time>2021-01-01T10:35:01.618Z</time>
      </trkpt>
      <trkpt lat="27.928389" lon="-15.596998">
        <ele>1235.013000</ele>
        <time>2021-01-01T10:35:08.989Z</time>
      </trkpt>
      <trkpt lat="27.928564" lon="-15.597087">
        <ele>1235.267000</ele>
        <time>2021-01-01T10:35:34.718Z</time>
      </trkpt>
      <trkpt lat="27.928641" lon="-15.597164">
        <ele>1237.314000</ele>
        <time>2021-01-01T10:35:48.715Z</time>
      </trkpt>
      <trkpt lat="27.928694" lon="-15.597289">
        <ele>1241.281000</ele>
        <time>2021-01-01T10:36:05.824Z</time>
      </trkpt>
      <trkpt lat="27.928757" lon="-15.597422">
        <ele>1244.722000</ele>
        <time>2021-01-01T10:36:24.178Z</time>
      </trkpt>
      <trkpt lat="27.928896" lon="-15.597450">
        <ele>1241.862000</ele>
        <time>2021-01-01T10:36:43.421Z</time>
      </trkpt>
      <trkpt lat="27.928961" lon="-15.597474">
        <ele>1240.908000</ele>
        <time>2021-01-01T10:36:52.661Z</time>
      </trkpt>
      <trkpt lat="27.929003" lon="-15.597594">
        <ele>1244.508000</ele>
        <time>2021-01-01T10:37:08.557Z</time>
      </trkpt>
      <trkpt lat="27.929037" lon="-15.597640">
        <ele>1245.588000</ele>
        <time>2021-01-01T10:37:15.781Z</time>
      </trkpt>
      <trkpt lat="27.929213" lon="-15.597696">
        <ele>1243.382000</ele>
        <time>2021-01-01T10:37:40.440Z</time>
      </trkpt>
      <trkpt lat="27.929282" lon="-15.597766">
        <ele>1244.935000</ele>
        <time>2021-01-01T10:37:53.006Z</time>
      </trkpt>
      <trkpt lat="27.929577" lon="-15.597889">
        <ele>1247.343000</ele>
        <time>2021-01-01T10:38:35.262Z</time>
      </trkpt>
      <trkpt lat="27.929678" lon="-15.597974">
        <ele>1250.892000</ele>
        <time>2021-01-01T10:38:52.673Z</time>
      </trkpt>
      <trkpt lat="27.929745" lon="-15.597927">
        <ele>1251.236000</ele>
        <time>2021-01-01T10:39:03.251Z</time>
      </trkpt>
      <trkpt lat="27.929825" lon="-15.597901">
        <ele>1252.543000</ele>
        <time>2021-01-01T10:39:14.523Z</time>
      </trkpt>
      <trkpt lat="27.930033" lon="-15.597878">
        <ele>1256.060000</ele>
        <time>2021-01-01T10:39:42.866Z</time>
      </trkpt>
      <trkpt lat="27.930138" lon="-15.597818">
        <ele>1255.359000</ele>
        <time>2021-01-01T10:39:58.661Z</time>
      </trkpt>
      <trkpt lat="27.930199" lon="-15.597737">
        <ele>1253.503000</ele>
        <time>2021-01-01T10:40:11.468Z</time>
      </trkpt>
      <trkpt lat="27.930249" lon="-15.597612">
        <ele>1250.023000</ele>
        <time>2021-01-01T10:40:28.257Z</time>
      </trkpt>
      <trkpt lat="27.930291" lon="-15.597651">
        <ele>1251.408000</ele>
        <time>2021-01-01T10:40:35.730Z</time>
      </trkpt>
      <trkpt lat="27.930279" lon="-15.597742">
        <ele>1254.021000</ele>
        <time>2021-01-01T10:40:47.077Z</time>
      </trkpt>
      <trkpt lat="27.930197" lon="-15.597877">
        <ele>1256.885000</ele>
        <time>2021-01-01T10:41:06.791Z</time>
      </trkpt>
      <trkpt lat="27.930090" lon="-15.597974">
        <ele>1258.188000</ele>
        <time>2021-01-01T10:41:25.241Z</time>
      </trkpt>
      <trkpt lat="27.929949" lon="-15.598030">
        <ele>1257.576000</ele>
        <time>2021-01-01T10:41:45.292Z</time>
      </trkpt>
      <trkpt lat="27.929848" lon="-15.598079">
        <ele>1255.595000</ele>
        <time>2021-01-01T10:42:00.219Z</time>
      </trkpt>
      <trkpt lat="27.930025" lon="-15.598129">
        <ele>1258.129000</ele>
        <time>2021-01-01T10:42:24.872Z</time>
      </trkpt>
      <trkpt lat="27.930128" lon="-15.598129">
        <ele>1259.116000</ele>
        <time>2021-01-01T10:42:38.735Z</time>
      </trkpt>
      <trkpt lat="27.930209" lon="-15.598116">
        <ele>1259.953000</ele>
        <time>2021-01-01T10:42:49.751Z</time>
      </trkpt>
      <trkpt lat="27.930298" lon="-15.598036">
        <ele>1260.772000</ele>
        <time>2021-01-01T10:43:05.023Z</time>
      </trkpt>
      <trkpt lat="27.930617" lon="-15.597881">
        <ele>1261.513000</ele>
        <time>2021-01-01T10:43:51.582Z</time>
      </trkpt>
      <trkpt lat="27.930697" lon="-15.597900">
        <ele>1264.614000</ele>
        <time>2021-01-01T10:44:03.164Z</time>
      </trkpt>
      <trkpt lat="27.930786" lon="-15.597964">
        <ele>1268.908000</ele>
        <time>2021-01-01T10:44:18.221Z</time>
      </trkpt>
      <trkpt lat="27.930897" lon="-15.598001">
        <ele>1273.583000</ele>
        <time>2021-01-01T10:44:34.730Z</time>
      </trkpt>
      <trkpt lat="27.931052" lon="-15.597991">
        <ele>1279.387000</ele>
        <time>2021-01-01T10:44:56.694Z</time>
      </trkpt>
      <trkpt lat="27.931258" lon="-15.597930">
        <ele>1286.210000</ele>
        <time>2021-01-01T10:45:26.408Z</time>
      </trkpt>
      <trkpt lat="27.931376" lon="-15.597865">
        <ele>1289.928000</ele>
        <time>2021-01-01T10:45:44.568Z</time>
      </trkpt>
      <trkpt lat="27.931427" lon="-15.597745">
        <ele>1289.267000</ele>
        <time>2021-01-01T10:46:00.364Z</time>
      </trkpt>
      <trkpt lat="27.931544" lon="-15.597727">
        <ele>1289.681000</ele>
        <time>2021-01-01T10:46:16.205Z</time>
      </trkpt>
      <trkpt lat="27.931811" lon="-15.597912">
        <ele>1296.628000</ele>
        <time>2021-01-01T10:46:59.011Z</time>
      </trkpt>
      <trkpt lat="27.931992" lon="-15.598046">
        <ele>1299.625000</ele>
        <time>2021-01-01T10:47:28.237Z</time>
      </trkpt>
      <trkpt lat="27.932497" lon="-15.598125">
        <ele>1301.223000</ele>
        <time>2021-01-01T10:48:36.625Z</time>
      </trkpt>
      <trkpt lat="27.933047" lon="-15.598479">
        <ele>1306.383000</ele>
        <time>2021-01-01T10:50:01.694Z</time>
      </trkpt>
      <trkpt lat="27.933150" lon="-15.598513">
        <ele>1306.811000</ele>
        <time>2021-01-01T10:50:16.091Z</time>
      </trkpt>
      <trkpt lat="27.933260" lon="-15.598513">
        <ele>1307.708000</ele>
        <time>2021-01-01T10:50:30.880Z</time>
      </trkpt>
      <trkpt lat="27.933337" lon="-15.598557">
        <ele>1308.248000</ele>
        <time>2021-01-01T10:50:42.465Z</time>
      </trkpt>
      <trkpt lat="27.933426" lon="-15.598499">
        <ele>1309.282000</ele>
        <time>2021-01-01T10:50:56.292Z</time>
      </trkpt>
      <trkpt lat="27.933499" lon="-15.598502">
        <ele>1309.835000</ele>
        <time>2021-01-01T10:51:06.110Z</time>
      </trkpt>
      <trkpt lat="27.933752" lon="-15.598347">
        <ele>1315.563000</ele>
        <time>2021-01-01T10:51:45.300Z</time>
      </trkpt>
      <trkpt lat="27.933813" lon="-15.598345">
        <ele>1317.162000</ele>
        <time>2021-01-01T10:51:53.707Z</time>
      </trkpt>
      <trkpt lat="27.933749" lon="-15.598448">
        <ele>1314.936000</ele>
        <time>2021-01-01T10:52:08.865Z</time>
      </trkpt>
      <trkpt lat="27.933884" lon="-15.598376">
        <ele>1318.763000</ele>
        <time>2021-01-01T10:52:29.402Z</time>
      </trkpt>
      <trkpt lat="27.934386" lon="-15.598348">
        <ele>1333.710000</ele>
        <time>2021-01-01T10:53:39.167Z</time>
      </trkpt>
      <trkpt lat="27.934815" lon="-15.598233">
        <ele>1346.625000</ele>
        <time>2021-01-01T10:54:40.301Z</time>
      </trkpt>
      <trkpt lat="27.934937" lon="-15.598174">
        <ele>1349.526000</ele>
        <time>2021-01-01T10:54:58.432Z</time>
      </trkpt>
      <trkpt lat="27.935055" lon="-15.597981">
        <ele>1350.908000</ele>
        <time>2021-01-01T10:55:26.287Z</time>
      </trkpt>
      <trkpt lat="27.935259" lon="-15.597928">
        <ele>1360.108000</ele>
        <time>2021-01-01T10:55:56.467Z</time>
      </trkpt>
      <trkpt lat="27.935515" lon="-15.597985">
        <ele>1363.578000</ele>
        <time>2021-01-01T10:56:31.702Z</time>
      </trkpt>
      <trkpt lat="27.935620" lon="-15.597907">
        <ele>1369.052000</ele>
        <time>2021-01-01T10:56:49.790Z</time>
      </trkpt>
      <trkpt lat="27.935805" lon="-15.597698">
        <ele>1373.445000</ele>
        <time>2021-01-01T10:57:25.237Z</time>
      </trkpt>
      <trkpt lat="27.935898" lon="-15.597683">
        <ele>1376.493000</ele>
        <time>2021-01-01T10:57:38.359Z</time>
      </trkpt>
      <trkpt lat="27.935847" lon="-15.597765">
        <ele>1378.092000</ele>
        <time>2021-01-01T10:57:50.395Z</time>
      </trkpt>
      <trkpt lat="27.935799" lon="-15.597997">
        <ele>1378.456000</ele>
        <time>2021-01-01T10:58:18.626Z</time>
      </trkpt>
      <trkpt lat="27.935757" lon="-15.598083">
        <ele>1375.973000</ele>
        <time>2021-01-01T10:58:30.647Z</time>
      </trkpt>
      <trkpt lat="27.935755" lon="-15.598169">
        <ele>1375.790000</ele>
        <time>2021-01-01T10:58:40.841Z</time>
      </trkpt>
      <trkpt lat="27.935704" lon="-15.598214">
        <ele>1372.539000</ele>
        <time>2021-01-01T10:58:50.357Z</time>
      </trkpt>
      <trkpt lat="27.935702" lon="-15.598275">
        <ele>1372.501000</ele>
        <time>2021-01-01T10:58:57.588Z</time>
      </trkpt>
      <trkpt lat="27.936091" lon="-15.598319">
        <ele>1387.921000</ele>
        <time>2021-01-01T10:59:53.211Z</time>
      </trkpt>
      <trkpt lat="27.936127" lon="-15.598412">
        <ele>1382.908000</ele>
        <time>2021-01-01T11:00:06.673Z</time>
      </trkpt>
      <trkpt lat="27.936184" lon="-15.598475">
        <ele>1382.289000</ele>
        <time>2021-01-01T11:00:17.382Z</time>
      </trkpt>
      <trkpt lat="27.936310" lon="-15.598496">
        <ele>1390.153000</ele>
        <time>2021-01-01T11:00:36.916Z</time>
      </trkpt>
      <trkpt lat="27.936358" lon="-15.598543">
        <ele>1390.856000</ele>
        <time>2021-01-01T11:00:45.469Z</time>
      </trkpt>
      <trkpt lat="27.936783" lon="-15.598566">
        <ele>1421.874000</ele>
        <time>2021-01-01T11:01:53.692Z</time>
      </trkpt>
      <trkpt lat="27.936875" lon="-15.598693">
        <ele>1417.143000</ele>
        <time>2021-01-01T11:02:13.968Z</time>
      </trkpt>
      <trkpt lat="27.937146" lon="-15.598974">
        <ele>1400.747000</ele>
        <time>2021-01-01T11:03:07.068Z</time>
      </trkpt>
      <trkpt lat="27.937331" lon="-15.598912">
        <ele>1421.324000</ele>
        <time>2021-01-01T11:03:42.916Z</time>
      </trkpt>
      <trkpt lat="27.937689" lon="-15.598906">
        <ele>1460.651000</ele>
        <time>2021-01-01T11:04:50.401Z</time>
      </trkpt>
      <trkpt lat="27.937836" lon="-15.598936">
        <ele>1466.015000</ele>
        <time>2021-01-01T11:05:11.449Z</time>
      </trkpt>
      <trkpt lat="27.937878" lon="-15.599065">
        <ele>1453.265000</ele>
        <time>2021-01-01T11:05:33.846Z</time>
      </trkpt>
      <trkpt lat="27.937968" lon="-15.599163">
        <ele>1449.111000</ele>
        <time>2021-01-01T11:05:51.326Z</time>
      </trkpt>
      <trkpt lat="27.938084" lon="-15.599306">
        <ele>1442.008000</ele>
        <time>2021-01-01T11:06:15.868Z</time>
      </trkpt>
      <trkpt lat="27.938294" lon="-15.599417">
        <ele>1446.727000</ele>
        <time>2021-01-01T11:06:47.463Z</time>
      </trkpt>
      <trkpt lat="27.938353" lon="-15.599638">
        <ele>1433.921000</ele>
        <time>2021-01-01T11:07:18.871Z</time>
      </trkpt>
      <trkpt lat="27.938485" lon="-15.599698">
        <ele>1446.584000</ele>
        <time>2021-01-01T11:07:43.305Z</time>
      </trkpt>
      <trkpt lat="27.938519" lon="-15.599887">
        <ele>1439.272000</ele>
        <time>2021-01-01T11:08:07.797Z</time>
      </trkpt>
      <trkpt lat="27.938607" lon="-15.599983">
        <ele>1445.731000</ele>
        <time>2021-01-01T11:08:25.942Z</time>
      </trkpt>
      <trkpt lat="27.938753" lon="-15.600094">
        <ele>1456.315000</ele>
        <time>2021-01-01T11:08:52.758Z</time>
      </trkpt>
      <trkpt lat="27.938784" lon="-15.600196">
        <ele>1456.242000</ele>
        <time>2021-01-01T11:09:05.537Z</time>
      </trkpt>
      <trkpt lat="27.938757" lon="-15.600307">
        <ele>1449.929000</ele>
        <time>2021-01-01T11:09:21.156Z</time>
      </trkpt>
      <trkpt lat="27.938673" lon="-15.600375">
        <ele>1439.054000</ele>
        <time>2021-01-01T11:09:40.229Z</time>
      </trkpt>
      <trkpt lat="27.938685" lon="-15.600462">
        <ele>1440.956000</ele>
        <time>2021-01-01T11:09:50.909Z</time>
      </trkpt>
      <trkpt lat="27.938696" lon="-15.600553">
        <ele>1442.711000</ele>
        <time>2021-01-01T11:10:01.994Z</time>
      </trkpt>
      <trkpt lat="27.938668" lon="-15.600687">
        <ele>1439.208000</ele>
        <time>2021-01-01T11:10:18.844Z</time>
      </trkpt>
      <trkpt lat="27.938551" lon="-15.600824">
        <ele>1428.491000</ele>
        <time>2021-01-01T11:10:44.855Z</time>
      </trkpt>
      <trkpt lat="27.938668" lon="-15.600792">
        <ele>1439.345000</ele>
        <time>2021-01-01T11:11:05.636Z</time>
      </trkpt>
      <trkpt lat="27.938698" lon="-15.600832">
        <ele>1442.768000</ele>
        <time>2021-01-01T11:11:13.097Z</time>
      </trkpt>
      <trkpt lat="27.938631" lon="-15.600873">
        <ele>1435.716000</ele>
        <time>2021-01-01T11:11:26.387Z</time>
      </trkpt>
      <trkpt lat="27.938561" lon="-15.601004">
        <ele>1431.225000</ele>
        <time>2021-01-01T11:11:45.316Z</time>
      </trkpt>
      <trkpt lat="27.938612" lon="-15.601073">
        <ele>1435.129000</ele>
        <time>2021-01-01T11:11:56.967Z</time>
      </trkpt>
      <trkpt lat="27.938685" lon="-15.601144">
        <ele>1442.956000</ele>
        <time>2021-01-01T11:12:12.956Z</time>
      </trkpt>
      <trkpt lat="27.938715" lon="-15.601002">
        <ele>1445.733000</ele>
        <time>2021-01-01T11:12:30.573Z</time>
      </trkpt>
      <trkpt lat="27.938807" lon="-15.600848">
        <ele>1454.685000</ele>
        <time>2021-01-01T11:12:55.100Z</time>
      </trkpt>
      <trkpt lat="27.938788" lon="-15.600930">
        <ele>1453.189000</ele>
        <time>2021-01-01T11:13:05.303Z</time>
      </trkpt>
      <trkpt lat="27.938900" lon="-15.601243">
        <ele>1468.217000</ele>
        <time>2021-01-01T11:13:49.222Z</time>
      </trkpt>
      <trkpt lat="27.939005" lon="-15.601444">
        <ele>1481.208000</ele>
        <time>2021-01-01T11:14:21.013Z</time>
      </trkpt>
      <trkpt lat="27.938986" lon="-15.601566">
        <ele>1473.634000</ele>
        <time>2021-01-01T11:14:38.298Z</time>
      </trkpt>
      <trkpt lat="27.938921" lon="-15.601741">
        <ele>1457.688000</ele>
        <time>2021-01-01T11:15:07.888Z</time>
      </trkpt>
      <trkpt lat="27.938948" lon="-15.601757">
        <ele>1458.651000</ele>
        <time>2021-01-01T11:15:12.136Z</time>
      </trkpt>
      <trkpt lat="27.939049" lon="-15.601734">
        <ele>1468.949000</ele>
        <time>2021-01-01T11:15:30.712Z</time>
      </trkpt>
      <trkpt lat="27.939101" lon="-15.601695">
        <ele>1477.118000</ele>
        <time>2021-01-01T11:15:43.635Z</time>
      </trkpt>
      <trkpt lat="27.939152" lon="-15.601570">
        <ele>1491.282000</ele>
        <time>2021-01-01T11:16:07.253Z</time>
      </trkpt>
      <trkpt lat="27.939200" lon="-15.601543">
        <ele>1495.459000</ele>
        <time>2021-01-01T11:16:16.030Z</time>
      </trkpt>
      <trkpt lat="27.939223" lon="-15.601608">
        <ele>1492.296000</ele>
        <time>2021-01-01T11:16:25.160Z</time>
      </trkpt>
      <trkpt lat="27.939207" lon="-15.601678">
        <ele>1486.743000</ele>
        <time>2021-01-01T11:16:36.032Z</time>
      </trkpt>
      <trkpt lat="27.939164" lon="-15.601792">
        <ele>1472.264000</ele>
        <time>2021-01-01T11:16:58.847Z</time>
      </trkpt>
      <trkpt lat="27.938963" lon="-15.601974">
        <ele>1445.410000</ele>
        <time>2021-01-01T11:17:46.175Z</time>
      </trkpt>
      <trkpt lat="27.938952" lon="-15.602017">
        <ele>1445.408000</ele>
        <time>2021-01-01T11:17:51.478Z</time>
      </trkpt>
      <trkpt lat="27.939057" lon="-15.601957">
        <ele>1450.180000</ele>
        <time>2021-01-01T11:18:08.268Z</time>
      </trkpt>
      <trkpt lat="27.939179" lon="-15.601937">
        <ele>1458.384000</ele>
        <time>2021-01-01T11:18:27.532Z</time>
      </trkpt>
      <trkpt lat="27.939261" lon="-15.601867">
        <ele>1473.577000</ele>
        <time>2021-01-01T11:18:50.453Z</time>
      </trkpt>
      <trkpt lat="27.939465" lon="-15.601832">
        <ele>1493.715000</ele>
        <time>2021-01-01T11:19:27.266Z</time>
      </trkpt>
      <trkpt lat="27.939541" lon="-15.601757">
        <ele>1500.724000</ele>
        <time>2021-01-01T11:19:43.211Z</time>
      </trkpt>
      <trkpt lat="27.939604" lon="-15.601752">
        <ele>1504.278000</ele>
        <time>2021-01-01T11:19:52.702Z</time>
      </trkpt>
      <trkpt lat="27.939974" lon="-15.601992">
        <ele>1521.845000</ele>
        <time>2021-01-01T11:20:53.684Z</time>
      </trkpt>
      <trkpt lat="27.940295" lon="-15.602235">
        <ele>1537.832000</ele>
        <time>2021-01-01T11:21:48.938Z</time>
      </trkpt>
      <trkpt lat="27.940323" lon="-15.602230">
        <ele>1538.546000</ele>
        <time>2021-01-01T11:21:52.836Z</time>
      </trkpt>
      <trkpt lat="27.940232" lon="-15.602107">
        <ele>1538.988000</ele>
        <time>2021-01-01T11:22:11.849Z</time>
      </trkpt>
      <trkpt lat="27.940178" lon="-15.601821">
        <ele>1539.316000</ele>
        <time>2021-01-01T11:22:46.497Z</time>
      </trkpt>
      <trkpt lat="27.940173" lon="-15.601733">
        <ele>1539.508000</ele>
        <time>2021-01-01T11:22:56.945Z</time>
      </trkpt>
      <trkpt lat="27.940398" lon="-15.601850">
        <ele>1549.910000</ele>
        <time>2021-01-01T11:23:32.438Z</time>
      </trkpt>
      <trkpt lat="27.940337" lon="-15.601945">
        <ele>1547.564000</ele>
        <time>2021-01-01T11:23:46.635Z</time>
      </trkpt>
      <trkpt lat="27.940310" lon="-15.602028">
        <ele>1544.667000</ele>
        <time>2021-01-01T11:23:57.680Z</time>
      </trkpt>
      <trkpt lat="27.940520" lon="-15.602011">
        <ele>1547.865000</ele>
        <time>2021-01-01T11:24:26.174Z</time>
      </trkpt>
      <trkpt lat="27.940625" lon="-15.601875">
        <ele>1554.894000</ele>
        <time>2021-01-01T11:24:49.188Z</time>
      </trkpt>
      <trkpt lat="27.940733" lon="-15.601774">
        <ele>1562.388000</ele>
        <time>2021-01-01T11:25:10.034Z</time>
      </trkpt>
      <trkpt lat="27.940789" lon="-15.601830">
        <ele>1562.035000</ele>
        <time>2021-01-01T11:25:20.063Z</time>
      </trkpt>
      <trkpt lat="27.940747" lon="-15.601963">
        <ele>1555.662000</ele>
        <time>2021-01-01T11:25:38.475Z</time>
      </trkpt>
      <trkpt lat="27.941195" lon="-15.601769">
        <ele>1576.923000</ele>
        <time>2021-01-01T11:26:47.716Z</time>
      </trkpt>
      <trkpt lat="27.941351" lon="-15.601775">
        <ele>1581.283000</ele>
        <time>2021-01-01T11:27:09.297Z</time>
      </trkpt>
      <trkpt lat="27.941813" lon="-15.601655">
        <ele>1587.011000</ele>
        <time>2021-01-01T11:28:13.232Z</time>
      </trkpt>
      <trkpt lat="27.942047" lon="-15.601494">
        <ele>1588.408000</ele>
        <time>2021-01-01T11:28:49.990Z</time>
      </trkpt>
      <trkpt lat="27.942232" lon="-15.601403">
        <ele>1589.888000</ele>
        <time>2021-01-01T11:29:17.097Z</time>
      </trkpt>
      <trkpt lat="27.942303" lon="-15.601224">
        <ele>1592.972000</ele>
        <time>2021-01-01T11:29:40.637Z</time>
      </trkpt>
      <trkpt lat="27.942627" lon="-15.601056">
        <ele>1597.995000</ele>
        <time>2021-01-01T11:30:28.806Z</time>
      </trkpt>
      <trkpt lat="27.942686" lon="-15.600824">
        <ele>1602.073000</ele>
        <time>2021-01-01T11:30:57.825Z</time>
      </trkpt>
      <trkpt lat="27.942774" lon="-15.600763">
        <ele>1602.742000</ele>
        <time>2021-01-01T11:31:11.685Z</time>
      </trkpt>
      <trkpt lat="27.942803" lon="-15.600692">
        <ele>1603.516000</ele>
        <time>2021-01-01T11:31:20.998Z</time>
      </trkpt>
      <trkpt lat="27.942910" lon="-15.600651">
        <ele>1604.253000</ele>
        <time>2021-01-01T11:31:36.172Z</time>
      </trkpt>
      <trkpt lat="27.943072" lon="-15.600530">
        <ele>1606.140000</ele>
        <time>2021-01-01T11:32:02.297Z</time>
      </trkpt>
      <trkpt lat="27.943547" lon="-15.600377">
        <ele>1605.774000</ele>
        <time>2021-01-01T11:33:08.521Z</time>
      </trkpt>
      <trkpt lat="27.943598" lon="-15.600293">
        <ele>1606.756000</ele>
        <time>2021-01-01T11:33:20.653Z</time>
      </trkpt>
      <trkpt lat="27.944558" lon="-15.599814">
        <ele>1615.521000</ele>
        <time>2021-01-01T11:35:41.729Z</time>
      </trkpt>
      <trkpt lat="27.944664" lon="-15.599840">
        <ele>1616.108000</ele>
        <time>2021-01-01T11:35:56.290Z</time>
      </trkpt>
      <trkpt lat="27.944762" lon="-15.599781">
        <ele>1616.623000</ele>
        <time>2021-01-01T11:36:11.187Z</time>
      </trkpt>
      <trkpt lat="27.944952" lon="-15.599673">
        <ele>1618.517000</ele>
        <time>2021-01-01T11:36:39.788Z</time>
      </trkpt>
      <trkpt lat="27.945298" lon="-15.599578">
        <ele>1623.830000</ele>
        <time>2021-01-01T11:37:27.957Z</time>
      </trkpt>
      <trkpt lat="27.945509" lon="-15.599471">
        <ele>1626.438000</ele>
        <time>2021-01-01T11:37:59.119Z</time>
      </trkpt>
      <trkpt lat="27.945683" lon="-15.599151">
        <ele>1628.447000</ele>
        <time>2021-01-01T11:38:43.696Z</time>
      </trkpt>
      <trkpt lat="27.946627" lon="-15.598595">
        <ele>1648.811000</ele>
        <time>2021-01-01T11:41:08.487Z</time>
      </trkpt>
      <trkpt lat="27.947258" lon="-15.598179">
        <ele>1649.788000</ele>
        <time>2021-01-01T11:42:46.410Z</time>
      </trkpt>
      <trkpt lat="27.947562" lon="-15.598105">
        <ele>1654.145000</ele>
        <time>2021-01-01T11:43:28.435Z</time>
      </trkpt>
      <trkpt lat="27.947665" lon="-15.597902">
        <ele>1653.689000</ele>
        <time>2021-01-01T11:43:56.171Z</time>
      </trkpt>
      <trkpt lat="27.947695" lon="-15.597295">
        <ele>1640.306000</ele>
        <time>2021-01-01T11:45:09.972Z</time>
      </trkpt>
      <trkpt lat="27.947729" lon="-15.597225">
        <ele>1640.226000</ele>
        <time>2021-01-01T11:45:19.435Z</time>
      </trkpt>
      <trkpt lat="27.947924" lon="-15.597096">
        <ele>1644.608000</ele>
        <time>2021-01-01T11:45:50.178Z</time>
      </trkpt>
      <trkpt lat="27.948227" lon="-15.597034">
        <ele>1652.544000</ele>
        <time>2021-01-01T11:46:32.561Z</time>
      </trkpt>
      <trkpt lat="27.948918" lon="-15.596803">
        <ele>1655.168000</ele>
        <time>2021-01-01T11:48:09.227Z</time>
      </trkpt>
      <trkpt lat="27.949541" lon="-15.596244">
        <ele>1656.411000</ele>
        <time>2021-01-01T11:49:55.837Z</time>
      </trkpt>
      <trkpt lat="27.949639" lon="-15.596220">
        <ele>1661.619000</ele>
        <time>2021-01-01T11:50:10.676Z</time>
      </trkpt>
      <trkpt lat="27.949744" lon="-15.595786">
        <ele>1656.028000</ele>
        <time>2021-01-01T11:51:04.402Z</time>
      </trkpt>
      <trkpt lat="27.950266" lon="-15.595476">
        <ele>1665.832000</ele>
        <time>2021-01-01T11:52:24.325Z</time>
      </trkpt>
      <trkpt lat="27.950648" lon="-15.595221">
        <ele>1661.789000</ele>
        <time>2021-01-01T11:53:23.991Z</time>
      </trkpt>
      <trkpt lat="27.951071" lon="-15.595095">
        <ele>1668.176000</ele>
        <time>2021-01-01T11:54:23.146Z</time>
      </trkpt>
      <trkpt lat="27.951153" lon="-15.595058">
        <ele>1669.361000</ele>
        <time>2021-01-01T11:54:35.069Z</time>
      </trkpt>
      <trkpt lat="27.951247" lon="-15.595054">
        <ele>1671.621000</ele>
        <time>2021-01-01T11:54:47.974Z</time>
      </trkpt>
      <trkpt lat="27.951298" lon="-15.594940">
        <ele>1670.413000</ele>
        <time>2021-01-01T11:55:03.180Z</time>
      </trkpt>
      <trkpt lat="27.951449" lon="-15.594861">
        <ele>1672.408000</ele>
        <time>2021-01-01T11:55:25.615Z</time>
      </trkpt>
      <trkpt lat="27.951529" lon="-15.594778">
        <ele>1672.612000</ele>
        <time>2021-01-01T11:55:40.168Z</time>
      </trkpt>
      <trkpt lat="27.951529" lon="-15.594778">
        <ele>1672.696000</ele>
        <time>2021-01-01T11:55:40.269Z</time>
      </trkpt>
      <trkpt lat="27.951659" lon="-15.594646">
        <ele>1674.239000</ele>
        <time>2021-01-01T11:56:03.809Z</time>
      </trkpt>
      <trkpt lat="27.951683" lon="-15.594642">
        <ele>1674.239000</ele>
        <time>2021-01-01T11:56:07.076Z</time>
      </trkpt>
      <trkpt lat="27.951686" lon="-15.594671">
        <ele>1675.057000</ele>
        <time>2021-01-01T11:56:10.497Z</time>
      </trkpt>
      <trkpt lat="27.951699" lon="-15.594694">
        <ele>1678.056000</ele>
        <time>2021-01-01T11:56:13.705Z</time>
      </trkpt>
      <trkpt lat="27.951705" lon="-15.594712">
        <ele>1680.160000</ele>
        <time>2021-01-01T11:56:16.064Z</time>
      </trkpt>
      <trkpt lat="27.951705" lon="-15.594742">
        <ele>1682.227000</ele>
        <time>2021-01-01T11:56:19.612Z</time>
      </trkpt>
      <trkpt lat="27.951708" lon="-15.594799">
        <ele>1689.854000</ele>
        <time>2021-01-01T11:56:26.372Z</time>
      </trkpt>
      <trkpt lat="27.951713" lon="-15.594834">
        <ele>1694.322000</ele>
        <time>2021-01-01T11:56:30.576Z</time>
      </trkpt>
      <trkpt lat="27.951743" lon="-15.594880">
        <ele>1694.162000</ele>
        <time>2021-01-01T11:56:37.374Z</time>
      </trkpt>
      <trkpt lat="27.951765" lon="-15.594905">
        <ele>1702.608000</ele>
        <time>2021-01-01T11:56:41.532Z</time>
      </trkpt>
      <trkpt lat="27.951778" lon="-15.594938">
        <ele>1707.708000</ele>
        <time>2021-01-01T11:56:45.708Z</time>
      </trkpt>
      <trkpt lat="27.951760" lon="-15.594971">
        <ele>1716.718000</ele>
        <time>2021-01-01T11:56:50.287Z</time>
      </trkpt>
      <trkpt lat="27.951750" lon="-15.595010">
        <ele>1720.582000</ele>
        <time>2021-01-01T11:56:55.075Z</time>
      </trkpt>
      <trkpt lat="27.951740" lon="-15.595059">
        <ele>1720.875000</ele>
        <time>2021-01-01T11:57:01.087Z</time>
      </trkpt>
      <trkpt lat="27.951746" lon="-15.595136">
        <ele>1721.863000</ele>
        <time>2021-01-01T11:57:10.268Z</time>
      </trkpt>
      <trkpt lat="27.951781" lon="-15.595249">
        <ele>1723.282000</ele>
        <time>2021-01-01T11:57:24.456Z</time>
      </trkpt>
      <trkpt lat="27.951794" lon="-15.595251">
        <ele>1723.526000</ele>
        <time>2021-01-01T11:57:26.224Z</time>
      </trkpt>
      <trkpt lat="27.951870" lon="-15.595306">
        <ele>1723.843000</ele>
        <time>2021-01-01T11:57:38.260Z</time>
      </trkpt>
      <trkpt lat="27.951913" lon="-15.595393">
        <ele>1720.630000</ele>
        <time>2021-01-01T11:57:50.176Z</time>
      </trkpt>
      <trkpt lat="27.951908" lon="-15.595505">
        <ele>1711.746000</ele>
        <time>2021-01-01T11:58:03.438Z</time>
      </trkpt>
      <trkpt lat="27.951891" lon="-15.595551">
        <ele>1708.588000</ele>
        <time>2021-01-01T11:58:09.286Z</time>
      </trkpt>
      <trkpt lat="27.951866" lon="-15.595598">
        <ele>1707.816000</ele>
        <time>2021-01-01T11:58:15.849Z</time>
      </trkpt>
      <trkpt lat="27.951849" lon="-15.595642">
        <ele>1706.408000</ele>
        <time>2021-01-01T11:58:21.562Z</time>
      </trkpt>
      <trkpt lat="27.951842" lon="-15.595707">
        <ele>1705.190000</ele>
        <time>2021-01-01T11:58:29.309Z</time>
      </trkpt>
      <trkpt lat="27.951860" lon="-15.595766">
        <ele>1703.644000</ele>
        <time>2021-01-01T11:58:36.692Z</time>
      </trkpt>
      <trkpt lat="27.951896" lon="-15.595775">
        <ele>1702.537000</ele>
        <time>2021-01-01T11:58:41.610Z</time>
      </trkpt>
      <trkpt lat="27.951904" lon="-15.595811">
        <ele>1702.135000</ele>
        <time>2021-01-01T11:58:46.017Z</time>
      </trkpt>
      <trkpt lat="27.951928" lon="-15.595925">
        <ele>1702.064000</ele>
        <time>2021-01-01T11:58:59.857Z</time>
      </trkpt>
      <trkpt lat="27.951941" lon="-15.595967">
        <ele>1699.168000</ele>
        <time>2021-01-01T11:59:05.141Z</time>
      </trkpt>
      <trkpt lat="27.951961" lon="-15.596014">
        <ele>1697.855000</ele>
        <time>2021-01-01T11:59:11.323Z</time>
      </trkpt>
      <trkpt lat="27.951987" lon="-15.596071">
        <ele>1696.682000</ele>
        <time>2021-01-01T11:59:18.983Z</time>
      </trkpt>
      <trkpt lat="27.952002" lon="-15.596119">
        <ele>1693.529000</ele>
        <time>2021-01-01T11:59:24.978Z</time>
      </trkpt>
      <trkpt lat="27.952013" lon="-15.596216">
        <ele>1692.500000</ele>
        <time>2021-01-01T11:59:36.594Z</time>
      </trkpt>
      <trkpt lat="27.952010" lon="-15.596311">
        <ele>1692.320000</ele>
        <time>2021-01-01T11:59:47.864Z</time>
      </trkpt>
      <trkpt lat="27.952009" lon="-15.596408">
        <ele>1693.308000</ele>
        <time>2021-01-01T11:59:59.254Z</time>
      </trkpt>
      <trkpt lat="27.952025" lon="-15.596466">
        <ele>1693.488000</ele>
        <time>2021-01-01T12:00:06.476Z</time>
      </trkpt>
      <trkpt lat="27.952053" lon="-15.596536">
        <ele>1694.232000</ele>
        <time>2021-01-01T12:00:15.598Z</time>
      </trkpt>
      <trkpt lat="27.952047" lon="-15.596600">
        <ele>1692.765000</ele>
        <time>2021-01-01T12:00:23.255Z</time>
      </trkpt>
      <trkpt lat="27.952078" lon="-15.596675">
        <ele>1691.023000</ele>
        <time>2021-01-01T12:00:33.037Z</time>
      </trkpt>
      <trkpt lat="27.952095" lon="-15.596722">
        <ele>1690.252000</ele>
        <time>2021-01-01T12:00:39.018Z</time>
      </trkpt>
      <trkpt lat="27.952107" lon="-15.596749">
        <ele>1687.336000</ele>
        <time>2021-01-01T12:00:42.537Z</time>
      </trkpt>
      <trkpt lat="27.952123" lon="-15.596770">
        <ele>1684.543000</ele>
        <time>2021-01-01T12:00:45.831Z</time>
      </trkpt>
      <trkpt lat="27.952123" lon="-15.596748">
        <ele>1682.290000</ele>
        <time>2021-01-01T12:00:48.424Z</time>
      </trkpt>
      <trkpt lat="27.952102" lon="-15.596702">
        <ele>1679.663000</ele>
        <time>2021-01-01T12:00:54.447Z</time>
      </trkpt>
      <trkpt lat="27.952089" lon="-15.596668">
        <ele>1678.144000</ele>
        <time>2021-01-01T12:00:58.872Z</time>
      </trkpt>
      <trkpt lat="27.952063" lon="-15.596602">
        <ele>1675.218000</ele>
        <time>2021-01-01T12:01:07.382Z</time>
      </trkpt>
      <trkpt lat="27.952063" lon="-15.596559">
        <ele>1673.908000</ele>
        <time>2021-01-01T12:01:12.531Z</time>
      </trkpt>
      <trkpt lat="27.952063" lon="-15.596523">
        <ele>1672.452000</ele>
        <time>2021-01-01T12:01:16.843Z</time>
      </trkpt>
      <trkpt lat="27.952039" lon="-15.596454">
        <ele>1669.146000</ele>
        <time>2021-01-01T12:01:25.575Z</time>
      </trkpt>
      <trkpt lat="27.952030" lon="-15.596401">
        <ele>1667.659000</ele>
        <time>2021-01-01T12:01:31.963Z</time>
      </trkpt>
      <trkpt lat="27.952034" lon="-15.596352">
        <ele>1663.127000</ele>
        <time>2021-01-01T12:01:37.739Z</time>
      </trkpt>
      <trkpt lat="27.952029" lon="-15.596276">
        <ele>1662.226000</ele>
        <time>2021-01-01T12:01:46.835Z</time>
      </trkpt>
      <trkpt lat="27.952025" lon="-15.596180">
        <ele>1662.060000</ele>
        <time>2021-01-01T12:01:58.198Z</time>
      </trkpt>
      <trkpt lat="27.952007" lon="-15.596095">
        <ele>1662.187000</ele>
        <time>2021-01-01T12:02:08.572Z</time>
      </trkpt>
      <trkpt lat="27.951993" lon="-15.596043">
        <ele>1662.624000</ele>
        <time>2021-01-01T12:02:15Z</time>
      </trkpt>
      <trkpt lat="27.951966" lon="-15.595986">
        <ele>1653.899000</ele>
        <time>2021-01-01T12:02:22.685Z</time>
      </trkpt>
      <trkpt lat="27.951955" lon="-15.595948">
        <ele>1649.807000</ele>
        <time>2021-01-01T12:02:27.333Z</time>
      </trkpt>
      <trkpt lat="27.951936" lon="-15.595915">
        <ele>1648.727000</ele>
        <time>2021-01-01T12:02:32.006Z</time>
      </trkpt>
      <trkpt lat="27.951930" lon="-15.595865">
        <ele>1647.308000</ele>
        <time>2021-01-01T12:02:37.988Z</time>
      </trkpt>
      <trkpt lat="27.951919" lon="-15.595829">
        <ele>1646.245000</ele>
        <time>2021-01-01T12:02:42.523Z</time>
      </trkpt>
      <trkpt lat="27.951906" lon="-15.595765">
        <ele>1645.769000</ele>
        <time>2021-01-01T12:02:50.298Z</time>
      </trkpt>
      <trkpt lat="27.951891" lon="-15.595746">
        <ele>1645.322000</ele>
        <time>2021-01-01T12:02:53.315Z</time>
      </trkpt>
      <trkpt lat="27.951869" lon="-15.595734">
        <ele>1644.890000</ele>
        <time>2021-01-01T12:02:56.588Z</time>
      </trkpt>
      <trkpt lat="27.951856" lon="-15.595713">
        <ele>1644.439000</ele>
        <time>2021-01-01T12:02:59.678Z</time>
      </trkpt>
      <trkpt lat="27.951854" lon="-15.595685">
        <ele>1643.773000</ele>
        <time>2021-01-01T12:03:02.984Z</time>
      </trkpt>
      <trkpt lat="27.951870" lon="-15.595636">
        <ele>1642.520000</ele>
        <time>2021-01-01T12:03:09.144Z</time>
      </trkpt>
      <trkpt lat="27.951891" lon="-15.595590">
        <ele>1642.677000</ele>
        <time>2021-01-01T12:03:15.292Z</time>
      </trkpt>
      <trkpt lat="27.951917" lon="-15.595529">
        <ele>1644.378000</ele>
        <time>2021-01-01T12:03:23.308Z</time>
      </trkpt>
      <trkpt lat="27.951929" lon="-15.595473">
        <ele>1643.333000</ele>
        <time>2021-01-01T12:03:30.099Z</time>
      </trkpt>
      <trkpt lat="27.951931" lon="-15.595432">
        <ele>1637.126000</ele>
        <time>2021-01-01T12:03:34.963Z</time>
      </trkpt>
      <trkpt lat="27.951921" lon="-15.595383">
        <ele>1635.408000</ele>
        <time>2021-01-01T12:03:40.937Z</time>
      </trkpt>
      <trkpt lat="27.951894" lon="-15.595319">
        <ele>1636.173000</ele>
        <time>2021-01-01T12:03:49.342Z</time>
      </trkpt>
      <trkpt lat="27.951876" lon="-15.595283">
        <ele>1637.147000</ele>
        <time>2021-01-01T12:03:54.261Z</time>
      </trkpt>
      <trkpt lat="27.951816" lon="-15.595246">
        <ele>1638.730000</ele>
        <time>2021-01-01T12:04:03.454Z</time>
      </trkpt>
      <trkpt lat="27.951781" lon="-15.595216">
        <ele>1636.128000</ele>
        <time>2021-01-01T12:04:09.260Z</time>
      </trkpt>
      <trkpt lat="27.951769" lon="-15.595162">
        <ele>1636.367000</ele>
        <time>2021-01-01T12:04:15.839Z</time>
      </trkpt>
      <trkpt lat="27.951761" lon="-15.595127">
        <ele>1639.351000</ele>
        <time>2021-01-01T12:04:20.172Z</time>
      </trkpt>
      <trkpt lat="27.951754" lon="-15.595062">
        <ele>1643.318000</ele>
        <time>2021-01-01T12:04:27.909Z</time>
      </trkpt>
      <trkpt lat="27.951764" lon="-15.595010">
        <ele>1646.825000</ele>
        <time>2021-01-01T12:04:34.273Z</time>
      </trkpt>
      <trkpt lat="27.951775" lon="-15.594976">
        <ele>1648.678000</ele>
        <time>2021-01-01T12:04:38.533Z</time>
      </trkpt>
      <trkpt lat="27.951788" lon="-15.594944">
        <ele>1651.033000</ele>
        <time>2021-01-01T12:04:42.716Z</time>
      </trkpt>
      <trkpt lat="27.951790" lon="-15.594914">
        <ele>1652.026000</ele>
        <time>2021-01-01T12:04:46.186Z</time>
      </trkpt>
      <trkpt lat="27.951772" lon="-15.594891">
        <ele>1652.008000</ele>
        <time>2021-01-01T12:04:49.787Z</time>
      </trkpt>
      <trkpt lat="27.951749" lon="-15.594863">
        <ele>1656.243000</ele>
        <time>2021-01-01T12:04:54.417Z</time>
      </trkpt>
      <trkpt lat="27.951735" lon="-15.594841">
        <ele>1661.287000</ele>
        <time>2021-01-01T12:04:57.649Z</time>
      </trkpt>
      <trkpt lat="27.951725" lon="-15.594815">
        <ele>1664.510000</ele>
        <time>2021-01-01T12:05:00.944Z</time>
      </trkpt>
      <trkpt lat="27.951720" lon="-15.594771">
        <ele>1668.918000</ele>
        <time>2021-01-01T12:05:06.205Z</time>
      </trkpt>
      <trkpt lat="27.951720" lon="-15.594739">
        <ele>1669.297000</ele>
        <time>2021-01-01T12:05:10.071Z</time>
      </trkpt>
      <trkpt lat="27.951717" lon="-15.594690">
        <ele>1676.541000</ele>
        <time>2021-01-01T12:05:15.867Z</time>
      </trkpt>
      <trkpt lat="27.951728" lon="-15.594596">
        <ele>1677.028000</ele>
        <time>2021-01-01T12:05:27.012Z</time>
      </trkpt>
      <trkpt lat="27.951748" lon="-15.594532">
        <ele>1677.445000</ele>
        <time>2021-01-01T12:05:35.028Z</time>
      </trkpt>
      <trkpt lat="27.951804" lon="-15.594444">
        <ele>1678.011000</ele>
        <time>2021-01-01T12:05:47.953Z</time>
      </trkpt>
      <trkpt lat="27.951922" lon="-15.594268">
        <ele>1678.721000</ele>
        <time>2021-01-01T12:06:14.373Z</time>
      </trkpt>
      <trkpt lat="27.952013" lon="-15.594135">
        <ele>1677.903000</ele>
        <time>2021-01-01T12:06:34.461Z</time>
      </trkpt>
      <trkpt lat="27.952179" lon="-15.593760">
        <ele>1678.008000</ele>
        <time>2021-01-01T12:07:24.207Z</time>
      </trkpt>
      <trkpt lat="27.952582" lon="-15.593566">
        <ele>1678.547000</ele>
        <time>2021-01-01T12:08:23.646Z</time>
      </trkpt>
      <trkpt lat="27.952893" lon="-15.593257">
        <ele>1679.121000</ele>
        <time>2021-01-01T12:09:19.393Z</time>
      </trkpt>
      <trkpt lat="27.952824" lon="-15.593222">
        <ele>1676.514000</ele>
        <time>2021-01-01T12:09:29.534Z</time>
      </trkpt>
      <trkpt lat="27.953390" lon="-15.592835">
        <ele>1675.222000</ele>
        <time>2021-01-01T12:10:58.782Z</time>
      </trkpt>
      <trkpt lat="27.953564" lon="-15.592642">
        <ele>1677.971000</ele>
        <time>2021-01-01T12:11:32.021Z</time>
      </trkpt>
      <trkpt lat="27.954192" lon="-15.592302">
        <ele>1676.995000</ele>
        <time>2021-01-01T12:13:05.996Z</time>
      </trkpt>
      <trkpt lat="27.954449" lon="-15.592188">
        <ele>1676.722000</ele>
        <time>2021-01-01T12:13:43.301Z</time>
      </trkpt>
      <trkpt lat="27.954556" lon="-15.592217">
        <ele>1678.359000</ele>
        <time>2021-01-01T12:13:58.058Z</time>
      </trkpt>
      <trkpt lat="27.954630" lon="-15.592173">
        <ele>1681.235000</ele>
        <time>2021-01-01T12:14:09.330Z</time>
      </trkpt>
      <trkpt lat="27.954697" lon="-15.592043">
        <ele>1679.386000</ele>
        <time>2021-01-01T12:14:27.239Z</time>
      </trkpt>
      <trkpt lat="27.954785" lon="-15.592004">
        <ele>1678.814000</ele>
        <time>2021-01-01T12:14:39.914Z</time>
      </trkpt>
      <trkpt lat="27.954838" lon="-15.591957">
        <ele>1681.408000</ele>
        <time>2021-01-01T12:14:48.950Z</time>
      </trkpt>
      <trkpt lat="27.955145" lon="-15.591587">
        <ele>1681.899000</ele>
        <time>2021-01-01T12:15:49.203Z</time>
      </trkpt>
      <trkpt lat="27.955574" lon="-15.591332">
        <ele>1681.853000</ele>
        <time>2021-01-01T12:16:55.053Z</time>
      </trkpt>
      <trkpt lat="27.955843" lon="-15.591294">
        <ele>1686.826000</ele>
        <time>2021-01-01T12:17:31.603Z</time>
      </trkpt>
      <trkpt lat="27.955939" lon="-15.591299">
        <ele>1690.824000</ele>
        <time>2021-01-01T12:17:44.523Z</time>
      </trkpt>
      <trkpt lat="27.956044" lon="-15.591242">
        <ele>1691.523000</ele>
        <time>2021-01-01T12:18:00.229Z</time>
      </trkpt>
      <trkpt lat="27.956150" lon="-15.591218">
        <ele>1692.147000</ele>
        <time>2021-01-01T12:18:14.799Z</time>
      </trkpt>
      <trkpt lat="27.956246" lon="-15.591193">
        <ele>1693.174000</ele>
        <time>2021-01-01T12:18:28.139Z</time>
      </trkpt>
      <trkpt lat="27.956322" lon="-15.591196">
        <ele>1693.731000</ele>
        <time>2021-01-01T12:18:38.423Z</time>
      </trkpt>
      <trkpt lat="27.956332" lon="-15.591157">
        <ele>1694.969000</ele>
        <time>2021-01-01T12:18:43.258Z</time>
      </trkpt>
      <trkpt lat="27.956280" lon="-15.591091">
        <ele>1696.104000</ele>
        <time>2021-01-01T12:18:53.733Z</time>
      </trkpt>
      <trkpt lat="27.956280" lon="-15.590974">
        <ele>1696.924000</ele>
        <time>2021-01-01T12:19:08.025Z</time>
      </trkpt>
      <trkpt lat="27.956377" lon="-15.590979">
        <ele>1698.608000</ele>
        <time>2021-01-01T12:19:21.141Z</time>
      </trkpt>
      <trkpt lat="27.956471" lon="-15.591005">
        <ele>1700.572000</ele>
        <time>2021-01-01T12:19:34.193Z</time>
      </trkpt>
      <trkpt lat="27.956532" lon="-15.590927">
        <ele>1702.966000</ele>
        <time>2021-01-01T12:19:47.105Z</time>
      </trkpt>
      <trkpt lat="27.956524" lon="-15.590875">
        <ele>1703.499000</ele>
        <time>2021-01-01T12:19:53.479Z</time>
      </trkpt>
      <trkpt lat="27.956473" lon="-15.590827">
        <ele>1696.537000</ele>
        <time>2021-01-01T12:20:02.375Z</time>
      </trkpt>
      <trkpt lat="27.956402" lon="-15.590814">
        <ele>1692.736000</ele>
        <time>2021-01-01T12:20:12.093Z</time>
      </trkpt>
      <trkpt lat="27.956326" lon="-15.590766">
        <ele>1689.820000</ele>
        <time>2021-01-01T12:20:23.764Z</time>
      </trkpt>
      <trkpt lat="27.956257" lon="-15.590756">
        <ele>1687.917000</ele>
        <time>2021-01-01T12:20:33.135Z</time>
      </trkpt>
      <trkpt lat="27.956250" lon="-15.590681">
        <ele>1687.734000</ele>
        <time>2021-01-01T12:20:42.242Z</time>
      </trkpt>
      <trkpt lat="27.956330" lon="-15.590658">
        <ele>1685.149000</ele>
        <time>2021-01-01T12:20:53.507Z</time>
      </trkpt>
      <trkpt lat="27.956383" lon="-15.590658">
        <ele>1682.602000</ele>
        <time>2021-01-01T12:21:00.675Z</time>
      </trkpt>
      <trkpt lat="27.956446" lon="-15.590565">
        <ele>1684.322000</ele>
        <time>2021-01-01T12:21:14.995Z</time>
      </trkpt>
      <trkpt lat="27.956524" lon="-15.590490">
        <ele>1685.308000</ele>
        <time>2021-01-01T12:21:29.125Z</time>
      </trkpt>
      <trkpt lat="27.956620" lon="-15.590455">
        <ele>1685.120000</ele>
        <time>2021-01-01T12:21:42.919Z</time>
      </trkpt>
      <trkpt lat="27.956648" lon="-15.590372">
        <ele>1685.314000</ele>
        <time>2021-01-01T12:21:53.909Z</time>
      </trkpt>
      <trkpt lat="27.956717" lon="-15.590331">
        <ele>1686.017000</ele>
        <time>2021-01-01T12:22:04.518Z</time>
      </trkpt>
      <trkpt lat="27.956978" lon="-15.590266">
        <ele>1689.885000</ele>
        <time>2021-01-01T12:22:40.526Z</time>
      </trkpt>
      <trkpt lat="27.957106" lon="-15.590294">
        <ele>1691.054000</ele>
        <time>2021-01-01T12:22:58.079Z</time>
      </trkpt>
      <trkpt lat="27.957157" lon="-15.590256">
        <ele>1693.248000</ele>
        <time>2021-01-01T12:23:06.452Z</time>
      </trkpt>
      <trkpt lat="27.957306" lon="-15.590236">
        <ele>1693.865000</ele>
        <time>2021-01-01T12:23:26.963Z</time>
      </trkpt>
      <trkpt lat="27.957392" lon="-15.590284">
        <ele>1688.742000</ele>
        <time>2021-01-01T12:23:39.944Z</time>
      </trkpt>
      <trkpt lat="27.957674" lon="-15.590221">
        <ele>1687.488000</ele>
        <time>2021-01-01T12:24:18.873Z</time>
      </trkpt>
      <trkpt lat="27.957798" lon="-15.590192">
        <ele>1687.424000</ele>
        <time>2021-01-01T12:24:35.887Z</time>
      </trkpt>
      <trkpt lat="27.958153" lon="-15.590084">
        <ele>1691.726000</ele>
        <time>2021-01-01T12:25:25.179Z</time>
      </trkpt>
      <trkpt lat="27.958458" lon="-15.590038">
        <ele>1692.208000</ele>
        <time>2021-01-01T12:26:06.439Z</time>
      </trkpt>
      <trkpt lat="27.958626" lon="-15.590008">
        <ele>1685.914000</ele>
        <time>2021-01-01T12:26:29.251Z</time>
      </trkpt>
      <trkpt lat="27.959303" lon="-15.589906">
        <ele>1688.678000</ele>
        <time>2021-01-01T12:28:01.434Z</time>
      </trkpt>
      <trkpt lat="27.959605" lon="-15.589837">
        <ele>1687.731000</ele>
        <time>2021-01-01T12:28:43.041Z</time>
      </trkpt>
      <trkpt lat="27.959694" lon="-15.589830">
        <ele>1690.269000</ele>
        <time>2021-01-01T12:28:55.074Z</time>
      </trkpt>
      <trkpt lat="27.959820" lon="-15.589891">
        <ele>1691.028000</ele>
        <time>2021-01-01T12:29:13.529Z</time>
      </trkpt>
      <trkpt lat="27.959891" lon="-15.589773">
        <ele>1690.122000</ele>
        <time>2021-01-01T12:29:30.489Z</time>
      </trkpt>
      <trkpt lat="27.959931" lon="-15.589731">
        <ele>1688.749000</ele>
        <time>2021-01-01T12:29:37.827Z</time>
      </trkpt>
      <trkpt lat="27.959965" lon="-15.589710">
        <ele>1683.146000</ele>
        <time>2021-01-01T12:29:43.048Z</time>
      </trkpt>
      <trkpt lat="27.960045" lon="-15.589677">
        <ele>1686.513000</ele>
        <time>2021-01-01T12:29:54.477Z</time>
      </trkpt>
      <trkpt lat="27.960162" lon="-15.589655">
        <ele>1685.843000</ele>
        <time>2021-01-01T12:30:10.390Z</time>
      </trkpt>
      <trkpt lat="27.960575" lon="-15.589609">
        <ele>1681.607000</ele>
        <time>2021-01-01T12:31:06.044Z</time>
      </trkpt>
      <trkpt lat="27.960984" lon="-15.589569">
        <ele>1682.608000</ele>
        <time>2021-01-01T12:32:01.113Z</time>
      </trkpt>
      <trkpt lat="27.961106" lon="-15.589548">
        <ele>1689.827000</ele>
        <time>2021-01-01T12:32:17.661Z</time>
      </trkpt>
      <trkpt lat="27.961411" lon="-15.589490">
        <ele>1694.321000</ele>
        <time>2021-01-01T12:32:59.183Z</time>
      </trkpt>
      <trkpt lat="27.961575" lon="-15.589473">
        <ele>1699.524000</ele>
        <time>2021-01-01T12:33:21.302Z</time>
      </trkpt>
      <trkpt lat="27.962178" lon="-15.589484">
        <ele>1694.782000</ele>
        <time>2021-01-01T12:34:42.516Z</time>
      </trkpt>
      <trkpt lat="27.962611" lon="-15.589455">
        <ele>1688.561000</ele>
        <time>2021-01-01T12:35:40.717Z</time>
      </trkpt>
      <trkpt lat="27.962981" lon="-15.589463">
        <ele>1683.455000</ele>
        <time>2021-01-01T12:36:30.349Z</time>
      </trkpt>
      <trkpt lat="27.963187" lon="-15.589417">
        <ele>1682.072000</ele>
        <time>2021-01-01T12:36:58.528Z</time>
      </trkpt>
      <trkpt lat="27.963412" lon="-15.589285">
        <ele>1677.079000</ele>
        <time>2021-01-01T12:37:32.563Z</time>
      </trkpt>
      <trkpt lat="27.964043" lon="-15.588863">
        <ele>1677.267000</ele>
        <time>2021-01-01T12:39:10.885Z</time>
      </trkpt>
      <trkpt lat="27.964207" lon="-15.588718">
        <ele>1674.981000</ele>
        <time>2021-01-01T12:39:38.788Z</time>
      </trkpt>
      <trkpt lat="27.964402" lon="-15.588478">
        <ele>1675.019000</ele>
        <time>2021-01-01T12:40:17.578Z</time>
      </trkpt>
      <trkpt lat="27.964621" lon="-15.588157">
        <ele>1668.508000</ele>
        <time>2021-01-01T12:41:05.854Z</time>
      </trkpt>
      <trkpt lat="27.964836" lon="-15.587934">
        <ele>1667.782000</ele>
        <time>2021-01-01T12:41:45.181Z</time>
      </trkpt>
      <trkpt lat="27.964903" lon="-15.587814">
        <ele>1664.046000</ele>
        <time>2021-01-01T12:42:02.143Z</time>
      </trkpt>
      <trkpt lat="27.964938" lon="-15.587667">
        <ele>1654.839000</ele>
        <time>2021-01-01T12:42:20.397Z</time>
      </trkpt>
      <trkpt lat="27.965220" lon="-15.587900">
        <ele>1649.877000</ele>
        <time>2021-01-01T12:43:07.225Z</time>
      </trkpt>
      <trkpt lat="27.965519" lon="-15.588147">
        <ele>1650.196000</ele>
        <time>2021-01-01T12:43:56.856Z</time>
      </trkpt>
      <trkpt lat="27.966061" lon="-15.588326">
        <ele>1651.630000</ele>
        <time>2021-01-01T12:45:12.735Z</time>
      </trkpt>
      <trkpt lat="27.966322" lon="-15.588367">
        <ele>1648.577000</ele>
        <time>2021-01-01T12:45:48.588Z</time>
      </trkpt>
      <trkpt lat="27.966494" lon="-15.588375">
        <ele>1643.064000</ele>
        <time>2021-01-01T12:46:11.997Z</time>
      </trkpt>
      <trkpt lat="27.967005" lon="-15.588363">
        <ele>1640.317000</ele>
        <time>2021-01-01T12:47:20.739Z</time>
      </trkpt>
      <trkpt lat="27.967497" lon="-15.587972">
        <ele>1634.687000</ele>
        <time>2021-01-01T12:48:41.343Z</time>
      </trkpt>
      <trkpt lat="27.968195" lon="-15.588014">
        <ele>1626.815000</ele>
        <time>2021-01-01T12:50:15.478Z</time>
      </trkpt>
      <trkpt lat="27.968579" lon="-15.587977">
        <ele>1624.808000</ele>
        <time>2021-01-01T12:51:07.160Z</time>
      </trkpt>
      <trkpt lat="27.968441" lon="-15.588582">
        <ele>1621.677000</ele>
        <time>2021-01-01T12:52:21.163Z</time>
      </trkpt>
      <trkpt lat="27.968727" lon="-15.588559">
        <ele>1619.031000</ele>
        <time>2021-01-01T12:52:59.617Z</time>
      </trkpt>
      <trkpt lat="27.969038" lon="-15.588475">
        <ele>1616.564000</ele>
        <time>2021-01-01T12:53:42.498Z</time>
      </trkpt>
      <trkpt lat="27.969452" lon="-15.588496">
        <ele>1612.072000</ele>
        <time>2021-01-01T12:54:38.077Z</time>
      </trkpt>
      <trkpt lat="27.969773" lon="-15.588466">
        <ele>1607.341000</ele>
        <time>2021-01-01T12:55:21.267Z</time>
      </trkpt>
      <trkpt lat="27.970023" lon="-15.588392">
        <ele>1604.745000</ele>
        <time>2021-01-01T12:55:55.923Z</time>
      </trkpt>
      <trkpt lat="27.970345" lon="-15.588141">
        <ele>1603.982000</ele>
        <time>2021-01-01T12:56:48.349Z</time>
      </trkpt>
      <trkpt lat="27.970650" lon="-15.587774">
        <ele>1603.549000</ele>
        <time>2021-01-01T12:57:48.112Z</time>
      </trkpt>
      <trkpt lat="27.970803" lon="-15.587506">
        <ele>1596.057000</ele>
        <time>2021-01-01T12:58:25.937Z</time>
      </trkpt>
      <trkpt lat="27.970824" lon="-15.587174">
        <ele>1595.500000</ele>
        <time>2021-01-01T12:59:05.495Z</time>
      </trkpt>
      <trkpt lat="27.971106" lon="-15.586687">
        <ele>1595.820000</ele>
        <time>2021-01-01T13:00:14.471Z</time>
      </trkpt>
      <trkpt lat="27.971253" lon="-15.586511">
        <ele>1593.508000</ele>
        <time>2021-01-01T13:00:43.161Z</time>
      </trkpt>
      <trkpt lat="27.971629" lon="-15.586088">
        <ele>1592.541000</ele>
        <time>2021-01-01T13:01:54.263Z</time>
      </trkpt>
      <trkpt lat="27.972018" lon="-15.585596">
        <ele>1592.025000</ele>
        <time>2021-01-01T13:03:12.544Z</time>
      </trkpt>
      <trkpt lat="27.972100" lon="-15.585747">
        <ele>1589.338000</ele>
        <time>2021-01-01T13:03:33.654Z</time>
      </trkpt>
      <trkpt lat="27.972443" lon="-15.585848">
        <ele>1588.286000</ele>
        <time>2021-01-01T13:04:21.183Z</time>
      </trkpt>
      <trkpt lat="27.972679" lon="-15.586246">
        <ele>1587.525000</ele>
        <time>2021-01-01T13:05:18.041Z</time>
      </trkpt>
      <trkpt lat="27.972792" lon="-15.586292">
        <ele>1587.019000</ele>
        <time>2021-01-01T13:05:34.154Z</time>
      </trkpt>
      <trkpt lat="27.972792" lon="-15.586292">
        <ele>1587.756000</ele>
        <time>2021-01-01T13:05:34.210Z</time>
      </trkpt>
      <trkpt lat="27.973315" lon="-15.586502">
        <ele>1586.783000</ele>
        <time>2021-01-01T13:06:48.860Z</time>
      </trkpt>
      <trkpt lat="27.973601" lon="-15.586658">
        <ele>1585.043000</ele>
        <time>2021-01-01T13:07:31.701Z</time>
      </trkpt>
      <trkpt lat="27.973639" lon="-15.586784">
        <ele>1584.464000</ele>
        <time>2021-01-01T13:07:47.491Z</time>
      </trkpt>
      <trkpt lat="27.973753" lon="-15.586850">
        <ele>1582.110000</ele>
        <time>2021-01-01T13:08:04.677Z</time>
      </trkpt>
      <trkpt lat="27.973990" lon="-15.586861">
        <ele>1580.708000</ele>
        <time>2021-01-01T13:08:36.507Z</time>
      </trkpt>
      <trkpt lat="27.974106" lon="-15.586832">
        <ele>1578.490000</ele>
        <time>2021-01-01T13:08:52.451Z</time>
      </trkpt>
      <trkpt lat="27.974289" lon="-15.586891">
        <ele>1577.324000</ele>
        <time>2021-01-01T13:09:18.009Z</time>
      </trkpt>
      <trkpt lat="27.974482" lon="-15.586820">
        <ele>1579.737000</ele>
        <time>2021-01-01T13:09:45.255Z</time>
      </trkpt>
      <trkpt lat="27.974703" lon="-15.586790">
        <ele>1580.085000</ele>
        <time>2021-01-01T13:10:15.118Z</time>
      </trkpt>
      <trkpt lat="27.975062" lon="-15.586594">
        <ele>1578.944000</ele>
        <time>2021-01-01T13:11:08.599Z</time>
      </trkpt>
      <trkpt lat="27.975243" lon="-15.586582">
        <ele>1577.428000</ele>
        <time>2021-01-01T13:11:33.027Z</time>
      </trkpt>
      <trkpt lat="27.975447" lon="-15.586439">
        <ele>1575.645000</ele>
        <time>2021-01-01T13:12:05.329Z</time>
      </trkpt>
      <trkpt lat="27.975848" lon="-15.586309">
        <ele>1574.252000</ele>
        <time>2021-01-01T13:13:01.264Z</time>
      </trkpt>
      <trkpt lat="27.976401" lon="-15.585852">
        <ele>1572.596000</ele>
        <time>2021-01-01T13:14:33.449Z</time>
      </trkpt>
      <trkpt lat="27.976584" lon="-15.585825">
        <ele>1570.731000</ele>
        <time>2021-01-01T13:14:58.617Z</time>
      </trkpt>
      <trkpt lat="27.976733" lon="-15.585752">
        <ele>1569.624000</ele>
        <time>2021-01-01T13:15:20.669Z</time>
      </trkpt>
      <trkpt lat="27.976904" lon="-15.585535">
        <ele>1569.108000</ele>
        <time>2021-01-01T13:15:55.186Z</time>
      </trkpt>
      <trkpt lat="27.977185" lon="-15.585374">
        <ele>1570.385000</ele>
        <time>2021-01-01T13:16:37.415Z</time>
      </trkpt>
      <trkpt lat="27.977349" lon="-15.585404">
        <ele>1574.429000</ele>
        <time>2021-01-01T13:16:59.909Z</time>
      </trkpt>
      <trkpt lat="27.977654" lon="-15.585396">
        <ele>1577.322000</ele>
        <time>2021-01-01T13:17:40.933Z</time>
      </trkpt>
      <trkpt lat="27.977810" lon="-15.585327">
        <ele>1575.990000</ele>
        <time>2021-01-01T13:18:03.486Z</time>
      </trkpt>
      <trkpt lat="27.977873" lon="-15.585336">
        <ele>1576.159000</ele>
        <time>2021-01-01T13:18:12.084Z</time>
      </trkpt>
      <trkpt lat="27.977953" lon="-15.585411">
        <ele>1574.773000</ele>
        <time>2021-01-01T13:18:26.013Z</time>
      </trkpt>
      <trkpt lat="27.978247" lon="-15.586040">
        <ele>1575.020000</ele>
        <time>2021-01-01T13:19:50.289Z</time>
      </trkpt>
      <trkpt lat="27.978350" lon="-15.586219">
        <ele>1573.697000</ele>
        <time>2021-01-01T13:20:15.603Z</time>
      </trkpt>
      <trkpt lat="27.978619" lon="-15.586435">
        <ele>1572.047000</ele>
        <time>2021-01-01T13:21:00.068Z</time>
      </trkpt>
      <trkpt lat="27.978667" lon="-15.586431">
        <ele>1570.729000</ele>
        <time>2021-01-01T13:21:06.675Z</time>
      </trkpt>
      <trkpt lat="27.978745" lon="-15.586419">
        <ele>1569.321000</ele>
        <time>2021-01-01T13:21:17.556Z</time>
      </trkpt>
      <trkpt lat="27.978819" lon="-15.586449">
        <ele>1569.408000</ele>
        <time>2021-01-01T13:21:28.122Z</time>
      </trkpt>
      <trkpt lat="27.978905" lon="-15.586602">
        <ele>1569.860000</ele>
        <time>2021-01-01T13:21:50.470Z</time>
      </trkpt>
      <trkpt lat="27.978976" lon="-15.586628">
        <ele>1570.484000</ele>
        <time>2021-01-01T13:22:00.590Z</time>
      </trkpt>
      <trkpt lat="27.979052" lon="-15.586626">
        <ele>1570.757000</ele>
        <time>2021-01-01T13:22:10.784Z</time>
      </trkpt>
      <trkpt lat="27.979159" lon="-15.586547">
        <ele>1570.575000</ele>
        <time>2021-01-01T13:22:28.681Z</time>
      </trkpt>
      <trkpt lat="27.979264" lon="-15.586508">
        <ele>1571.814000</ele>
        <time>2021-01-01T13:22:43.510Z</time>
      </trkpt>
      <trkpt lat="27.979613" lon="-15.586461">
        <ele>1571.768000</ele>
        <time>2021-01-01T13:23:31.245Z</time>
      </trkpt>
      <trkpt lat="27.979746" lon="-15.586318">
        <ele>1571.975000</ele>
        <time>2021-01-01T13:23:56.063Z</time>
      </trkpt>
      <trkpt lat="27.979853" lon="-15.586285">
        <ele>1571.882000</ele>
        <time>2021-01-01T13:24:10.978Z</time>
      </trkpt>
      <trkpt lat="27.979950" lon="-15.586177">
        <ele>1571.142000</ele>
        <time>2021-01-01T13:24:29.474Z</time>
      </trkpt>
      <trkpt lat="27.980076" lon="-15.586173">
        <ele>1571.122000</ele>
        <time>2021-01-01T13:24:46.401Z</time>
      </trkpt>
      <trkpt lat="27.980116" lon="-15.586210">
        <ele>1570.614000</ele>
        <time>2021-01-01T13:24:53.413Z</time>
      </trkpt>
      <trkpt lat="27.980315" lon="-15.586312">
        <ele>1570.308000</ele>
        <time>2021-01-01T13:25:22.750Z</time>
      </trkpt>
      <trkpt lat="27.980482" lon="-15.586437">
        <ele>1570.840000</ele>
        <time>2021-01-01T13:25:50.431Z</time>
      </trkpt>
      <trkpt lat="27.980921" lon="-15.586545">
        <ele>1571.574000</ele>
        <time>2021-01-01T13:26:50.808Z</time>
      </trkpt>
      <trkpt lat="27.980994" lon="-15.586591">
        <ele>1572.117000</ele>
        <time>2021-01-01T13:27:02.039Z</time>
      </trkpt>
      <trkpt lat="27.981089" lon="-15.586708">
        <ele>1572.775000</ele>
        <time>2021-01-01T13:27:21.541Z</time>
      </trkpt>
      <trkpt lat="27.981182" lon="-15.586786">
        <ele>1572.984000</ele>
        <time>2021-01-01T13:27:37.107Z</time>
      </trkpt>
      <trkpt lat="27.981350" lon="-15.586817">
        <ele>1568.518000</ele>
        <time>2021-01-01T13:28:01.536Z</time>
      </trkpt>
      <trkpt lat="27.981499" lon="-15.586861">
        <ele>1565.745000</ele>
        <time>2021-01-01T13:28:22.883Z</time>
      </trkpt>
      <trkpt lat="27.981629" lon="-15.586877">
        <ele>1564.552000</ele>
        <time>2021-01-01T13:28:41.507Z</time>
      </trkpt>
      <trkpt lat="27.981692" lon="-15.586996">
        <ele>1563.081000</ele>
        <time>2021-01-01T13:28:58.903Z</time>
      </trkpt>
      <trkpt lat="27.981770" lon="-15.587153">
        <ele>1557.861000</ele>
        <time>2021-01-01T13:29:21.515Z</time>
      </trkpt>
      <trkpt lat="27.981764" lon="-15.587230">
        <ele>1555.217000</ele>
        <time>2021-01-01T13:29:32.547Z</time>
      </trkpt>
      <trkpt lat="27.981793" lon="-15.587277">
        <ele>1553.908000</ele>
        <time>2021-01-01T13:29:39.539Z</time>
      </trkpt>
      <trkpt lat="27.981823" lon="-15.587384">
        <ele>1553.264000</ele>
        <time>2021-01-01T13:29:54.133Z</time>
      </trkpt>
      <trkpt lat="27.982066" lon="-15.587651">
        <ele>1551.638000</ele>
        <time>2021-01-01T13:30:39.536Z</time>
      </trkpt>
      <trkpt lat="27.982163" lon="-15.587802">
        <ele>1550.991000</ele>
        <time>2021-01-01T13:31:01.818Z</time>
      </trkpt>
      <trkpt lat="27.982327" lon="-15.587935">
        <ele>1550.219000</ele>
        <time>2021-01-01T13:31:28.868Z</time>
      </trkpt>
      <trkpt lat="27.982445" lon="-15.588177">
        <ele>1549.248000</ele>
        <time>2021-01-01T13:32:02.531Z</time>
      </trkpt>
      <trkpt lat="27.982672" lon="-15.588348">
        <ele>1550.082000</ele>
        <time>2021-01-01T13:32:39.100Z</time>
      </trkpt>
      <trkpt lat="27.982745" lon="-15.588491">
        <ele>1556.129000</ele>
        <time>2021-01-01T13:32:59.172Z</time>
      </trkpt>
      <trkpt lat="27.982788" lon="-15.588781">
        <ele>1561.326000</ele>
        <time>2021-01-01T13:33:35.720Z</time>
      </trkpt>
      <trkpt lat="27.982865" lon="-15.588954">
        <ele>1560.198000</ele>
        <time>2021-01-01T13:33:59.429Z</time>
      </trkpt>
      <trkpt lat="27.982933" lon="-15.588898">
        <ele>1560.315000</ele>
        <time>2021-01-01T13:34:10.710Z</time>
      </trkpt>
      <trkpt lat="27.982977" lon="-15.588808">
        <ele>1564.026000</ele>
        <time>2021-01-01T13:34:23.014Z</time>
      </trkpt>
      <trkpt lat="27.983008" lon="-15.588961">
        <ele>1563.908000</ele>
        <time>2021-01-01T13:34:41.963Z</time>
      </trkpt>
      <trkpt lat="27.983111" lon="-15.589343">
        <ele>1562.745000</ele>
        <time>2021-01-01T13:35:29.724Z</time>
      </trkpt>
      <trkpt lat="27.983176" lon="-15.589554">
        <ele>1561.049000</ele>
        <time>2021-01-01T13:35:56.393Z</time>
      </trkpt>
      <trkpt lat="27.983345" lon="-15.589820">
        <ele>1558.982000</ele>
        <time>2021-01-01T13:36:35.786Z</time>
      </trkpt>
      <trkpt lat="27.983502" lon="-15.589965">
        <ele>1560.060000</ele>
        <time>2021-01-01T13:37:04.564Z</time>
      </trkpt>
      <trkpt lat="27.983570" lon="-15.589994">
        <ele>1560.099000</ele>
        <time>2021-01-01T13:37:14.603Z</time>
      </trkpt>
      <trkpt lat="27.983897" lon="-15.590294">
        <ele>1560.123000</ele>
        <time>2021-01-01T13:38:11.162Z</time>
      </trkpt>
      <trkpt lat="27.984063" lon="-15.590374">
        <ele>1558.680000</ele>
        <time>2021-01-01T13:38:35.563Z</time>
      </trkpt>
      <trkpt lat="27.984213" lon="-15.590423">
        <ele>1557.337000</ele>
        <time>2021-01-01T13:38:56.708Z</time>
      </trkpt>
      <trkpt lat="27.984373" lon="-15.590521">
        <ele>1556.568000</ele>
        <time>2021-01-01T13:39:21.694Z</time>
      </trkpt>
      <trkpt lat="27.984522" lon="-15.590583">
        <ele>1556.242000</ele>
        <time>2021-01-01T13:39:43.731Z</time>
      </trkpt>
      <trkpt lat="27.984612" lon="-15.590660">
        <ele>1555.726000</ele>
        <time>2021-01-01T13:39:59.177Z</time>
      </trkpt>
      <trkpt lat="27.984646" lon="-15.590740">
        <ele>1555.808000</ele>
        <time>2021-01-01T13:40:09.731Z</time>
      </trkpt>
      <trkpt lat="27.984782" lon="-15.590818">
        <ele>1556.272000</ele>
        <time>2021-01-01T13:40:30.180Z</time>
      </trkpt>
      <trkpt lat="27.985091" lon="-15.590922">
        <ele>1554.846000</ele>
        <time>2021-01-01T13:41:14.340Z</time>
      </trkpt>
      <trkpt lat="27.985108" lon="-15.590996">
        <ele>1550.639000</ele>
        <time>2021-01-01T13:41:23.419Z</time>
      </trkpt>
      <trkpt lat="27.985083" lon="-15.591077">
        <ele>1549.527000</ele>
        <time>2021-01-01T13:41:33.587Z</time>
      </trkpt>
      <trkpt lat="27.985222" lon="-15.591051">
        <ele>1547.986000</ele>
        <time>2021-01-01T13:41:52.683Z</time>
      </trkpt>
      <trkpt lat="27.985266" lon="-15.591018">
        <ele>1544.950000</ele>
        <time>2021-01-01T13:41:59.855Z</time>
      </trkpt>
      <trkpt lat="27.985285" lon="-15.591039">
        <ele>1544.667000</ele>
        <time>2021-01-01T13:42:03.469Z</time>
      </trkpt>
      <trkpt lat="27.985176" lon="-15.591305">
        <ele>1542.284000</ele>
        <time>2021-01-01T13:42:38.344Z</time>
      </trkpt>
      <trkpt lat="27.985117" lon="-15.591341">
        <ele>1540.194000</ele>
        <time>2021-01-01T13:42:47.420Z</time>
      </trkpt>
      <trkpt lat="27.985131" lon="-15.591368">
        <ele>1539.857000</ele>
        <time>2021-01-01T13:42:51.239Z</time>
      </trkpt>
      <trkpt lat="27.985173" lon="-15.591395">
        <ele>1539.822000</ele>
        <time>2021-01-01T13:42:57.744Z</time>
      </trkpt>
      <trkpt lat="27.985249" lon="-15.591388">
        <ele>1540.208000</ele>
        <time>2021-01-01T13:43:08.007Z</time>
      </trkpt>
      <trkpt lat="27.985253" lon="-15.591428">
        <ele>1540.355000</ele>
        <time>2021-01-01T13:43:12.916Z</time>
      </trkpt>
      <trkpt lat="27.985222" lon="-15.591481">
        <ele>1540.829000</ele>
        <time>2021-01-01T13:43:20.731Z</time>
      </trkpt>
      <trkpt lat="27.985173" lon="-15.591485">
        <ele>1540.772000</ele>
        <time>2021-01-01T13:43:27.356Z</time>
      </trkpt>
      <trkpt lat="27.985133" lon="-15.591545">
        <ele>1541.230000</ele>
        <time>2021-01-01T13:43:36.699Z</time>
      </trkpt>
      <trkpt lat="27.985079" lon="-15.591566">
        <ele>1540.959000</ele>
        <time>2021-01-01T13:43:44.540Z</time>
      </trkpt>
      <trkpt lat="27.985037" lon="-15.591613">
        <ele>1541.633000</ele>
        <time>2021-01-01T13:43:52.897Z</time>
      </trkpt>
      <trkpt lat="27.985052" lon="-15.591655">
        <ele>1545.690000</ele>
        <time>2021-01-01T13:43:58.443Z</time>
      </trkpt>
      <trkpt lat="27.985211" lon="-15.591669">
        <ele>1550.527000</ele>
        <time>2021-01-01T13:44:20.025Z</time>
      </trkpt>
      <trkpt lat="27.985257" lon="-15.591709">
        <ele>1563.736000</ele>
        <time>2021-01-01T13:44:27.814Z</time>
      </trkpt>
      <trkpt lat="27.985297" lon="-15.591793">
        <ele>1565.817000</ele>
        <time>2021-01-01T13:44:39.198Z</time>
      </trkpt>
      <trkpt lat="27.985253" lon="-15.591877">
        <ele>1568.518000</ele>
        <time>2021-01-01T13:44:50.906Z</time>
      </trkpt>
      <trkpt lat="27.985213" lon="-15.591983">
        <ele>1569.808000</ele>
        <time>2021-01-01T13:45:04.725Z</time>
      </trkpt>
      <trkpt lat="27.985167" lon="-15.592053">
        <ele>1567.959000</ele>
        <time>2021-01-01T13:45:15.192Z</time>
      </trkpt>
      <trkpt lat="27.985117" lon="-15.592097">
        <ele>1567.973000</ele>
        <time>2021-01-01T13:45:23.915Z</time>
      </trkpt>
      <trkpt lat="27.985083" lon="-15.592176">
        <ele>1571.566000</ele>
        <time>2021-01-01T13:45:34.562Z</time>
      </trkpt>
      <trkpt lat="27.985066" lon="-15.592234">
        <ele>1571.264000</ele>
        <time>2021-01-01T13:45:41.920Z</time>
      </trkpt>
      <trkpt lat="27.985062" lon="-15.592310">
        <ele>1571.023000</ele>
        <time>2021-01-01T13:45:50.957Z</time>
      </trkpt>
      <trkpt lat="27.985096" lon="-15.592385">
        <ele>1569.087000</ele>
        <time>2021-01-01T13:46:01.058Z</time>
      </trkpt>
      <trkpt lat="27.985184" lon="-15.592463">
        <ele>1568.894000</ele>
        <time>2021-01-01T13:46:16.817Z</time>
      </trkpt>
      <trkpt lat="27.985386" lon="-15.592543">
        <ele>1573.281000</ele>
        <time>2021-01-01T13:46:45.724Z</time>
      </trkpt>
      <trkpt lat="27.985508" lon="-15.592575">
        <ele>1573.851000</ele>
        <time>2021-01-01T13:47:02.593Z</time>
      </trkpt>
      <trkpt lat="27.985583" lon="-15.592556">
        <ele>1574.101000</ele>
        <time>2021-01-01T13:47:12.900Z</time>
      </trkpt>
      <trkpt lat="27.985659" lon="-15.592557">
        <ele>1574.411000</ele>
        <time>2021-01-01T13:47:23.228Z</time>
      </trkpt>
      <trkpt lat="27.985720" lon="-15.592522">
        <ele>1575.508000</ele>
        <time>2021-01-01T13:47:32.403Z</time>
      </trkpt>
      <trkpt lat="27.985789" lon="-15.592526">
        <ele>1577.861000</ele>
        <time>2021-01-01T13:47:41.804Z</time>
      </trkpt>
      <trkpt lat="27.985823" lon="-15.592551">
        <ele>1579.015000</ele>
        <time>2021-01-01T13:47:47.592Z</time>
      </trkpt>
      <trkpt lat="27.985852" lon="-15.592576">
        <ele>1581.518000</ele>
        <time>2021-01-01T13:47:52.732Z</time>
      </trkpt>
      <trkpt lat="27.985989" lon="-15.592596">
        <ele>1581.066000</ele>
        <time>2021-01-01T13:48:11.332Z</time>
      </trkpt>
      <trkpt lat="27.986037" lon="-15.592587">
        <ele>1582.095000</ele>
        <time>2021-01-01T13:48:17.857Z</time>
      </trkpt>
      <trkpt lat="27.986075" lon="-15.592571">
        <ele>1583.399000</ele>
        <time>2021-01-01T13:48:23.320Z</time>
      </trkpt>
      <trkpt lat="27.986138" lon="-15.592554">
        <ele>1584.916000</ele>
        <time>2021-01-01T13:48:32.037Z</time>
      </trkpt>
      <trkpt lat="27.986203" lon="-15.592559">
        <ele>1585.263000</ele>
        <time>2021-01-01T13:48:40.780Z</time>
      </trkpt>
      <trkpt lat="27.986248" lon="-15.592582">
        <ele>1587.121000</ele>
        <time>2021-01-01T13:48:47.404Z</time>
      </trkpt>
      <trkpt lat="27.986372" lon="-15.592567">
        <ele>1588.341000</ele>
        <time>2021-01-01T13:49:04.192Z</time>
      </trkpt>
      <trkpt lat="27.986445" lon="-15.592584">
        <ele>1588.305000</ele>
        <time>2021-01-01T13:49:14.186Z</time>
      </trkpt>
      <trkpt lat="27.986573" lon="-15.592556">
        <ele>1588.908000</ele>
        <time>2021-01-01T13:49:31.669Z</time>
      </trkpt>
      <trkpt lat="27.986655" lon="-15.592554">
        <ele>1593.398000</ele>
        <time>2021-01-01T13:49:42.668Z</time>
      </trkpt>
      <trkpt lat="27.986801" lon="-15.592600">
        <ele>1595.692000</ele>
        <time>2021-01-01T13:50:03.009Z</time>
      </trkpt>
      <trkpt lat="27.986801" lon="-15.592600">
        <ele>1601.345000</ele>
        <time>2021-01-01T13:50:03.033Z</time>
      </trkpt>
      <trkpt lat="27.986899" lon="-15.592630">
        <ele>1604.853000</ele>
        <time>2021-01-01T13:50:16.659Z</time>
      </trkpt>
      <trkpt lat="27.986964" lon="-15.592695">
        <ele>1604.262000</ele>
        <time>2021-01-01T13:50:28.293Z</time>
      </trkpt>
      <trkpt lat="27.987110" lon="-15.592811">
        <ele>1603.896000</ele>
        <time>2021-01-01T13:50:52.217Z</time>
      </trkpt>
      <trkpt lat="27.987210" lon="-15.592871">
        <ele>1603.163000</ele>
        <time>2021-01-01T13:51:07.418Z</time>
      </trkpt>
      <trkpt lat="27.987286" lon="-15.592910">
        <ele>1604.070000</ele>
        <time>2021-01-01T13:51:18.626Z</time>
      </trkpt>
      <trkpt lat="27.987389" lon="-15.592961">
        <ele>1601.691000</ele>
        <time>2021-01-01T13:51:33.721Z</time>
      </trkpt>
      <trkpt lat="27.987500" lon="-15.593049">
        <ele>1603.281000</ele>
        <time>2021-01-01T13:51:51.892Z</time>
      </trkpt>
      <trkpt lat="27.987635" lon="-15.593129">
        <ele>1603.419000</ele>
        <time>2021-01-01T13:52:13.021Z</time>
      </trkpt>
      <trkpt lat="27.987759" lon="-15.593241">
        <ele>1591.908000</ele>
        <time>2021-01-01T13:52:34.551Z</time>
      </trkpt>
      <trkpt lat="27.987830" lon="-15.593279">
        <ele>1588.375000</ele>
        <time>2021-01-01T13:52:45.179Z</time>
      </trkpt>
      <trkpt lat="27.987925" lon="-15.593296">
        <ele>1590.719000</ele>
        <time>2021-01-01T13:52:58.197Z</time>
      </trkpt>
      <trkpt lat="27.988182" lon="-15.593304">
        <ele>1595.372000</ele>
        <time>2021-01-01T13:53:33.242Z</time>
      </trkpt>
      <trkpt lat="27.988289" lon="-15.593271">
        <ele>1594.580000</ele>
        <time>2021-01-01T13:53:48.451Z</time>
      </trkpt>
      <trkpt lat="27.988369" lon="-15.593254">
        <ele>1589.929000</ele>
        <time>2021-01-01T13:53:59.479Z</time>
      </trkpt>
      <trkpt lat="27.988436" lon="-15.593267">
        <ele>1589.943000</ele>
        <time>2021-01-01T13:54:08.627Z</time>
      </trkpt>
      <trkpt lat="27.988652" lon="-15.593320">
        <ele>1589.870000</ele>
        <time>2021-01-01T13:54:38.328Z</time>
      </trkpt>
      <trkpt lat="27.988669" lon="-15.593381">
        <ele>1583.987000</ele>
        <time>2021-01-01T13:54:45.942Z</time>
      </trkpt>
      <trkpt lat="27.988709" lon="-15.593401">
        <ele>1577.553000</ele>
        <time>2021-01-01T13:54:51.879Z</time>
      </trkpt>
      <trkpt lat="27.988930" lon="-15.593358">
        <ele>1578.204000</ele>
        <time>2021-01-01T13:55:21.970Z</time>
      </trkpt>
      <trkpt lat="27.989033" lon="-15.593225">
        <ele>1578.314000</ele>
        <time>2021-01-01T13:55:42.941Z</time>
      </trkpt>
      <trkpt lat="27.989352" lon="-15.592982">
        <ele>1579.508000</ele>
        <time>2021-01-01T13:56:35.007Z</time>
      </trkpt>
      <trkpt lat="27.989521" lon="-15.592756">
        <ele>1577.351000</ele>
        <time>2021-01-01T13:57:10.629Z</time>
      </trkpt>
      <trkpt lat="27.989651" lon="-15.592446">
        <ele>1566.335000</ele>
        <time>2021-01-01T13:57:51.288Z</time>
      </trkpt>
      <trkpt lat="27.989687" lon="-15.592415">
        <ele>1562.198000</ele>
        <time>2021-01-01T13:57:57.354Z</time>
      </trkpt>
      <trkpt lat="27.989924" lon="-15.592408">
        <ele>1558.226000</ele>
        <time>2021-01-01T13:58:29.458Z</time>
      </trkpt>
      <trkpt lat="27.990012" lon="-15.592373">
        <ele>1540.055000</ele>
        <time>2021-01-01T13:58:41.965Z</time>
      </trkpt>
      <trkpt lat="27.990055" lon="-15.592334">
        <ele>1536.919000</ele>
        <time>2021-01-01T13:58:49.485Z</time>
      </trkpt>
      <trkpt lat="27.990301" lon="-15.592271">
        <ele>1534.626000</ele>
        <time>2021-01-01T13:59:23.366Z</time>
      </trkpt>
      <trkpt lat="27.990456" lon="-15.592147">
        <ele>1533.433000</ele>
        <time>2021-01-01T13:59:48.935Z</time>
      </trkpt>
      <trkpt lat="27.990633" lon="-15.592115">
        <ele>1529.579000</ele>
        <time>2021-01-01T14:00:13.006Z</time>
      </trkpt>
      <trkpt lat="27.990633" lon="-15.592115">
        <ele>1527.905000</ele>
        <time>2021-01-01T14:00:13.053Z</time>
      </trkpt>
      <trkpt lat="27.990704" lon="-15.592102">
        <ele>1525.725000</ele>
        <time>2021-01-01T14:00:22.697Z</time>
      </trkpt>
      <trkpt lat="27.990780" lon="-15.592026">
        <ele>1523.708000</ele>
        <time>2021-01-01T14:00:36.403Z</time>
      </trkpt>
      <trkpt lat="27.990939" lon="-15.592001">
        <ele>1524.263000</ele>
        <time>2021-01-01T14:00:57.989Z</time>
      </trkpt>
      <trkpt lat="27.991019" lon="-15.592006">
        <ele>1521.827000</ele>
        <time>2021-01-01T14:01:08.773Z</time>
      </trkpt>
      <trkpt lat="27.991097" lon="-15.592027">
        <ele>1521.080000</ele>
        <time>2021-01-01T14:01:19.531Z</time>
      </trkpt>
      <trkpt lat="27.991146" lon="-15.592063">
        <ele>1519.278000</ele>
        <time>2021-01-01T14:01:27.388Z</time>
      </trkpt>
      <trkpt lat="27.991213" lon="-15.592163">
        <ele>1519.317000</ele>
        <time>2021-01-01T14:01:42.251Z</time>
      </trkpt>
      <trkpt lat="27.991482" lon="-15.592775">
        <ele>1520.091000</ele>
        <time>2021-01-01T14:03:03.199Z</time>
      </trkpt>
      <trkpt lat="27.991585" lon="-15.592847">
        <time>2021-01-01T14:03:19.521Z</time>
      </trkpt>
      <trkpt lat="27.991810" lon="-15.593145">
        <time>2021-01-01T14:04:06.223Z</time>
      </trkpt>
      <trkpt lat="27.991864" lon="-15.593196">
        <time>2021-01-01T14:04:15.746Z</time>
      </trkpt>
      <trkpt lat="27.991967" lon="-15.593275">
        <time>2021-01-01T14:04:32.530Z</time>
      </trkpt>
      <trkpt lat="27.992092" lon="-15.593359">
        <time>2021-01-01T14:04:52.362Z</time>
      </trkpt>
      <trkpt lat="27.992144" lon="-15.593348">
        <time>2021-01-01T14:04:59.463Z</time>
      </trkpt>
      <trkpt lat="27.992205" lon="-15.593418">
        <time>2021-01-01T14:05:11.458Z</time>
      </trkpt>
      <trkpt lat="27.992287" lon="-15.593496">
        <time>2021-01-01T14:05:26.037Z</time>
      </trkpt>
      <trkpt lat="27.992325" lon="-15.593522">
        <time>2021-01-01T14:05:32.004Z</time>
      </trkpt>
      <trkpt lat="27.992400" lon="-15.593550">
        <time>2021-01-01T14:05:42.593Z</time>
      </trkpt>
      <trkpt lat="27.992461" lon="-15.593571">
        <time>2021-01-01T14:05:51.155Z</time>
      </trkpt>
      <trkpt lat="27.992564" lon="-15.593586">
        <time>2021-01-01T14:06:05.082Z</time>
      </trkpt>
      <trkpt lat="27.992560" lon="-15.593663">
        <time>2021-01-01T14:06:14.233Z</time>
      </trkpt>
      <trkpt lat="27.992609" lon="-15.593641">
        <time>2021-01-01T14:06:21.301Z</time>
      </trkpt>
      <trkpt lat="27.992709" lon="-15.593685">
        <time>2021-01-01T14:06:35.697Z</time>
      </trkpt>
      <trkpt lat="27.992823" lon="-15.593660">
        <time>2021-01-01T14:06:51.271Z</time>
      </trkpt>
      <trkpt lat="27.992918" lon="-15.593679">
        <time>2021-01-01T14:07:04.233Z</time>
      </trkpt>
      <trkpt lat="27.993058" lon="-15.593761">
        <time>2021-01-01T14:07:25.927Z</time>
      </trkpt>
      <trkpt lat="27.993161" lon="-15.593836">
        <time>2021-01-01T14:07:43.352Z</time>
      </trkpt>
      <trkpt lat="27.993445" lon="-15.594151">
        <time>2021-01-01T14:08:38.986Z</time>
      </trkpt>
      <trkpt lat="27.993473" lon="-15.594218">
        <time>2021-01-01T14:08:48.114Z</time>
      </trkpt>
      <trkpt lat="27.993531" lon="-15.594304">
        <time>2021-01-01T14:09:01.335Z</time>
      </trkpt>
      <trkpt lat="27.993609" lon="-15.594347">
        <time>2021-01-01T14:09:13.071Z</time>
      </trkpt>
      <trkpt lat="27.993721" lon="-15.594347">
        <time>2021-01-01T14:09:28.254Z</time>
      </trkpt>
      <trkpt lat="27.993988" lon="-15.594424">
        <time>2021-01-01T14:10:05.199Z</time>
      </trkpt>
      <trkpt lat="27.994183" lon="-15.594546">
        <time>2021-01-01T14:10:35.385Z</time>
      </trkpt>
      <trkpt lat="27.994353" lon="-15.594589">
        <time>2021-01-01T14:10:58.745Z</time>
      </trkpt>
      <trkpt lat="27.994595" lon="-15.594640">
        <time>2021-01-01T14:11:31.754Z</time>
      </trkpt>
      <trkpt lat="27.994709" lon="-15.594619">
        <time>2021-01-01T14:11:47.416Z</time>
      </trkpt>
      <trkpt lat="27.994782" lon="-15.594615">
        <time>2021-01-01T14:11:57.219Z</time>
      </trkpt>
      <trkpt lat="27.994992" lon="-15.594729">
        <time>2021-01-01T14:12:28.892Z</time>
      </trkpt>
      <trkpt lat="27.995158" lon="-15.594763">
        <time>2021-01-01T14:12:51.523Z</time>
      </trkpt>
      <trkpt lat="27.995289" lon="-15.594826">
        <time>2021-01-01T14:13:10.609Z</time>
      </trkpt>
      <trkpt lat="27.995419" lon="-15.594859">
        <time>2021-01-01T14:13:28.478Z</time>
      </trkpt>
      <trkpt lat="27.995577" lon="-15.594930">
        <time>2021-01-01T14:13:51.310Z</time>
      </trkpt>
      <trkpt lat="27.995787" lon="-15.594948">
        <time>2021-01-01T14:14:19.692Z</time>
      </trkpt>
      <trkpt lat="27.995993" lon="-15.595029">
        <time>2021-01-01T14:14:48.966Z</time>
      </trkpt>
      <trkpt lat="27.996106" lon="-15.595164">
        <time>2021-01-01T14:15:11.196Z</time>
      </trkpt>
      <trkpt lat="27.996216" lon="-15.595192">
        <time>2021-01-01T14:15:26.324Z</time>
      </trkpt>
      <trkpt lat="27.996428" lon="-15.595368">
        <time>2021-01-01T14:16:01.594Z</time>
      </trkpt>
      <trkpt lat="27.996470" lon="-15.595475">
        <time>2021-01-01T14:16:15.547Z</time>
      </trkpt>
      <trkpt lat="27.996483" lon="-15.595573">
        <time>2021-01-01T14:16:27.422Z</time>
      </trkpt>
      <trkpt lat="27.996613" lon="-15.595661">
        <time>2021-01-01T14:16:47.735Z</time>
      </trkpt>
      <trkpt lat="27.996722" lon="-15.595784">
        <time>2021-01-01T14:17:08.489Z</time>
      </trkpt>
      <trkpt lat="27.996920" lon="-15.595920">
        <time>2021-01-01T14:17:39.576Z</time>
      </trkpt>
      <trkpt lat="27.996920" lon="-15.595920">
        <time>2021-01-01T14:17:39.619Z</time>
      </trkpt>
      <trkpt lat="27.996964" lon="-15.595950">
        <time>2021-01-01T14:17:46.544Z</time>
      </trkpt>
      <trkpt lat="27.997212" lon="-15.596089">
        <time>2021-01-01T14:18:24.042Z</time>
      </trkpt>
      <trkpt lat="27.997385" lon="-15.596219">
        <time>2021-01-01T14:18:52.019Z</time>
      </trkpt>
      <trkpt lat="27.997607" lon="-15.596388">
        <time>2021-01-01T14:19:28.530Z</time>
      </trkpt>
      <trkpt lat="27.997889" lon="-15.596496">
        <time>2021-01-01T14:20:08.671Z</time>
      </trkpt>
      <trkpt lat="27.998240" lon="-15.596689">
        <time>2021-01-01T14:21:00.996Z</time>
      </trkpt>
      <trkpt lat="27.998583" lon="-15.596675">
        <time>2021-01-01T14:21:47.022Z</time>
      </trkpt>
      <trkpt lat="27.998783" lon="-15.596725">
        <time>2021-01-01T14:22:14.500Z</time>
      </trkpt>
      <trkpt lat="27.998980" lon="-15.596733">
        <time>2021-01-01T14:22:40.956Z</time>
      </trkpt>
      <trkpt lat="27.999407" lon="-15.596895">
        <time>2021-01-01T14:23:41.409Z</time>
      </trkpt>
      <trkpt lat="27.999861" lon="-15.596959">
        <time>2021-01-01T14:24:42.787Z</time>
      </trkpt>
      <trkpt lat="28.000216" lon="-15.597021">
        <time>2021-01-01T14:25:30.953Z</time>
      </trkpt>
      <trkpt lat="28.000676" lon="-15.597180">
        <time>2021-01-01T14:26:36.921Z</time>
      </trkpt>
      <trkpt lat="28.000822" lon="-15.597214">
        <time>2021-01-01T14:26:57.357Z</time>
      </trkpt>
      <trkpt lat="28.001255" lon="-15.597191">
        <time>2021-01-01T14:27:55.552Z</time>
      </trkpt>
      <trkpt lat="28.001423" lon="-15.597089">
        <time>2021-01-01T14:28:21.721Z</time>
      </trkpt>
      <trkpt lat="28.001519" lon="-15.597092">
        <time>2021-01-01T14:28:34.634Z</time>
      </trkpt>
      <trkpt lat="28.001730" lon="-15.597147">
        <time>2021-01-01T14:29:04.204Z</time>
      </trkpt>
      <trkpt lat="28.001730" lon="-15.597147">
        <time>2021-01-01T14:29:04.221Z</time>
      </trkpt>
      <trkpt lat="28.001734" lon="-15.597148">
        <time>2021-01-01T14:29:04.778Z</time>
      </trkpt>
      <trkpt lat="28.002217" lon="-15.597160">
        <time>2021-01-01T14:30:09.947Z</time>
      </trkpt>
      <trkpt lat="28.002545" lon="-15.597395">
        <time>2021-01-01T14:31:02.566Z</time>
      </trkpt>
      <trkpt lat="28.002608" lon="-15.597415">
        <time>2021-01-01T14:31:11.375Z</time>
      </trkpt>
      <trkpt lat="28.002680" lon="-15.597481">
        <time>2021-01-01T14:31:23.796Z</time>
      </trkpt>
      <trkpt lat="28.002814" lon="-15.597531">
        <time>2021-01-01T14:31:42.769Z</time>
      </trkpt>
      <trkpt lat="28.002913" lon="-15.597635">
        <time>2021-01-01T14:32:01.061Z</time>
      </trkpt>
      <trkpt lat="28.003094" lon="-15.597886">
        <time>2021-01-01T14:32:41.665Z</time>
      </trkpt>
      <trkpt lat="28.003197" lon="-15.597954">
        <time>2021-01-01T14:32:58.412Z</time>
      </trkpt>
      <trkpt lat="28.003418" lon="-15.598025">
        <time>2021-01-01T14:33:29.586Z</time>
      </trkpt>
      <trkpt lat="28.003874" lon="-15.598368">
        <time>2021-01-01T14:34:46.189Z</time>
      </trkpt>
      <trkpt lat="28.004019" lon="-15.598447">
        <time>2021-01-01T14:35:08.094Z</time>
      </trkpt>
      <trkpt lat="28.004099" lon="-15.598603">
        <time>2021-01-01T14:35:29.631Z</time>
      </trkpt>
      <trkpt lat="28.004267" lon="-15.598779">
        <time>2021-01-01T14:36:00.352Z</time>
      </trkpt>
      <trkpt lat="28.004479" lon="-15.599124">
        <time>2021-01-01T14:36:50.332Z</time>
      </trkpt>
      <trkpt lat="28.004519" lon="-15.599209">
        <time>2021-01-01T14:37:01.913Z</time>
      </trkpt>
      <trkpt lat="28.004557" lon="-15.599310">
        <time>2021-01-01T14:37:15.174Z</time>
      </trkpt>
      <trkpt lat="28.004813" lon="-15.599466">
        <time>2021-01-01T14:37:54.231Z</time>
      </trkpt>
      <trkpt lat="28.004914" lon="-15.599468">
        <time>2021-01-01T14:38:07.793Z</time>
      </trkpt>
      <trkpt lat="28.005211" lon="-15.599574">
        <time>2021-01-01T14:38:49.652Z</time>
      </trkpt>
      <trkpt lat="28.005320" lon="-15.599615">
        <time>2021-01-01T14:39:05.079Z</time>
      </trkpt>
      <trkpt lat="28.005677" lon="-15.599654">
        <time>2021-01-01T14:39:53.222Z</time>
      </trkpt>
      <trkpt lat="28.005848" lon="-15.599666">
        <time>2021-01-01T14:40:16.196Z</time>
      </trkpt>
      <trkpt lat="28.005923" lon="-15.599695">
        <time>2021-01-01T14:40:26.864Z</time>
      </trkpt>
      <trkpt lat="28.005923" lon="-15.599695">
        <ele>1520.091000</ele>
        <time>2021-01-01T14:40:26.864Z</time>
      </trkpt>
      <trkpt lat="28.005923" lon="-15.599695">
        <ele>1520.058000</ele>
        <time>2021-01-01T14:40:26.903Z</time>
      </trkpt>
      <trkpt lat="28.005944" lon="-15.599609">
        <ele>1520.115000</ele>
        <time>2021-01-01T14:40:37.467Z</time>
      </trkpt>
      <trkpt lat="28.005942" lon="-15.599463">
        <ele>1520.015000</ele>
        <time>2021-01-01T14:40:54.755Z</time>
      </trkpt>
      <trkpt lat="28.006043" lon="-15.599493">
        <ele>1520.265000</ele>
        <time>2021-01-01T14:41:08.759Z</time>
      </trkpt>
      <trkpt lat="28.006220" lon="-15.599549">
        <ele>1521.011000</ele>
        <time>2021-01-01T14:41:33.419Z</time>
      </trkpt>
      <trkpt lat="28.006266" lon="-15.599561">
        <ele>1521.308000</ele>
        <time>2021-01-01T14:41:39.759Z</time>
      </trkpt>
      <trkpt lat="28.006407" lon="-15.599604">
        <ele>1522.317000</ele>
        <time>2021-01-01T14:41:59.377Z</time>
      </trkpt>
      <trkpt lat="28.006588" lon="-15.599647">
        <ele>1522.731000</ele>
        <time>2021-01-01T14:42:24.181Z</time>
      </trkpt>
      <trkpt lat="28.006693" lon="-15.599671">
        <ele>1522.664000</ele>
        <time>2021-01-01T14:42:38.545Z</time>
      </trkpt>
      <trkpt lat="28.006716" lon="-15.599674">
        <ele>1522.572000</ele>
        <time>2021-01-01T14:42:41.651Z</time>
      </trkpt>
      <trkpt lat="28.006754" lon="-15.599677">
        <ele>1522.271000</ele>
        <time>2021-01-01T14:42:46.772Z</time>
      </trkpt>
      <trkpt lat="28.006884" lon="-15.599691">
        <ele>1521.435000</ele>
        <time>2021-01-01T14:43:04.312Z</time>
      </trkpt>
      <trkpt lat="28.007002" lon="-15.599695">
        <ele>1520.862000</ele>
        <time>2021-01-01T14:43:20.157Z</time>
      </trkpt>
      <trkpt lat="28.007103" lon="-15.599628">
        <ele>1520.739000</ele>
        <time>2021-01-01T14:43:35.853Z</time>
      </trkpt>
      <trkpt lat="28.007288" lon="-15.599801">
        <ele>1521.242000</ele>
        <time>2021-01-01T14:44:08.028Z</time>
      </trkpt>
      <trkpt lat="28.007233" lon="-15.599890">
        <ele>1520.822000</ele>
        <time>2021-01-01T14:44:20.899Z</time>
      </trkpt>
      <trkpt lat="28.007267" lon="-15.599961">
        <ele>1521.514000</ele>
        <time>2021-01-01T14:44:30.498Z</time>
      </trkpt>
      <trkpt lat="28.007429" lon="-15.600134">
        <ele>1525.608000</ele>
        <time>2021-01-01T14:45:00.759Z</time>
      </trkpt>
      <trkpt lat="28.007651" lon="-15.600501">
        <ele>1539.150000</ele>
        <time>2021-01-01T14:45:55.901Z</time>
      </trkpt>
      <trkpt lat="28.007901" lon="-15.600623">
        <ele>1546.874000</ele>
        <time>2021-01-01T14:46:33.573Z</time>
      </trkpt>
      <trkpt lat="28.007965" lon="-15.600689">
        <ele>1547.277000</ele>
        <time>2021-01-01T14:46:45.190Z</time>
      </trkpt>
      <trkpt lat="28.007965" lon="-15.600689">
        <ele>1547.265000</ele>
        <time>2021-01-01T14:46:45.204Z</time>
      </trkpt>
      <trkpt lat="28.008040" lon="-15.600767">
        <ele>1548.034000</ele>
        <time>2021-01-01T14:46:58.889Z</time>
      </trkpt>
      <trkpt lat="28.008154" lon="-15.601007">
        <ele>1545.598000</ele>
        <time>2021-01-01T14:47:31.287Z</time>
      </trkpt>
      <trkpt lat="28.008314" lon="-15.600898">
        <ele>1546.595000</ele>
        <time>2021-01-01T14:47:56.352Z</time>
      </trkpt>
      <trkpt lat="28.008374" lon="-15.600875">
        <ele>1547.662000</ele>
        <time>2021-01-01T14:48:04.943Z</time>
      </trkpt>
      <trkpt lat="28.008536" lon="-15.600911">
        <ele>1550.543000</ele>
        <time>2021-01-01T14:48:27.351Z</time>
      </trkpt>
      <trkpt lat="28.008629" lon="-15.600961">
        <ele>1551.664000</ele>
        <time>2021-01-01T14:48:41.221Z</time>
      </trkpt>
      <trkpt lat="28.008791" lon="-15.600908">
        <ele>1560.110000</ele>
        <time>2021-01-01T14:49:06.020Z</time>
      </trkpt>
      <trkpt lat="28.008875" lon="-15.600925">
        <ele>1563.408000</ele>
        <time>2021-01-01T14:49:18.134Z</time>
      </trkpt>
      <trkpt lat="28.009095" lon="-15.600876">
        <ele>1570.740000</ele>
        <time>2021-01-01T14:49:49.473Z</time>
      </trkpt>
      <trkpt lat="28.009291" lon="-15.600900">
        <ele>1576.424000</ele>
        <time>2021-01-01T14:50:16.782Z</time>
      </trkpt>
      <trkpt lat="28.009314" lon="-15.600883">
        <ele>1577.257000</ele>
        <time>2021-01-01T14:50:20.599Z</time>
      </trkpt>
      <trkpt lat="28.009350" lon="-15.600786">
        <ele>1579.935000</ele>
        <time>2021-01-01T14:50:33.468Z</time>
      </trkpt>
      <trkpt lat="28.009367" lon="-15.600702">
        <ele>1582.184000</ele>
        <time>2021-01-01T14:50:44.025Z</time>
      </trkpt>
      <trkpt lat="28.009444" lon="-15.600734">
        <ele>1583.878000</ele>
        <time>2021-01-01T14:50:55.211Z</time>
      </trkpt>
      <trkpt lat="28.009539" lon="-15.600707">
        <ele>1586.915000</ele>
        <time>2021-01-01T14:51:08.846Z</time>
      </trkpt>
      <trkpt lat="28.009756" lon="-15.600673">
        <ele>1595.522000</ele>
        <time>2021-01-01T14:51:40Z</time>
      </trkpt>
      <trkpt lat="28.009980" lon="-15.600681">
        <ele>1607.962000</ele>
        <time>2021-01-01T14:52:13.589Z</time>
      </trkpt>
      <trkpt lat="28.010079" lon="-15.600703">
        <ele>1614.483000</ele>
        <time>2021-01-01T14:52:29.237Z</time>
      </trkpt>
      <trkpt lat="28.010207" lon="-15.600854">
        <ele>1619.311000</ele>
        <time>2021-01-01T14:52:54.694Z</time>
      </trkpt>
      <trkpt lat="28.010323" lon="-15.601121">
        <ele>1622.008000</ele>
        <time>2021-01-01T14:53:30.073Z</time>
      </trkpt>
      <trkpt lat="28.010483" lon="-15.601253">
        <ele>1621.382000</ele>
        <time>2021-01-01T14:53:56.626Z</time>
      </trkpt>
      <trkpt lat="28.010538" lon="-15.601271">
        <ele>1622.866000</ele>
        <time>2021-01-01T14:54:04.509Z</time>
      </trkpt>
      <trkpt lat="28.010731" lon="-15.601199">
        <ele>1628.079000</ele>
        <time>2021-01-01T14:54:32.472Z</time>
      </trkpt>
      <trkpt lat="28.010800" lon="-15.601199">
        <ele>1628.637000</ele>
        <time>2021-01-01T14:54:41.749Z</time>
      </trkpt>
      <trkpt lat="28.010849" lon="-15.601215">
        <ele>1627.656000</ele>
        <time>2021-01-01T14:54:48.688Z</time>
      </trkpt>
      <trkpt lat="28.010920" lon="-15.601131">
        <ele>1630.930000</ele>
        <time>2021-01-01T14:55:03.010Z</time>
      </trkpt>
      <trkpt lat="28.011307" lon="-15.601180">
        <ele>1636.357000</ele>
        <time>2021-01-01T14:55:55.636Z</time>
      </trkpt>
      <trkpt lat="28.011359" lon="-15.601153">
        <ele>1640.874000</ele>
        <time>2021-01-01T14:56:05.044Z</time>
      </trkpt>
      <trkpt lat="28.011492" lon="-15.601166">
        <ele>1645.049000</ele>
        <time>2021-01-01T14:56:23.639Z</time>
      </trkpt>
      <trkpt lat="28.011881" lon="-15.601367">
        <ele>1637.102000</ele>
        <time>2021-01-01T14:57:21.768Z</time>
      </trkpt>
      <trkpt lat="28.012013" lon="-15.601570">
        <ele>1625.722000</ele>
        <time>2021-01-01T14:57:54.618Z</time>
      </trkpt>
      <trkpt lat="28.012078" lon="-15.601589">
        <ele>1624.908000</ele>
        <time>2021-01-01T14:58:03.673Z</time>
      </trkpt>
      <trkpt lat="28.012207" lon="-15.601548">
        <ele>1628.090000</ele>
        <time>2021-01-01T14:58:22.045Z</time>
      </trkpt>
      <trkpt lat="28.012305" lon="-15.601469">
        <ele>1635.984000</ele>
        <time>2021-01-01T14:58:40.774Z</time>
      </trkpt>
      <trkpt lat="28.012432" lon="-15.601406">
        <ele>1646.237000</ele>
        <time>2021-01-01T14:59:03.101Z</time>
      </trkpt>
      <trkpt lat="28.012583" lon="-15.601394">
        <ele>1650.045000</ele>
        <time>2021-01-01T14:59:23.912Z</time>
      </trkpt>
      <trkpt lat="28.012722" lon="-15.601427">
        <ele>1647.464000</ele>
        <time>2021-01-01T14:59:43.208Z</time>
      </trkpt>
      <trkpt lat="28.012875" lon="-15.601505">
        <ele>1641.618000</ele>
        <time>2021-01-01T15:00:06.785Z</time>
      </trkpt>
      <trkpt lat="28.013111" lon="-15.601510">
        <ele>1639.275000</ele>
        <time>2021-01-01T15:00:38.563Z</time>
      </trkpt>
      <trkpt lat="28.013287" lon="-15.601504">
        <ele>1639.322000</ele>
        <time>2021-01-01T15:01:02.174Z</time>
      </trkpt>
      <trkpt lat="28.013560" lon="-15.601577">
        <ele>1631.919000</ele>
        <time>2021-01-01T15:01:40.832Z</time>
      </trkpt>
      <trkpt lat="28.013718" lon="-15.601748">
        <ele>1624.809000</ele>
        <time>2021-01-01T15:02:11.364Z</time>
      </trkpt>
      <trkpt lat="28.013932" lon="-15.601864">
        <ele>1630.519000</ele>
        <time>2021-01-01T15:02:43.913Z</time>
      </trkpt>
      <trkpt lat="28.014130" lon="-15.601968">
        <ele>1640.508000</ele>
        <time>2021-01-01T15:03:15.561Z</time>
      </trkpt>
      <trkpt lat="28.014258" lon="-15.602104">
        <ele>1638.427000</ele>
        <time>2021-01-01T15:03:39.228Z</time>
      </trkpt>
      <trkpt lat="28.014517" lon="-15.602202">
        <ele>1644.241000</ele>
        <time>2021-01-01T15:04:16.509Z</time>
      </trkpt>
      <trkpt lat="28.014666" lon="-15.602351">
        <ele>1640.154000</ele>
        <time>2021-01-01T15:04:43.613Z</time>
      </trkpt>
      <trkpt lat="28.014878" lon="-15.602438">
        <ele>1641.672000</ele>
        <time>2021-01-01T15:05:13.904Z</time>
      </trkpt>
      <trkpt lat="28.014937" lon="-15.602525">
        <ele>1639.731000</ele>
        <time>2021-01-01T15:05:27.101Z</time>
      </trkpt>
      <trkpt lat="28.015112" lon="-15.602638">
        <ele>1636.295000</ele>
        <time>2021-01-01T15:05:54.428Z</time>
      </trkpt>
      <trkpt lat="28.015370" lon="-15.602786">
        <ele>1633.122000</ele>
        <time>2021-01-01T15:06:33.395Z</time>
      </trkpt>
      <trkpt lat="28.015612" lon="-15.602829">
        <ele>1632.539000</ele>
        <time>2021-01-01T15:07:06.250Z</time>
      </trkpt>
      <trkpt lat="28.015704" lon="-15.602819">
        <ele>1630.986000</ele>
        <time>2021-01-01T15:07:18.784Z</time>
      </trkpt>
      <trkpt lat="28.015690" lon="-15.602757">
        <ele>1632.160000</ele>
        <time>2021-01-01T15:07:26.491Z</time>
      </trkpt>
      <trkpt lat="28.015709" lon="-15.602694">
        <ele>1632.326000</ele>
        <time>2021-01-01T15:07:34.375Z</time>
      </trkpt>
      <trkpt lat="28.015847" lon="-15.602877">
        <ele>1627.508000</ele>
        <time>2021-01-01T15:08:03.452Z</time>
      </trkpt>
      <trkpt lat="28.015900" lon="-15.602942">
        <ele>1626.194000</ele>
        <time>2021-01-01T15:08:14.046Z</time>
      </trkpt>
      <trkpt lat="28.016014" lon="-15.603083">
        <ele>1624.718000</ele>
        <time>2021-01-01T15:08:36.749Z</time>
      </trkpt>
      <trkpt lat="28.016102" lon="-15.603157">
        <ele>1625.451000</ele>
        <time>2021-01-01T15:08:51.472Z</time>
      </trkpt>
      <trkpt lat="28.016125" lon="-15.603283">
        <ele>1627.549000</ele>
        <time>2021-01-01T15:09:06.912Z</time>
      </trkpt>
      <trkpt lat="28.016224" lon="-15.603454">
        <ele>1629.098000</ele>
        <time>2021-01-01T15:09:31.192Z</time>
      </trkpt>
      <trkpt lat="28.016234" lon="-15.603540">
        <ele>1628.942000</ele>
        <time>2021-01-01T15:09:41.462Z</time>
      </trkpt>
      <trkpt lat="28.016329" lon="-15.603610">
        <ele>1631.349000</ele>
        <time>2021-01-01T15:09:56.934Z</time>
      </trkpt>
      <trkpt lat="28.016333" lon="-15.603722">
        <ele>1631.276000</ele>
        <time>2021-01-01T15:10:10.203Z</time>
      </trkpt>
      <trkpt lat="28.016436" lon="-15.603840">
        <ele>1635.682000</ele>
        <time>2021-01-01T15:10:30.553Z</time>
      </trkpt>
      <trkpt lat="28.016512" lon="-15.604042">
        <ele>1637.243000</ele>
        <time>2021-01-01T15:10:56.615Z</time>
      </trkpt>
      <trkpt lat="28.016590" lon="-15.604186">
        <ele>1640.617000</ele>
        <time>2021-01-01T15:11:17.024Z</time>
      </trkpt>
      <trkpt lat="28.016634" lon="-15.604318">
        <ele>1643.108000</ele>
        <time>2021-01-01T15:11:33.995Z</time>
      </trkpt>
      <trkpt lat="28.016718" lon="-15.604459">
        <ele>1646.214000</ele>
        <time>2021-01-01T15:11:54.477Z</time>
      </trkpt>
      <trkpt lat="28.016789" lon="-15.604555">
        <ele>1647.598000</ele>
        <time>2021-01-01T15:12:09.395Z</time>
      </trkpt>
      <trkpt lat="28.016865" lon="-15.604744">
        <ele>1648.551000</ele>
        <time>2021-01-01T15:12:34.008Z</time>
      </trkpt>
      <trkpt lat="28.016964" lon="-15.604932">
        <ele>1650.579000</ele>
        <time>2021-01-01T15:13:00.036Z</time>
      </trkpt>
      <trkpt lat="28.017065" lon="-15.605271">
        <ele>1654.098000</ele>
        <time>2021-01-01T15:13:42.602Z</time>
      </trkpt>
      <trkpt lat="28.017205" lon="-15.605473">
        <ele>1658.982000</ele>
        <time>2021-01-01T15:14:13.569Z</time>
      </trkpt>
      <trkpt lat="28.017496" lon="-15.605748">
        <ele>1663.149000</ele>
        <time>2021-01-01T15:15:04.634Z</time>
      </trkpt>
      <trkpt lat="28.017592" lon="-15.605896">
        <ele>1665.776000</ele>
        <time>2021-01-01T15:15:26.604Z</time>
      </trkpt>
      <trkpt lat="28.017649" lon="-15.606145">
        <ele>1670.596000</ele>
        <time>2021-01-01T15:15:57.605Z</time>
      </trkpt>
      <trkpt lat="28.017664" lon="-15.606567">
        <ele>1678.531000</ele>
        <time>2021-01-01T15:16:48.508Z</time>
      </trkpt>
      <trkpt lat="28.017876" lon="-15.606865">
        <ele>1683.624000</ele>
        <time>2021-01-01T15:17:34.228Z</time>
      </trkpt>
      <trkpt lat="28.018076" lon="-15.606951">
        <ele>1681.708000</ele>
        <time>2021-01-01T15:18:03.007Z</time>
      </trkpt>
      <trkpt lat="28.018259" lon="-15.607221">
        <ele>1685.295000</ele>
        <time>2021-01-01T15:18:43.533Z</time>
      </trkpt>
      <trkpt lat="28.018282" lon="-15.607491">
        <ele>1688.469000</ele>
        <time>2021-01-01T15:19:15.871Z</time>
      </trkpt>
      <trkpt lat="28.018269" lon="-15.607957">
        <ele>1697.182000</ele>
        <time>2021-01-01T15:20:12.053Z</time>
      </trkpt>
      <trkpt lat="28.018456" lon="-15.608241">
        <ele>1700.720000</ele>
        <time>2021-01-01T15:20:54.210Z</time>
      </trkpt>
      <trkpt lat="28.018473" lon="-15.608537">
        <ele>1711.619000</ele>
        <time>2021-01-01T15:21:31.703Z</time>
      </trkpt>
      <trkpt lat="28.018498" lon="-15.608846">
        <ele>1716.643000</ele>
        <time>2021-01-01T15:22:08.931Z</time>
      </trkpt>
      <trkpt lat="28.018565" lon="-15.609312">
        <ele>1714.690000</ele>
        <time>2021-01-01T15:23:04.871Z</time>
      </trkpt>
      <trkpt lat="28.018668" lon="-15.609714">
        <ele>1712.347000</ele>
        <time>2021-01-01T15:23:54.503Z</time>
      </trkpt>
      <trkpt lat="28.018793" lon="-15.609888">
        <ele>1710.229000</ele>
        <time>2021-01-01T15:24:21.181Z</time>
      </trkpt>
      <trkpt lat="28.019034" lon="-15.610201">
        <ele>1706.800000</ele>
        <time>2021-01-01T15:25:10.519Z</time>
      </trkpt>
      <trkpt lat="28.019343" lon="-15.610844">
        <ele>1702.720000</ele>
        <time>2021-01-01T15:26:37.322Z</time>
      </trkpt>
      <trkpt lat="28.019562" lon="-15.610893">
        <ele>1696.808000</ele>
        <time>2021-01-01T15:27:08.093Z</time>
      </trkpt>
      <trkpt lat="28.019713" lon="-15.610959">
        <ele>1693.958000</ele>
        <time>2021-01-01T15:27:30.066Z</time>
      </trkpt>
      <trkpt lat="28.019928" lon="-15.611059">
        <ele>1691.452000</ele>
        <time>2021-01-01T15:28:01.378Z</time>
      </trkpt>
      <trkpt lat="28.020396" lon="-15.611428">
        <ele>1692.895000</ele>
        <time>2021-01-01T15:29:17.858Z</time>
      </trkpt>
      <trkpt lat="28.021050" lon="-15.611780">
        <ele>1686.813000</ele>
        <time>2021-01-01T15:30:55.227Z</time>
      </trkpt>
      <trkpt lat="28.021433" lon="-15.611776">
        <ele>1677.392000</ele>
        <time>2021-01-01T15:31:47.828Z</time>
      </trkpt>
      <trkpt lat="28.021519" lon="-15.612075">
        <ele>1680.546000</ele>
        <time>2021-01-01T15:32:25.247Z</time>
      </trkpt>
      <trkpt lat="28.021523" lon="-15.612576">
        <ele>1685.983000</ele>
        <time>2021-01-01T15:33:24.916Z</time>
      </trkpt>
      <trkpt lat="28.021454" lon="-15.612779">
        <ele>1689.030000</ele>
        <time>2021-01-01T15:33:50.926Z</time>
      </trkpt>
      <trkpt lat="28.021229" lon="-15.613029">
        <ele>1692.111000</ele>
        <time>2021-01-01T15:34:33.351Z</time>
      </trkpt>
      <trkpt lat="28.021176" lon="-15.613181">
        <ele>1691.821000</ele>
        <time>2021-01-01T15:34:52.700Z</time>
      </trkpt>
      <trkpt lat="28.021260" lon="-15.613479">
        <ele>1689.203000</ele>
        <time>2021-01-01T15:35:29.864Z</time>
      </trkpt>
      <trkpt lat="28.021267" lon="-15.614062">
        <ele>1686.608000</ele>
        <time>2021-01-01T15:36:38.953Z</time>
      </trkpt>
      <trkpt lat="28.021193" lon="-15.614501">
        <ele>1688.717000</ele>
        <time>2021-01-01T15:37:31.919Z</time>
      </trkpt>
      <trkpt lat="28.021267" lon="-15.615999">
        <ele>1701.161000</ele>
        <time>2021-01-01T15:40:30.153Z</time>
      </trkpt>
      <trkpt lat="28.021315" lon="-15.616018">
        <ele>1700.724000</ele>
        <time>2021-01-01T15:40:36.991Z</time>
      </trkpt>
      <trkpt lat="28.021359" lon="-15.616099">
        <ele>1701.252000</ele>
        <time>2021-01-01T15:40:48.268Z</time>
      </trkpt>
      <trkpt lat="28.021410" lon="-15.616141">
        <ele>1700.961000</ele>
        <time>2021-01-01T15:40:56.730Z</time>
      </trkpt>
      <trkpt lat="28.021624" lon="-15.616108">
        <ele>1700.975000</ele>
        <time>2021-01-01T15:41:25.690Z</time>
      </trkpt>
      <trkpt lat="28.021771" lon="-15.616032">
        <ele>1699.312000</ele>
        <time>2021-01-01T15:41:47.450Z</time>
      </trkpt>
      <trkpt lat="28.021899" lon="-15.615985">
        <ele>1697.969000</ele>
        <time>2021-01-01T15:42:05.566Z</time>
      </trkpt>
      <trkpt lat="28.022074" lon="-15.615959">
        <ele>1695.563000</ele>
        <time>2021-01-01T15:42:29.410Z</time>
      </trkpt>
      <trkpt lat="28.022364" lon="-15.615871">
        <ele>1693.644000</ele>
        <time>2021-01-01T15:43:09.735Z</time>
      </trkpt>
      <trkpt lat="28.022511" lon="-15.615903">
        <ele>1692.918000</ele>
        <time>2021-01-01T15:43:29.826Z</time>
      </trkpt>
      <trkpt lat="28.022709" lon="-15.615997">
        <ele>1691.608000</ele>
        <time>2021-01-01T15:43:58.657Z</time>
      </trkpt>
      <trkpt lat="28.022780" lon="-15.616108">
        <ele>1690.092000</ele>
        <time>2021-01-01T15:44:14.986Z</time>
      </trkpt>
      <trkpt lat="28.022948" lon="-15.616234">
        <ele>1687.816000</ele>
        <time>2021-01-01T15:44:42.142Z</time>
      </trkpt>
      <trkpt lat="28.023131" lon="-15.616252">
        <ele>1687.349000</ele>
        <time>2021-01-01T15:45:06.780Z</time>
      </trkpt>
      <trkpt lat="28.023911" lon="-15.616249">
        <ele>1680.647000</ele>
        <time>2021-01-01T15:46:51.685Z</time>
      </trkpt>
      <trkpt lat="28.023911" lon="-15.616249">
        <ele>1680.696000</ele>
        <time>2021-01-01T15:46:51.744Z</time>
      </trkpt>
      <trkpt lat="28.024069" lon="-15.616248">
        <ele>1678.610000</ele>
        <time>2021-01-01T15:47:13.080Z</time>
      </trkpt>
      <trkpt lat="28.024313" lon="-15.616164">
        <ele>1676.177000</ele>
        <time>2021-01-01T15:47:47.402Z</time>
      </trkpt>
      <trkpt lat="28.024514" lon="-15.616108">
        <ele>1673.154000</ele>
        <time>2021-01-01T15:48:15.396Z</time>
      </trkpt>
      <trkpt lat="28.024687" lon="-15.616053">
        <ele>1668.581000</ele>
        <time>2021-01-01T15:48:40.113Z</time>
      </trkpt>
      <trkpt lat="28.024830" lon="-15.616073">
        <ele>1665.761000</ele>
        <time>2021-01-01T15:48:59.731Z</time>
      </trkpt>
      <trkpt lat="28.024958" lon="-15.616115">
        <ele>1663.617000</ele>
        <time>2021-01-01T15:49:17.786Z</time>
      </trkpt>
      <trkpt lat="28.025217" lon="-15.616297">
        <ele>1657.308000</ele>
        <time>2021-01-01T15:49:59.358Z</time>
      </trkpt>
      <trkpt lat="28.025271" lon="-15.616380">
        <ele>1656.944000</ele>
        <time>2021-01-01T15:50:11.570Z</time>
      </trkpt>
      <trkpt lat="28.025414" lon="-15.616370">
        <ele>1647.368000</ele>
        <time>2021-01-01T15:50:33.986Z</time>
      </trkpt>
      <trkpt lat="28.025420" lon="-15.616340">
        <ele>1646.631000</ele>
        <time>2021-01-01T15:50:37.734Z</time>
      </trkpt>
      <trkpt lat="28.025456" lon="-15.616309">
        <ele>1643.989000</ele>
        <time>2021-01-01T15:50:44.583Z</time>
      </trkpt>
      <trkpt lat="28.025496" lon="-15.616307">
        <ele>1641.238000</ele>
        <time>2021-01-01T15:50:50.895Z</time>
      </trkpt>
      <trkpt lat="28.025542" lon="-15.616352">
        <ele>1638.472000</ele>
        <time>2021-01-01T15:50:59.701Z</time>
      </trkpt>
      <trkpt lat="28.025662" lon="-15.616392">
        <ele>1634.439000</ele>
        <time>2021-01-01T15:51:17.165Z</time>
      </trkpt>
      <trkpt lat="28.025736" lon="-15.616367">
        <ele>1631.726000</ele>
        <time>2021-01-01T15:51:28.024Z</time>
      </trkpt>
      <trkpt lat="28.025759" lon="-15.616320">
        <ele>1630.219000</ele>
        <time>2021-01-01T15:51:34.640Z</time>
      </trkpt>
      <trkpt lat="28.025753" lon="-15.616262">
        <ele>1629.609000</ele>
        <time>2021-01-01T15:51:41.591Z</time>
      </trkpt>
      <trkpt lat="28.025660" lon="-15.616152">
        <ele>1631.819000</ele>
        <time>2021-01-01T15:51:59.816Z</time>
      </trkpt>
      <trkpt lat="28.025679" lon="-15.616090">
        <ele>1630.208000</ele>
        <time>2021-01-01T15:52:07.824Z</time>
      </trkpt>
      <trkpt lat="28.025896" lon="-15.616104">
        <ele>1623.627000</ele>
        <time>2021-01-01T15:52:38.030Z</time>
      </trkpt>
      <trkpt lat="28.026070" lon="-15.616130">
        <ele>1623.421000</ele>
        <time>2021-01-01T15:53:01.566Z</time>
      </trkpt>
      <trkpt lat="28.026219" lon="-15.616175">
        <ele>1621.264000</ele>
        <time>2021-01-01T15:53:22.407Z</time>
      </trkpt>
      <trkpt lat="28.026360" lon="-15.616202">
        <ele>1617.972000</ele>
        <time>2021-01-01T15:53:41.988Z</time>
      </trkpt>
      <trkpt lat="28.026457" lon="-15.616276">
        <ele>1616.381000</ele>
        <time>2021-01-01T15:53:57.787Z</time>
      </trkpt>
      <trkpt lat="28.026675" lon="-15.616282">
        <ele>1612.685000</ele>
        <time>2021-01-01T15:54:27.365Z</time>
      </trkpt>
      <trkpt lat="28.026871" lon="-15.616262">
        <ele>1608.122000</ele>
        <time>2021-01-01T15:54:54.322Z</time>
      </trkpt>
      <trkpt lat="28.027087" lon="-15.616387">
        <ele>1607.439000</ele>
        <time>2021-01-01T15:55:26.856Z</time>
      </trkpt>
      <trkpt lat="28.027193" lon="-15.616427">
        <ele>1607.349000</ele>
        <time>2021-01-01T15:55:41.838Z</time>
      </trkpt>
      <trkpt lat="28.027804" lon="-15.616749">
        <ele>1610.802000</ele>
        <time>2021-01-01T15:57:12.297Z</time>
      </trkpt>
      <trkpt lat="28.028702" lon="-15.617132">
        <ele>1609.822000</ele>
        <time>2021-01-01T15:59:20.968Z</time>
      </trkpt>
      <trkpt lat="28.029087" lon="-15.617345">
        <ele>1604.208000</ele>
        <time>2021-01-01T16:00:18.819Z</time>
      </trkpt>
      <trkpt lat="28.029620" lon="-15.617386">
        <ele>1597.910000</ele>
        <time>2021-01-01T16:01:30.856Z</time>
      </trkpt>
      <trkpt lat="28.029951" lon="-15.617587">
        <ele>1592.054000</ele>
        <time>2021-01-01T16:02:21.708Z</time>
      </trkpt>
      <trkpt lat="28.030007" lon="-15.617597">
        <ele>1591.227000</ele>
        <time>2021-01-01T16:02:29.375Z</time>
      </trkpt>
      <trkpt lat="28.030007" lon="-15.617597">
        <ele>1591.295000</ele>
        <time>2021-01-01T16:02:29.457Z</time>
      </trkpt>
      <trkpt lat="28.030363" lon="-15.617667">
        <ele>1591.564000</ele>
        <time>2021-01-01T16:03:17.909Z</time>
      </trkpt>
      <trkpt lat="28.030484" lon="-15.617745">
        <ele>1592.568000</ele>
        <time>2021-01-01T16:03:36.616Z</time>
      </trkpt>
      <trkpt lat="28.030545" lon="-15.617724">
        <ele>1593.435000</ele>
        <time>2021-01-01T16:03:45.229Z</time>
      </trkpt>
      <trkpt lat="28.030625" lon="-15.617708">
        <ele>1594.172000</ele>
        <time>2021-01-01T16:03:56.158Z</time>
      </trkpt>
      <trkpt lat="28.030749" lon="-15.617739">
        <ele>1594.271000</ele>
        <time>2021-01-01T16:04:13.186Z</time>
      </trkpt>
      <trkpt lat="28.031004" lon="-15.617855">
        <ele>1595.341000</ele>
        <time>2021-01-01T16:04:50.056Z</time>
      </trkpt>
      <trkpt lat="28.031247" lon="-15.618006">
        <ele>1599.615000</ele>
        <time>2021-01-01T16:05:27.576Z</time>
      </trkpt>
      <trkpt lat="28.031502" lon="-15.618110">
        <ele>1603.908000</ele>
        <time>2021-01-01T16:06:04.285Z</time>
      </trkpt>
      <trkpt lat="28.031674" lon="-15.618095">
        <ele>1607.183000</ele>
        <time>2021-01-01T16:06:27.752Z</time>
      </trkpt>
      <trkpt lat="28.031828" lon="-15.618102">
        <ele>1608.857000</ele>
        <time>2021-01-01T16:06:48.517Z</time>
      </trkpt>
      <trkpt lat="28.032147" lon="-15.618159">
        <ele>1610.430000</ele>
        <time>2021-01-01T16:07:31.863Z</time>
      </trkpt>
      <trkpt lat="28.032378" lon="-15.618239">
        <ele>1610.868000</ele>
        <time>2021-01-01T16:08:04.258Z</time>
      </trkpt>
      <trkpt lat="28.032786" lon="-15.618490">
        <ele>1608.497000</ele>
        <time>2021-01-01T16:09:06.579Z</time>
      </trkpt>
      <trkpt lat="28.032908" lon="-15.618526">
        <ele>1609.071000</ele>
        <time>2021-01-01T16:09:23.499Z</time>
      </trkpt>
      <trkpt lat="28.033232" lon="-15.618580">
        <ele>1608.918000</ele>
        <time>2021-01-01T16:10:07.413Z</time>
      </trkpt>
      <trkpt lat="28.033833" lon="-15.618607">
        <ele>1606.885000</ele>
        <time>2021-01-01T16:11:28.103Z</time>
      </trkpt>
      <trkpt lat="28.034306" lon="-15.618589">
        <ele>1605.061000</ele>
        <time>2021-01-01T16:12:31.603Z</time>
      </trkpt>
      <trkpt lat="28.034508" lon="-15.618534">
        <ele>1600.221000</ele>
        <time>2021-01-01T16:13:00.066Z</time>
      </trkpt>
      <trkpt lat="28.034706" lon="-15.618452">
        <ele>1596.413000</ele>
        <time>2021-01-01T16:13:28.705Z</time>
      </trkpt>
      <trkpt lat="28.035023" lon="-15.618473">
        <ele>1592.008000</ele>
        <time>2021-01-01T16:14:11.615Z</time>
      </trkpt>
      <trkpt lat="28.035721" lon="-15.618772">
        <ele>1580.522000</ele>
        <time>2021-01-01T16:15:52.633Z</time>
      </trkpt>
      <trkpt lat="28.035839" lon="-15.618909">
        <ele>1575.316000</ele>
        <time>2021-01-01T16:16:16.143Z</time>
      </trkpt>
      <trkpt lat="28.035908" lon="-15.618939">
        <ele>1572.989000</ele>
        <time>2021-01-01T16:16:26.443Z</time>
      </trkpt>
      <trkpt lat="28.036040" lon="-15.618943">
        <ele>1569.467000</ele>
        <time>2021-01-01T16:16:44.651Z</time>
      </trkpt>
      <trkpt lat="28.036152" lon="-15.618963">
        <ele>1566.726000</ele>
        <time>2021-01-01T16:17:00.210Z</time>
      </trkpt>
      <trkpt lat="28.036309" lon="-15.618961">
        <ele>1564.140000</ele>
        <time>2021-01-01T16:17:21.494Z</time>
      </trkpt>
      <trkpt lat="28.036707" lon="-15.619036">
        <ele>1551.617000</ele>
        <time>2021-01-01T16:18:17.664Z</time>
      </trkpt>
      <trkpt lat="28.036824" lon="-15.619043">
        <ele>1547.564000</ele>
        <time>2021-01-01T16:18:34.118Z</time>
      </trkpt>
      <trkpt lat="28.036904" lon="-15.619070">
        <ele>1543.649000</ele>
        <time>2021-01-01T16:18:46.266Z</time>
      </trkpt>
      <trkpt lat="28.036967" lon="-15.619061">
        <ele>1542.802000</ele>
        <time>2021-01-01T16:18:54.842Z</time>
      </trkpt>
      <trkpt lat="28.037027" lon="-15.619041">
        <ele>1542.500950</ele>
        <time>2021-01-01T16:19:03.267Z</time>
      </trkpt>
      <trkpt lat="28.037049" lon="-15.619044">
        <ele>1542.396870</ele>
        <time>2021-01-01T16:19:06.286Z</time>
      </trkpt>
      <trkpt lat="28.037061" lon="-15.619041">
        <ele>1542.302488</ele>
        <time>2021-01-01T16:19:07.857Z</time>
      </trkpt>
      <trkpt lat="28.037067" lon="-15.619036">
        <ele>1542.222000</ele>
        <time>2021-01-01T16:19:08.955Z</time>
      </trkpt>
      <trkpt lat="28.037095" lon="-15.619034">
        <ele>1537.815167</ele>
        <time>2021-01-01T16:19:15.414Z</time>
      </trkpt>
      <trkpt lat="28.037111" lon="-15.619023">
        <ele>1532.308000</ele>
        <time>2021-01-01T16:19:22.503Z</time>
      </trkpt>
      <trkpt lat="28.037164" lon="-15.619012">
        <ele>1532.730246</ele>
        <time>2021-01-01T16:19:29.782Z</time>
      </trkpt>
      <trkpt lat="28.037255" lon="-15.618953">
        <ele>1533.430000</ele>
        <time>2021-01-01T16:19:43.820Z</time>
      </trkpt>
      <trkpt lat="28.037299" lon="-15.618925">
        <ele>1533.894000</ele>
        <time>2021-01-01T16:19:50.644Z</time>
      </trkpt>
      <trkpt lat="28.037330" lon="-15.618892">
        <ele>1533.957000</ele>
        <time>2021-01-01T16:19:56.405Z</time>
      </trkpt>
      <trkpt lat="28.037348" lon="-15.618872">
        <ele>1534.445000</ele>
        <time>2021-01-01T16:19:59.825Z</time>
      </trkpt>
      <trkpt lat="28.037371" lon="-15.618853">
        <ele>1535.284000</ele>
        <time>2021-01-01T16:20:03.757Z</time>
      </trkpt>
      <trkpt lat="28.037391" lon="-15.618828">
        <ele>1536.668000</ele>
        <time>2021-01-01T16:20:08.033Z</time>
      </trkpt>
      <trkpt lat="28.037432" lon="-15.618778">
        <ele>1536.835000</ele>
        <time>2021-01-01T16:20:16.153Z</time>
      </trkpt>
      <trkpt lat="28.037478" lon="-15.618732">
        <ele>1538.022000</ele>
        <time>2021-01-01T16:20:24.510Z</time>
      </trkpt>
      <trkpt lat="28.037526" lon="-15.618690">
        <ele>1538.552000</ele>
        <time>2021-01-01T16:20:32.752Z</time>
      </trkpt>
      <trkpt lat="28.037573" lon="-15.618669">
        <ele>1539.453000</ele>
        <time>2021-01-01T16:20:39.525Z</time>
      </trkpt>
      <trkpt lat="28.037628" lon="-15.618655">
        <ele>1539.408000</ele>
        <time>2021-01-01T16:20:47.113Z</time>
      </trkpt>
      <trkpt lat="28.037692" lon="-15.618657">
        <ele>1539.308000</ele>
        <time>2021-01-01T16:20:55.667Z</time>
      </trkpt>
      <trkpt lat="28.037754" lon="-15.618650">
        <ele>1539.961000</ele>
        <time>2021-01-01T16:21:04.108Z</time>
      </trkpt>
      <trkpt lat="28.037801" lon="-15.618648">
        <ele>1540.255000</ele>
        <time>2021-01-01T16:21:10.421Z</time>
      </trkpt>
      <trkpt lat="28.037845" lon="-15.618652">
        <ele>1541.238000</ele>
        <time>2021-01-01T16:21:16.398Z</time>
      </trkpt>
      <trkpt lat="28.037899" lon="-15.618647">
        <ele>1541.436000</ele>
        <time>2021-01-01T16:21:23.795Z</time>
      </trkpt>
      <trkpt lat="28.037943" lon="-15.618644">
        <ele>1542.145000</ele>
        <time>2021-01-01T16:21:29.651Z</time>
      </trkpt>
      <trkpt lat="28.037976" lon="-15.618645">
        <ele>1541.839000</ele>
        <time>2021-01-01T16:21:34.167Z</time>
      </trkpt>
      <trkpt lat="28.038025" lon="-15.618645">
        <ele>1542.246000</ele>
        <time>2021-01-01T16:21:40.697Z</time>
      </trkpt>
      <trkpt lat="28.038113" lon="-15.618651">
        <ele>1542.813000</ele>
        <time>2021-01-01T16:21:52.574Z</time>
      </trkpt>
      <trkpt lat="28.038208" lon="-15.618643">
        <ele>1543.172000</ele>
        <time>2021-01-01T16:22:05.329Z</time>
      </trkpt>
      <trkpt lat="28.038271" lon="-15.618635">
        <ele>1543.613000</ele>
        <time>2021-01-01T16:22:13.806Z</time>
      </trkpt>
      <trkpt lat="28.038360" lon="-15.618622">
        <ele>1544.314000</ele>
        <time>2021-01-01T16:22:25.948Z</time>
      </trkpt>
      <trkpt lat="28.038420" lon="-15.618616">
        <ele>1544.308000</ele>
        <time>2021-01-01T16:22:34.003Z</time>
      </trkpt>
      <trkpt lat="28.038512" lon="-15.618605">
        <ele>1544.413000</ele>
        <time>2021-01-01T16:22:46.385Z</time>
      </trkpt>
      <trkpt lat="28.038565" lon="-15.618594">
        <ele>1544.487000</ele>
        <time>2021-01-01T16:22:53.631Z</time>
      </trkpt>
      <trkpt lat="28.038615" lon="-15.618583">
        <ele>1544.380000</ele>
        <time>2021-01-01T16:23:00.461Z</time>
      </trkpt>
      <trkpt lat="28.038664" lon="-15.618560">
        <ele>1544.138000</ele>
        <time>2021-01-01T16:23:07.546Z</time>
      </trkpt>
      <trkpt lat="28.038697" lon="-15.618523">
        <ele>1543.947000</ele>
        <time>2021-01-01T16:23:13.805Z</time>
      </trkpt>
      <trkpt lat="28.038727" lon="-15.618497">
        <ele>1543.771000</ele>
        <time>2021-01-01T16:23:18.895Z</time>
      </trkpt>
      <trkpt lat="28.038749" lon="-15.618521">
        <ele>1544.028000</ele>
        <time>2021-01-01T16:23:22.979Z</time>
      </trkpt>
      <trkpt lat="28.038741" lon="-15.618550">
        <ele>1544.515000</ele>
        <time>2021-01-01T16:23:26.662Z</time>
      </trkpt>
      <trkpt lat="28.038705" lon="-15.618583">
        <ele>1544.861000</ele>
        <time>2021-01-01T16:23:32.906Z</time>
      </trkpt>
      <trkpt lat="28.038680" lon="-15.618607">
        <ele>1544.921000</ele>
        <time>2021-01-01T16:23:37.193Z</time>
      </trkpt>
      <trkpt lat="28.038642" lon="-15.618624">
        <ele>1545.213000</ele>
        <time>2021-01-01T16:23:42.668Z</time>
      </trkpt>
      <trkpt lat="28.038608" lon="-15.618611">
        <ele>1545.208000</ele>
        <time>2021-01-01T16:23:47.501Z</time>
      </trkpt>
      <trkpt lat="28.038517" lon="-15.618630">
        <ele>1545.132000</ele>
        <time>2021-01-01T16:23:59.900Z</time>
      </trkpt>
      <trkpt lat="28.038447" lon="-15.618634">
        <ele>1545.276000</ele>
        <time>2021-01-01T16:24:09.374Z</time>
      </trkpt>
      <trkpt lat="28.038362" lon="-15.618644">
        <ele>1545.239000</ele>
        <time>2021-01-01T16:24:20.748Z</time>
      </trkpt>
      <trkpt lat="28.038224" lon="-15.618658">
        <ele>1545.087000</ele>
        <time>2021-01-01T16:24:39.309Z</time>
      </trkpt>
      <trkpt lat="28.038151" lon="-15.618661">
        <ele>1544.356000</ele>
        <time>2021-01-01T16:24:49.205Z</time>
      </trkpt>
      <trkpt lat="28.038077" lon="-15.618665">
        <ele>1544.180000</ele>
        <time>2021-01-01T16:24:59.109Z</time>
      </trkpt>
      <trkpt lat="28.038026" lon="-15.618659">
        <ele>1543.827000</ele>
        <time>2021-01-01T16:25:06.073Z</time>
      </trkpt>
      <trkpt lat="28.037964" lon="-15.618663">
        <ele>1543.514000</ele>
        <time>2021-01-01T16:25:14.345Z</time>
      </trkpt>
      <trkpt lat="28.037904" lon="-15.618667">
        <ele>1543.124000</ele>
        <time>2021-01-01T16:25:22.437Z</time>
      </trkpt>
      <trkpt lat="28.037853" lon="-15.618666">
        <ele>1542.404000</ele>
        <time>2021-01-01T16:25:29.300Z</time>
      </trkpt>
      <trkpt lat="28.037789" lon="-15.618665">
        <ele>1541.814000</ele>
        <time>2021-01-01T16:25:37.922Z</time>
      </trkpt>
      <trkpt lat="28.037723" lon="-15.618675">
        <ele>1541.008000</ele>
        <time>2021-01-01T16:25:46.949Z</time>
      </trkpt>
      <trkpt lat="28.037636" lon="-15.618685">
        <ele>1540.678000</ele>
        <time>2021-01-01T16:25:58.666Z</time>
      </trkpt>
      <trkpt lat="28.037587" lon="-15.618712">
        <ele>1539.412000</ele>
        <time>2021-01-01T16:26:06.188Z</time>
      </trkpt>
      <trkpt lat="28.037541" lon="-15.618739">
        <ele>1538.535000</ele>
        <time>2021-01-01T16:26:13.139Z</time>
      </trkpt>
      <trkpt lat="28.037491" lon="-15.618782">
        <ele>1538.323000</ele>
        <time>2021-01-01T16:26:21.567Z</time>
      </trkpt>
      <trkpt lat="28.037443" lon="-15.618840">
        <ele>1538.632000</ele>
        <time>2021-01-01T16:26:30.997Z</time>
      </trkpt>
      <trkpt lat="28.037321" lon="-15.618931">
        <ele>1536.056000</ele>
        <time>2021-01-01T16:26:50.811Z</time>
      </trkpt>
      <trkpt lat="28.037262" lon="-15.618969">
        <ele>1535.243000</ele>
        <time>2021-01-01T16:26:59.932Z</time>
      </trkpt>
      <trkpt lat="28.037224" lon="-15.618994">
        <ele>1535.080000</ele>
        <time>2021-01-01T16:27:05.919Z</time>
      </trkpt>
      <trkpt lat="28.037202" lon="-15.619015">
        <ele>1534.554000</ele>
        <time>2021-01-01T16:27:09.762Z</time>
      </trkpt>
      <trkpt lat="28.037178" lon="-15.619028">
        <ele>1534.459380</ele>
        <time>2021-01-01T16:27:13.383Z</time>
      </trkpt>
      <trkpt lat="28.037160" lon="-15.619050">
        <ele>1534.156000</ele>
        <time>2021-01-01T16:27:16.859Z</time>
      </trkpt>
      <trkpt lat="28.037144" lon="-15.619069">
        <ele>1533.611000</ele>
        <time>2021-01-01T16:27:20.116Z</time>
      </trkpt>
      <trkpt lat="28.037132" lon="-15.619086">
        <ele>1533.208000</ele>
        <time>2021-01-01T16:27:22.707Z</time>
      </trkpt>
      <trkpt lat="28.037199" lon="-15.619095">
        <ele>1530.611000</ele>
        <time>2021-01-01T16:27:32.313Z</time>
      </trkpt>
      <trkpt lat="28.037214" lon="-15.619101">
        <ele>1530.225000</ele>
        <time>2021-01-01T16:27:34.496Z</time>
      </trkpt>
      <trkpt lat="28.037234" lon="-15.619110">
        <ele>1529.618000</ele>
        <time>2021-01-01T16:27:37.473Z</time>
      </trkpt>
      <trkpt lat="28.037239" lon="-15.619113">
        <ele>1529.416000</ele>
        <time>2021-01-01T16:27:38.270Z</time>
      </trkpt>
      <trkpt lat="28.037251" lon="-15.619123">
        <ele>1528.975000</ele>
        <time>2021-01-01T16:27:40.337Z</time>
      </trkpt>
      <trkpt lat="28.037257" lon="-15.619123">
        <ele>1528.749000</ele>
        <time>2021-01-01T16:27:41.186Z</time>
      </trkpt>
      <trkpt lat="28.037278" lon="-15.619118">
        <ele>1528.376000</ele>
        <time>2021-01-01T16:27:44.099Z</time>
      </trkpt>
      <trkpt lat="28.037305" lon="-15.619128">
        <ele>1527.343000</ele>
        <time>2021-01-01T16:27:48.106Z</time>
      </trkpt>
      <trkpt lat="28.037324" lon="-15.619145">
        <ele>1526.236000</ele>
        <time>2021-01-01T16:27:51.616Z</time>
      </trkpt>
      <trkpt lat="28.037338" lon="-15.619155">
        <ele>1525.517000</ele>
        <time>2021-01-01T16:27:53.999Z</time>
      </trkpt>
      <trkpt lat="28.037395" lon="-15.619167">
        <ele>1523.718000</ele>
        <time>2021-01-01T16:28:02.070Z</time>
      </trkpt>
      <trkpt lat="28.037403" lon="-15.619164">
        <ele>1523.608000</ele>
        <time>2021-01-01T16:28:03.208Z</time>
      </trkpt>
      <trkpt lat="28.037440" lon="-15.619157">
        <ele>1523.099000</ele>
        <time>2021-01-01T16:28:08.275Z</time>
      </trkpt>
      <trkpt lat="28.037451" lon="-15.619155">
        <ele>1522.853000</ele>
        <time>2021-01-01T16:28:09.798Z</time>
      </trkpt>
      <trkpt lat="28.037476" lon="-15.619154">
        <ele>1522.246000</ele>
        <time>2021-01-01T16:28:13.232Z</time>
      </trkpt>
      <trkpt lat="28.037502" lon="-15.619149">
        <ele>1521.864000</ele>
        <time>2021-01-01T16:28:16.798Z</time>
      </trkpt>
      <trkpt lat="28.037580" lon="-15.619134">
        <ele>1520.473000</ele>
        <time>2021-01-01T16:28:27.539Z</time>
      </trkpt>
      <trkpt lat="28.037592" lon="-15.619131">
        <ele>1520.167000</ele>
        <time>2021-01-01T16:28:29.227Z</time>
      </trkpt>
      <trkpt lat="28.037623" lon="-15.619118">
        <ele>1519.984000</ele>
        <time>2021-01-01T16:28:33.665Z</time>
      </trkpt>
      <trkpt lat="28.037647" lon="-15.619114">
        <ele>1519.531000</ele>
        <time>2021-01-01T16:28:36.964Z</time>
      </trkpt>
      <trkpt lat="28.037661" lon="-15.619111">
        <ele>1519.354000</ele>
        <time>2021-01-01T16:28:38.886Z</time>
      </trkpt>
      <trkpt lat="28.037670" lon="-15.619106">
        <ele>1519.356000</ele>
        <time>2021-01-01T16:28:40.230Z</time>
      </trkpt>
      <trkpt lat="28.037680" lon="-15.619085">
        <ele>1520.011000</ele>
        <time>2021-01-01T16:28:43.163Z</time>
      </trkpt>
      <trkpt lat="28.037691" lon="-15.619062">
        <ele>1520.808000</ele>
        <time>2021-01-01T16:28:46.405Z</time>
      </trkpt>
      <trkpt lat="28.037754" lon="-15.619105">
        <ele>1518.571000</ele>
        <time>2021-01-01T16:28:56.629Z</time>
      </trkpt>
      <trkpt lat="28.037790" lon="-15.619134">
        <ele>1517.155000</ele>
        <time>2021-01-01T16:29:02.794Z</time>
      </trkpt>
      <trkpt lat="28.037838" lon="-15.619176">
        <ele>1515.038000</ele>
        <time>2021-01-01T16:29:11.317Z</time>
      </trkpt>
      <trkpt lat="28.037852" lon="-15.619186">
        <ele>1514.536000</ele>
        <time>2021-01-01T16:29:13.618Z</time>
      </trkpt>
      <trkpt lat="28.037891" lon="-15.619222">
        <ele>1512.565000</ele>
        <time>2021-01-01T16:29:20.770Z</time>
      </trkpt>
      <trkpt lat="28.037905" lon="-15.619232">
        <ele>1511.919000</ele>
        <time>2021-01-01T16:29:23.122Z</time>
      </trkpt>
      <trkpt lat="28.037973" lon="-15.619265">
        <ele>1510.296000</ele>
        <time>2021-01-01T16:29:33.233Z</time>
      </trkpt>
      <trkpt lat="28.037990" lon="-15.619269">
        <ele>1510.153000</ele>
        <time>2021-01-01T16:29:35.567Z</time>
      </trkpt>
      <trkpt lat="28.038021" lon="-15.619305">
        <ele>1508.542000</ele>
        <time>2021-01-01T16:29:41.829Z</time>
      </trkpt>
      <trkpt lat="28.038030" lon="-15.619316">
        <ele>1508.022000</ele>
        <time>2021-01-01T16:29:43.712Z</time>
      </trkpt>
      <trkpt lat="28.038040" lon="-15.619328">
        <ele>1507.514000</ele>
        <time>2021-01-01T16:29:45.759Z</time>
      </trkpt>
      <trkpt lat="28.038054" lon="-15.619341">
        <ele>1507.008000</ele>
        <time>2021-01-01T16:29:48.262Z</time>
      </trkpt>
      <trkpt lat="28.038067" lon="-15.619351">
        <ele>1506.640000</ele>
        <time>2021-01-01T16:29:50.415Z</time>
      </trkpt>
      <trkpt lat="28.038107" lon="-15.619396">
        <ele>1504.874000</ele>
        <time>2021-01-01T16:29:58.268Z</time>
      </trkpt>
      <trkpt lat="28.038100" lon="-15.619412">
        <ele>1504.097000</ele>
        <time>2021-01-01T16:30:00.580Z</time>
      </trkpt>
      <trkpt lat="28.038153" lon="-15.619422">
        <ele>1503.915000</ele>
        <time>2021-01-01T16:30:07.788Z</time>
      </trkpt>
      <trkpt lat="28.038184" lon="-15.619435">
        <ele>1503.644000</ele>
        <time>2021-01-01T16:30:12.233Z</time>
      </trkpt>
      <trkpt lat="28.038191" lon="-15.619442">
        <ele>1503.488000</ele>
        <time>2021-01-01T16:30:13.499Z</time>
      </trkpt>
      <trkpt lat="28.038205" lon="-15.619458">
        <ele>1502.855000</ele>
        <time>2021-01-01T16:30:16.272Z</time>
      </trkpt>
      <trkpt lat="28.038211" lon="-15.619470">
        <ele>1502.392000</ele>
        <time>2021-01-01T16:30:17.997Z</time>
      </trkpt>
      <trkpt lat="28.038217" lon="-15.619506">
        <ele>1500.761000</ele>
        <time>2021-01-01T16:30:22.759Z</time>
      </trkpt>
      <trkpt lat="28.038221" lon="-15.619515">
        <ele>1500.321000</ele>
        <time>2021-01-01T16:30:24.064Z</time>
      </trkpt>
      <trkpt lat="28.038223" lon="-15.619523">
        <ele>1500.013000</ele>
        <time>2021-01-01T16:30:25.116Z</time>
      </trkpt>
      <trkpt lat="28.038261" lon="-15.619531">
        <ele>1500.208000</ele>
        <time>2021-01-01T16:30:30.304Z</time>
      </trkpt>
      <trkpt lat="28.038268" lon="-15.619523">
        <ele>1500.722000</ele>
        <time>2021-01-01T16:30:31.774Z</time>
      </trkpt>
      <trkpt lat="28.038291" lon="-15.619538">
        <ele>1500.466000</ele>
        <time>2021-01-01T16:30:35.346Z</time>
      </trkpt>
      <trkpt lat="28.038320" lon="-15.619579">
        <ele>1498.989000</ele>
        <time>2021-01-01T16:30:41.815Z</time>
      </trkpt>
      <trkpt lat="28.038324" lon="-15.619592">
        <ele>1498.457000</ele>
        <time>2021-01-01T16:30:43.566Z</time>
      </trkpt>
      <trkpt lat="28.038330" lon="-15.619592">
        <ele>1498.586000</ele>
        <time>2021-01-01T16:30:44.385Z</time>
      </trkpt>
      <trkpt lat="28.038350" lon="-15.619586">
        <ele>1499.180000</ele>
        <time>2021-01-01T16:30:47.251Z</time>
      </trkpt>
      <trkpt lat="28.038411" lon="-15.619636">
        <ele>1497.597000</ele>
        <time>2021-01-01T16:30:57.525Z</time>
      </trkpt>
      <trkpt lat="28.038424" lon="-15.619639">
        <ele>1497.534000</ele>
        <time>2021-01-01T16:30:59.306Z</time>
      </trkpt>
      <trkpt lat="28.038441" lon="-15.619648">
        <ele>1497.293000</ele>
        <time>2021-01-01T16:31:01.839Z</time>
      </trkpt>
      <trkpt lat="28.038455" lon="-15.619679">
        <ele>1495.965000</ele>
        <time>2021-01-01T16:31:06.260Z</time>
      </trkpt>
      <trkpt lat="28.038462" lon="-15.619697">
        <ele>1495.121000</ele>
        <time>2021-01-01T16:31:08.801Z</time>
      </trkpt>
      <trkpt lat="28.038477" lon="-15.619737">
        <ele>1493.508000</ele>
        <time>2021-01-01T16:31:14.300Z</time>
      </trkpt>
      <trkpt lat="28.038497" lon="-15.619764">
        <ele>1492.545000</ele>
        <time>2021-01-01T16:31:18.631Z</time>
      </trkpt>
      <trkpt lat="28.038525" lon="-15.619783">
        <ele>1492.029000</ele>
        <time>2021-01-01T16:31:23.051Z</time>
      </trkpt>
      <trkpt lat="28.038559" lon="-15.619803">
        <ele>1491.612000</ele>
        <time>2021-01-01T16:31:28.213Z</time>
      </trkpt>
      <trkpt lat="28.038576" lon="-15.619837">
        <ele>1490.490000</ele>
        <time>2021-01-01T16:31:33.032Z</time>
      </trkpt>
      <trkpt lat="28.038582" lon="-15.619850">
        <ele>1489.929000</ele>
        <time>2021-01-01T16:31:34.895Z</time>
      </trkpt>
      <trkpt lat="28.038602" lon="-15.619871">
        <ele>1489.393000</ele>
        <time>2021-01-01T16:31:38.608Z</time>
      </trkpt>
      <trkpt lat="28.038629" lon="-15.619912">
        <ele>1488.020000</ele>
        <time>2021-01-01T16:31:44.885Z</time>
      </trkpt>
      <trkpt lat="28.038639" lon="-15.619926">
        <ele>1487.437000</ele>
        <time>2021-01-01T16:31:47.130Z</time>
      </trkpt>
      <trkpt lat="28.038653" lon="-15.619935">
        <ele>1487.094000</ele>
        <time>2021-01-01T16:31:49.327Z</time>
      </trkpt>
      <trkpt lat="28.038677" lon="-15.619964">
        <ele>1485.857000</ele>
        <time>2021-01-01T16:31:54.263Z</time>
      </trkpt>
      <trkpt lat="28.038688" lon="-15.619971">
        <ele>1485.622000</ele>
        <time>2021-01-01T16:31:55.978Z</time>
      </trkpt>
      <trkpt lat="28.038712" lon="-15.619989">
        <ele>1484.808000</ele>
        <time>2021-01-01T16:31:59.961Z</time>
      </trkpt>
      <trkpt lat="28.038733" lon="-15.620031">
        <ele>1483.175000</ele>
        <time>2021-01-01T16:32:06.004Z</time>
      </trkpt>
      <trkpt lat="28.038738" lon="-15.620038">
        <ele>1482.869000</ele>
        <time>2021-01-01T16:32:07.132Z</time>
      </trkpt>
      <trkpt lat="28.038733" lon="-15.620044">
        <ele>1482.552000</ele>
        <time>2021-01-01T16:32:08.180Z</time>
      </trkpt>
      <trkpt lat="28.038707" lon="-15.620046">
        <ele>1482.520000</ele>
        <time>2021-01-01T16:32:11.675Z</time>
      </trkpt>
      <trkpt lat="28.038714" lon="-15.620068">
        <ele>1481.669000</ele>
        <time>2021-01-01T16:32:14.627Z</time>
      </trkpt>
      <trkpt lat="28.038702" lon="-15.620057">
        <ele>1482.053000</ele>
        <time>2021-01-01T16:32:16.748Z</time>
      </trkpt>
      <trkpt lat="28.038657" lon="-15.620030">
        <ele>1483.110000</ele>
        <time>2021-01-01T16:32:23.694Z</time>
      </trkpt>
      <trkpt lat="28.038629" lon="-15.620019">
        <ele>1483.687000</ele>
        <time>2021-01-01T16:32:27.728Z</time>
      </trkpt>
      <trkpt lat="28.038589" lon="-15.620007">
        <ele>1483.518000</ele>
        <time>2021-01-01T16:32:33.281Z</time>
      </trkpt>
      <trkpt lat="28.038572" lon="-15.620001">
        <ele>1483.598000</ele>
        <time>2021-01-01T16:32:35.670Z</time>
      </trkpt>
      <trkpt lat="28.038577" lon="-15.620023">
        <ele>1482.717000</ele>
        <time>2021-01-01T16:32:38.561Z</time>
      </trkpt>
      <trkpt lat="28.038618" lon="-15.620096">
        <ele>1480.208000</ele>
        <time>2021-01-01T16:32:49.240Z</time>
      </trkpt>
      <trkpt lat="28.038640" lon="-15.620137">
        <ele>1478.567000</ele>
        <time>2021-01-01T16:32:55.254Z</time>
      </trkpt>
      <trkpt lat="28.038693" lon="-15.620177">
        <ele>1477.031000</ele>
        <time>2021-01-01T16:33:03.991Z</time>
      </trkpt>
      <trkpt lat="28.038707" lon="-15.620181">
        <ele>1476.814000</ele>
        <time>2021-01-01T16:33:05.945Z</time>
      </trkpt>
      <trkpt lat="28.038713" lon="-15.620193">
        <ele>1476.322000</ele>
        <time>2021-01-01T16:33:07.682Z</time>
      </trkpt>
      <trkpt lat="28.038722" lon="-15.620209">
        <ele>1475.711000</ele>
        <time>2021-01-01T16:33:10.045Z</time>
      </trkpt>
      <trkpt lat="28.038745" lon="-15.620216">
        <ele>1475.545000</ele>
        <time>2021-01-01T16:33:13.245Z</time>
      </trkpt>
      <trkpt lat="28.038754" lon="-15.620215">
        <ele>1475.692000</ele>
        <time>2021-01-01T16:33:14.471Z</time>
      </trkpt>
      <trkpt lat="28.038835" lon="-15.620298">
        <ele>1472.789000</ele>
        <time>2021-01-01T16:33:29.528Z</time>
      </trkpt>
      <trkpt lat="28.038824" lon="-15.620306">
        <ele>1472.473000</ele>
        <time>2021-01-01T16:33:31.322Z</time>
      </trkpt>
      <trkpt lat="28.038787" lon="-15.620380">
        <ele>1469.485000</ele>
        <time>2021-01-01T16:33:42.013Z</time>
      </trkpt>
      <trkpt lat="28.038794" lon="-15.620387">
        <ele>1469.213000</ele>
        <time>2021-01-01T16:33:43.307Z</time>
      </trkpt>
      <trkpt lat="28.038879" lon="-15.620467">
        <ele>1466.608000</ele>
        <time>2021-01-01T16:33:58.454Z</time>
      </trkpt>
      <trkpt lat="28.038882" lon="-15.620523">
        <ele>1464.753000</ele>
        <time>2021-01-01T16:34:05.461Z</time>
      </trkpt>
      <trkpt lat="28.038920" lon="-15.620560">
        <ele>1463.277000</ele>
        <time>2021-01-01T16:34:12.411Z</time>
      </trkpt>
      <trkpt lat="28.038928" lon="-15.620570">
        <ele>1462.880000</ele>
        <time>2021-01-01T16:34:14.079Z</time>
      </trkpt>
      <trkpt lat="28.038943" lon="-15.620587">
        <ele>1462.248000</ele>
        <time>2021-01-01T16:34:17.024Z</time>
      </trkpt>
      <trkpt lat="28.038961" lon="-15.620597">
        <ele>1461.917000</ele>
        <time>2021-01-01T16:34:19.742Z</time>
      </trkpt>
      <trkpt lat="28.038985" lon="-15.620624">
        <ele>1461.061000</ele>
        <time>2021-01-01T16:34:24.393Z</time>
      </trkpt>
      <trkpt lat="28.038998" lon="-15.620658">
        <ele>1460.048000</ele>
        <time>2021-01-01T16:34:28.946Z</time>
      </trkpt>
      <trkpt lat="28.038916" lon="-15.620675">
        <ele>1459.625000</ele>
        <time>2021-01-01T16:34:40.135Z</time>
      </trkpt>
      <trkpt lat="28.038911" lon="-15.620672">
        <ele>1459.711000</ele>
        <time>2021-01-01T16:34:40.901Z</time>
      </trkpt>
      <trkpt lat="28.038865" lon="-15.620660">
        <ele>1460.221000</ele>
        <time>2021-01-01T16:34:47.261Z</time>
      </trkpt>
      <trkpt lat="28.038855" lon="-15.620654">
        <ele>1460.403000</ele>
        <time>2021-01-01T16:34:48.794Z</time>
      </trkpt>
      <trkpt lat="28.038817" lon="-15.620644">
        <ele>1460.108000</ele>
        <time>2021-01-01T16:34:54.037Z</time>
      </trkpt>
      <trkpt lat="28.038806" lon="-15.620638">
        <ele>1460.217000</ele>
        <time>2021-01-01T16:34:55.679Z</time>
      </trkpt>
      <trkpt lat="28.038765" lon="-15.620627">
        <ele>1460.011000</ele>
        <time>2021-01-01T16:35:01.335Z</time>
      </trkpt>
      <trkpt lat="28.038731" lon="-15.620636">
        <ele>1459.144000</ele>
        <time>2021-01-01T16:35:06.132Z</time>
      </trkpt>
      <trkpt lat="28.038704" lon="-15.620638">
        <ele>1458.742000</ele>
        <time>2021-01-01T16:35:09.792Z</time>
      </trkpt>
      <trkpt lat="28.038688" lon="-15.620637">
        <ele>1458.541000</ele>
        <time>2021-01-01T16:35:11.955Z</time>
      </trkpt>
      <trkpt lat="28.038675" lon="-15.620634">
        <ele>1458.425000</ele>
        <time>2021-01-01T16:35:13.739Z</time>
      </trkpt>
      <trkpt lat="28.038571" lon="-15.620577">
        <ele>1459.442000</ele>
        <time>2021-01-01T16:35:29.279Z</time>
      </trkpt>
      <trkpt lat="28.038564" lon="-15.620572">
        <ele>1459.679000</ele>
        <time>2021-01-01T16:35:30.425Z</time>
      </trkpt>
      <trkpt lat="28.038554" lon="-15.620566">
        <ele>1459.792000</ele>
        <time>2021-01-01T16:35:31.949Z</time>
      </trkpt>
      <trkpt lat="28.038533" lon="-15.620576">
        <ele>1459.173000</ele>
        <time>2021-01-01T16:35:35.093Z</time>
      </trkpt>
      <trkpt lat="28.038512" lon="-15.620609">
        <ele>1457.720000</ele>
        <time>2021-01-01T16:35:40.217Z</time>
      </trkpt>
      <trkpt lat="28.038503" lon="-15.620621">
        <ele>1457.108000</ele>
        <time>2021-01-01T16:35:42.222Z</time>
      </trkpt>
      <trkpt lat="28.038503" lon="-15.620653">
        <ele>1455.975000</ele>
        <time>2021-01-01T16:35:46.248Z</time>
      </trkpt>
      <trkpt lat="28.038476" lon="-15.620661">
        <ele>1455.369000</ele>
        <time>2021-01-01T16:35:50.061Z</time>
      </trkpt>
      <trkpt lat="28.038418" lon="-15.620677">
        <ele>1454.252000</ele>
        <time>2021-01-01T16:35:58.178Z</time>
      </trkpt>
      <trkpt lat="28.038398" lon="-15.620694">
        <ele>1453.490000</ele>
        <time>2021-01-01T16:36:01.654Z</time>
      </trkpt>
      <trkpt lat="28.038372" lon="-15.620729">
        <ele>1452.269000</ele>
        <time>2021-01-01T16:36:07.265Z</time>
      </trkpt>
      <trkpt lat="28.038367" lon="-15.620753">
        <ele>1451.593000</ele>
        <time>2021-01-01T16:36:10.296Z</time>
      </trkpt>
      <trkpt lat="28.038366" lon="-15.620770">
        <ele>1450.980000</ele>
        <time>2021-01-01T16:36:12.443Z</time>
      </trkpt>
      <trkpt lat="28.038389" lon="-15.620830">
        <ele>1448.827000</ele>
        <time>2021-01-01T16:36:20.609Z</time>
      </trkpt>
      <trkpt lat="28.038395" lon="-15.620845">
        <ele>1448.368000</ele>
        <time>2021-01-01T16:36:22.635Z</time>
      </trkpt>
      <trkpt lat="28.038427" lon="-15.620887">
        <ele>1447.142000</ele>
        <time>2021-01-01T16:36:29.367Z</time>
      </trkpt>
      <trkpt lat="28.038456" lon="-15.620912">
        <ele>1446.426000</ele>
        <time>2021-01-01T16:36:34.329Z</time>
      </trkpt>
      <trkpt lat="28.038474" lon="-15.620956">
        <ele>1445.008000</ele>
        <time>2021-01-01T16:36:40.318Z</time>
      </trkpt>
      <trkpt lat="28.038469" lon="-15.620966">
        <ele>1444.632000</ele>
        <time>2021-01-01T16:36:41.752Z</time>
      </trkpt>
      <trkpt lat="28.038461" lon="-15.620979">
        <ele>1444.256000</ele>
        <time>2021-01-01T16:36:43.681Z</time>
      </trkpt>
      <trkpt lat="28.038455" lon="-15.620982">
        <ele>1444.169000</ele>
        <time>2021-01-01T16:36:44.567Z</time>
      </trkpt>
      <trkpt lat="28.038431" lon="-15.620996">
        <ele>1443.537000</ele>
        <time>2021-01-01T16:36:48.266Z</time>
      </trkpt>
      <trkpt lat="28.038411" lon="-15.621018">
        <ele>1442.736000</ele>
        <time>2021-01-01T16:36:52.127Z</time>
      </trkpt>
      <trkpt lat="28.038414" lon="-15.621054">
        <ele>1441.520000</ele>
        <time>2021-01-01T16:36:56.651Z</time>
      </trkpt>
      <trkpt lat="28.038415" lon="-15.621089">
        <ele>1440.227000</ele>
        <time>2021-01-01T16:37:01.079Z</time>
      </trkpt>
      <trkpt lat="28.038417" lon="-15.621099">
        <ele>1439.934000</ele>
        <time>2021-01-01T16:37:02.343Z</time>
      </trkpt>
      <trkpt lat="28.038410" lon="-15.621168">
        <ele>1437.572000</ele>
        <time>2021-01-01T16:37:11.043Z</time>
      </trkpt>
      <trkpt lat="28.038446" lon="-15.621176">
        <ele>1437.213000</ele>
        <time>2021-01-01T16:37:15.981Z</time>
      </trkpt>
      <trkpt lat="28.038471" lon="-15.621165">
        <ele>1437.614000</ele>
        <time>2021-01-01T16:37:19.610Z</time>
      </trkpt>
      <trkpt lat="28.038466" lon="-15.621183">
        <ele>1436.908000</ele>
        <time>2021-01-01T16:37:22Z</time>
      </trkpt>
      <trkpt lat="28.038458" lon="-15.621192">
        <ele>1436.673000</ele>
        <time>2021-01-01T16:37:23.538Z</time>
      </trkpt>
      <trkpt lat="28.038428" lon="-15.621207">
        <ele>1436.267000</ele>
        <time>2021-01-01T16:37:27.962Z</time>
      </trkpt>
      <trkpt lat="28.038416" lon="-15.621213">
        <ele>1436.190000</ele>
        <time>2021-01-01T16:37:29.723Z</time>
      </trkpt>
      <trkpt lat="28.038392" lon="-15.621216">
        <ele>1436.128000</ele>
        <time>2021-01-01T16:37:32.962Z</time>
      </trkpt>
      <trkpt lat="28.038374" lon="-15.621209">
        <ele>1436.777000</ele>
        <time>2021-01-01T16:37:35.631Z</time>
      </trkpt>
      <trkpt lat="28.038361" lon="-15.621203">
        <ele>1437.141000</ele>
        <time>2021-01-01T16:37:37.564Z</time>
      </trkpt>
      <trkpt lat="28.038357" lon="-15.621201">
        <ele>1437.358000</ele>
        <time>2021-01-01T16:37:38.206Z</time>
      </trkpt>
      <trkpt lat="28.038347" lon="-15.621218">
        <ele>1437.135000</ele>
        <time>2021-01-01T16:37:40.639Z</time>
      </trkpt>
      <trkpt lat="28.038374" lon="-15.621239">
        <ele>1435.962000</ele>
        <time>2021-01-01T16:37:45.253Z</time>
      </trkpt>
      <trkpt lat="28.038385" lon="-15.621257">
        <ele>1435.383000</ele>
        <time>2021-01-01T16:37:47.936Z</time>
      </trkpt>
      <trkpt lat="28.038418" lon="-15.621317">
        <ele>1433.311000</ele>
        <time>2021-01-01T16:37:56.668Z</time>
      </trkpt>
      <trkpt lat="28.038434" lon="-15.621333">
        <ele>1432.808000</ele>
        <time>2021-01-01T16:37:59.594Z</time>
      </trkpt>
      <trkpt lat="28.038464" lon="-15.621356">
        <ele>1431.962000</ele>
        <time>2021-01-01T16:38:04.557Z</time>
      </trkpt>
      <trkpt lat="28.038486" lon="-15.621369">
        <ele>1431.356000</ele>
        <time>2021-01-01T16:38:07.963Z</time>
      </trkpt>
      <trkpt lat="28.038503" lon="-15.621408">
        <ele>1430.069000</ele>
        <time>2021-01-01T16:38:13.340Z</time>
      </trkpt>
      <trkpt lat="28.038515" lon="-15.621411">
        <ele>1429.837000</ele>
        <time>2021-01-01T16:38:15.012Z</time>
      </trkpt>
      <trkpt lat="28.038518" lon="-15.621410">
        <ele>1429.886000</ele>
        <time>2021-01-01T16:38:15.435Z</time>
      </trkpt>
      <trkpt lat="28.038539" lon="-15.621421">
        <ele>1429.220000</ele>
        <time>2021-01-01T16:38:18.640Z</time>
      </trkpt>
      <trkpt lat="28.038557" lon="-15.621429">
        <ele>1428.827000</ele>
        <time>2021-01-01T16:38:21.276Z</time>
      </trkpt>
      <trkpt lat="28.038566" lon="-15.621436">
        <ele>1428.544000</ele>
        <time>2021-01-01T16:38:22.779Z</time>
      </trkpt>
      <trkpt lat="28.038573" lon="-15.621440">
        <ele>1428.327000</ele>
        <time>2021-01-01T16:38:23.862Z</time>
      </trkpt>
      <trkpt lat="28.038578" lon="-15.621445">
        <ele>1428.168000</ele>
        <time>2021-01-01T16:38:24.777Z</time>
      </trkpt>
      <trkpt lat="28.038583" lon="-15.621450">
        <ele>1427.914000</ele>
        <time>2021-01-01T16:38:25.722Z</time>
      </trkpt>
      <trkpt lat="28.038588" lon="-15.621461">
        <ele>1427.608000</ele>
        <time>2021-01-01T16:38:27.232Z</time>
      </trkpt>
      <trkpt lat="28.038592" lon="-15.621501">
        <ele>1426.538000</ele>
        <time>2021-01-01T16:38:32.168Z</time>
      </trkpt>
      <trkpt lat="28.038581" lon="-15.621546">
        <ele>1425.652000</ele>
        <time>2021-01-01T16:38:37.797Z</time>
      </trkpt>
      <trkpt lat="28.038568" lon="-15.621588">
        <ele>1424.925000</ele>
        <time>2021-01-01T16:38:43.137Z</time>
      </trkpt>
      <trkpt lat="28.038565" lon="-15.621658">
        <ele>1423.373000</ele>
        <time>2021-01-01T16:38:51.640Z</time>
      </trkpt>
      <trkpt lat="28.038576" lon="-15.621688">
        <ele>1423.082000</ele>
        <time>2021-01-01T16:38:55.501Z</time>
      </trkpt>
      <trkpt lat="28.038575" lon="-15.621705">
        <ele>1423.116000</ele>
        <time>2021-01-01T16:38:57.518Z</time>
      </trkpt>
      <trkpt lat="28.038575" lon="-15.621714">
        <ele>1423.143000</ele>
        <time>2021-01-01T16:38:58.584Z</time>
      </trkpt>
      <trkpt lat="28.038576" lon="-15.621727">
        <ele>1423.150000</ele>
        <time>2021-01-01T16:39:00.128Z</time>
      </trkpt>
      <trkpt lat="28.038593" lon="-15.621741">
        <ele>1422.637000</ele>
        <time>2021-01-01T16:39:03.013Z</time>
      </trkpt>
      <trkpt lat="28.038612" lon="-15.621752">
        <ele>1422.049000</ele>
        <time>2021-01-01T16:39:05.961Z</time>
      </trkpt>
      <trkpt lat="28.038676" lon="-15.621748">
        <ele>1420.713000</ele>
        <time>2021-01-01T16:39:14.706Z</time>
      </trkpt>
      <trkpt lat="28.038696" lon="-15.621753">
        <ele>1420.308000</ele>
        <time>2021-01-01T16:39:17.495Z</time>
      </trkpt>
      <trkpt lat="28.038709" lon="-15.621755">
        <ele>1420.049000</ele>
        <time>2021-01-01T16:39:19.282Z</time>
      </trkpt>
      <trkpt lat="28.038760" lon="-15.621775">
        <ele>1418.833000</ele>
        <time>2021-01-01T16:39:26.666Z</time>
      </trkpt>
      <trkpt lat="28.038778" lon="-15.621789">
        <ele>1418.286000</ele>
        <time>2021-01-01T16:39:29.667Z</time>
      </trkpt>
      <trkpt lat="28.038787" lon="-15.621798">
        <ele>1417.964000</ele>
        <time>2021-01-01T16:39:31.323Z</time>
      </trkpt>
      <trkpt lat="28.038809" lon="-15.621830">
        <ele>1416.833000</ele>
        <time>2021-01-01T16:39:36.313Z</time>
      </trkpt>
      <trkpt lat="28.038814" lon="-15.621837">
        <ele>1416.687000</ele>
        <time>2021-01-01T16:39:37.394Z</time>
      </trkpt>
      <trkpt lat="28.038837" lon="-15.621837">
        <ele>1415.944000</ele>
        <time>2021-01-01T16:39:40.605Z</time>
      </trkpt>
      <trkpt lat="28.038856" lon="-15.621834">
        <ele>1415.531000</ele>
        <time>2021-01-01T16:39:43.225Z</time>
      </trkpt>
      <trkpt lat="28.038864" lon="-15.621835">
        <ele>1415.342000</ele>
        <time>2021-01-01T16:39:44.328Z</time>
      </trkpt>
      <trkpt lat="28.038886" lon="-15.621845">
        <ele>1414.522000</ele>
        <time>2021-01-01T16:39:47.657Z</time>
      </trkpt>
      <trkpt lat="28.038914" lon="-15.621858">
        <ele>1413.514000</ele>
        <time>2021-01-01T16:39:51.893Z</time>
      </trkpt>
      <trkpt lat="28.038929" lon="-15.621866">
        <ele>1413.008000</ele>
        <time>2021-01-01T16:39:54.198Z</time>
      </trkpt>
      <trkpt lat="28.038940" lon="-15.621870">
        <ele>1412.660000</ele>
        <time>2021-01-01T16:39:55.803Z</time>
      </trkpt>
      <trkpt lat="28.038952" lon="-15.621873">
        <ele>1412.324000</ele>
        <time>2021-01-01T16:39:57.500Z</time>
      </trkpt>
      <trkpt lat="28.038978" lon="-15.621880">
        <ele>1411.437000</ele>
        <time>2021-01-01T16:40:01.240Z</time>
      </trkpt>
      <trkpt lat="28.039010" lon="-15.621893">
        <ele>1410.385000</ele>
        <time>2021-01-01T16:40:05.972Z</time>
      </trkpt>
      <trkpt lat="28.039017" lon="-15.621890">
        <ele>1410.264000</ele>
        <time>2021-01-01T16:40:06.986Z</time>
      </trkpt>
      <trkpt lat="28.039038" lon="-15.621883">
        <ele>1409.968000</ele>
        <time>2021-01-01T16:40:09.943Z</time>
      </trkpt>
      <trkpt lat="28.039048" lon="-15.621877">
        <ele>1409.825000</ele>
        <time>2021-01-01T16:40:11.470Z</time>
      </trkpt>
      <trkpt lat="28.039062" lon="-15.621870">
        <ele>1409.732000</ele>
        <time>2021-01-01T16:40:13.525Z</time>
      </trkpt>
      <trkpt lat="28.039091" lon="-15.621886">
        <ele>1408.467000</ele>
        <time>2021-01-01T16:40:18.111Z</time>
      </trkpt>
      <trkpt lat="28.039109" lon="-15.621904">
        <ele>1407.981000</ele>
        <time>2021-01-01T16:40:21.384Z</time>
      </trkpt>
      <trkpt lat="28.039115" lon="-15.621916">
        <ele>1407.819000</ele>
        <time>2021-01-01T16:40:23.028Z</time>
      </trkpt>
      <trkpt lat="28.039133" lon="-15.621930">
        <ele>1407.408000</ele>
        <time>2021-01-01T16:40:25.997Z</time>
      </trkpt>
      <trkpt lat="28.039158" lon="-15.621916">
        <ele>1406.682000</ele>
        <time>2021-01-01T16:40:29.837Z</time>
      </trkpt>
      <trkpt lat="28.039195" lon="-15.621894">
        <ele>1405.466000</ele>
        <time>2021-01-01T16:40:35.629Z</time>
      </trkpt>
      <trkpt lat="28.039202" lon="-15.621893">
        <ele>1405.249000</ele>
        <time>2021-01-01T16:40:36.611Z</time>
      </trkpt>
      <trkpt lat="28.039225" lon="-15.621896">
        <ele>1404.657000</ele>
        <time>2021-01-01T16:40:39.796Z</time>
      </trkpt>
      <trkpt lat="28.039234" lon="-15.621892">
        <ele>1404.326000</ele>
        <time>2021-01-01T16:40:41.153Z</time>
      </trkpt>
      <trkpt lat="28.039258" lon="-15.621886">
        <ele>1403.840000</ele>
        <time>2021-01-01T16:40:44.500Z</time>
      </trkpt>
      <trkpt lat="28.039305" lon="-15.621886">
        <ele>1402.577000</ele>
        <time>2021-01-01T16:40:50.984Z</time>
      </trkpt>
      <trkpt lat="28.039326" lon="-15.621878">
        <ele>1402.274000</ele>
        <time>2021-01-01T16:40:53.977Z</time>
      </trkpt>
      <trkpt lat="28.039388" lon="-15.621825">
        <ele>1402.184000</ele>
        <time>2021-01-01T16:41:04.393Z</time>
      </trkpt>
      <trkpt lat="28.039490" lon="-15.621747">
        <ele>1401.607000</ele>
        <time>2021-01-01T16:41:20.909Z</time>
      </trkpt>
      <trkpt lat="28.039498" lon="-15.621741">
        <ele>1401.517000</ele>
        <time>2021-01-01T16:41:22.200Z</time>
      </trkpt>
      <trkpt lat="28.039558" lon="-15.621694">
        <ele>1401.208000</ele>
        <time>2021-01-01T16:41:31.988Z</time>
      </trkpt>
      <trkpt lat="28.039566" lon="-15.621687">
        <ele>1401.274000</ele>
        <time>2021-01-01T16:41:33.346Z</time>
      </trkpt>
      <trkpt lat="28.039586" lon="-15.621686">
        <ele>1400.618000</ele>
        <time>2021-01-01T16:41:36.144Z</time>
      </trkpt>
      <trkpt lat="28.039624" lon="-15.621696">
        <ele>1399.121000</ele>
        <time>2021-01-01T16:41:41.678Z</time>
      </trkpt>
      <trkpt lat="28.039676" lon="-15.621694">
        <ele>1397.639000</ele>
        <time>2021-01-01T16:41:48.880Z</time>
      </trkpt>
      <trkpt lat="28.039737" lon="-15.621680">
        <ele>1396.218000</ele>
        <time>2021-01-01T16:41:57.400Z</time>
      </trkpt>
      <trkpt lat="28.039764" lon="-15.621685">
        <ele>1395.212000</ele>
        <time>2021-01-01T16:42:01.264Z</time>
      </trkpt>
      <trkpt lat="28.039799" lon="-15.621694">
        <ele>1393.899000</ele>
        <time>2021-01-01T16:42:06.331Z</time>
      </trkpt>
      <trkpt lat="28.039810" lon="-15.621682">
        <ele>1393.966000</ele>
        <time>2021-01-01T16:42:08.380Z</time>
      </trkpt>
      <trkpt lat="28.039830" lon="-15.621672">
        <ele>1393.652000</ele>
        <time>2021-01-01T16:42:11.336Z</time>
      </trkpt>
      <trkpt lat="28.039849" lon="-15.621669">
        <ele>1393.253000</ele>
        <time>2021-01-01T16:42:13.953Z</time>
      </trkpt>
      <trkpt lat="28.039864" lon="-15.621673">
        <ele>1392.608000</ele>
        <time>2021-01-01T16:42:16.161Z</time>
      </trkpt>
      <trkpt lat="28.039878" lon="-15.621680">
        <ele>1392.008000</ele>
        <time>2021-01-01T16:42:18.336Z</time>
      </trkpt>
      <trkpt lat="28.039886" lon="-15.621679">
        <ele>1391.821000</ele>
        <time>2021-01-01T16:42:19.439Z</time>
      </trkpt>
      <trkpt lat="28.039918" lon="-15.621671">
        <ele>1391.175000</ele>
        <time>2021-01-01T16:42:23.902Z</time>
      </trkpt>
      <trkpt lat="28.039949" lon="-15.621657">
        <ele>1390.828000</ele>
        <time>2021-01-01T16:42:28.396Z</time>
      </trkpt>
      <trkpt lat="28.039978" lon="-15.621679">
        <ele>1389.136000</ele>
        <time>2021-01-01T16:42:33.501Z</time>
      </trkpt>
      <trkpt lat="28.039999" lon="-15.621690">
        <ele>1388.135000</ele>
        <time>2021-01-01T16:42:36.830Z</time>
      </trkpt>
      <trkpt lat="28.040050" lon="-15.621718">
        <ele>1385.639000</ele>
        <time>2021-01-01T16:42:45.004Z</time>
      </trkpt>
      <trkpt lat="28.040072" lon="-15.621716">
        <ele>1385.166000</ele>
        <time>2021-01-01T16:42:48.018Z</time>
      </trkpt>
      <trkpt lat="28.040079" lon="-15.621718">
        <ele>1384.823000</ele>
        <time>2021-01-01T16:42:49.071Z</time>
      </trkpt>
      <trkpt lat="28.040108" lon="-15.621734">
        <ele>1383.415000</ele>
        <time>2021-01-01T16:42:53.717Z</time>
      </trkpt>
      <trkpt lat="28.040131" lon="-15.621749">
        <ele>1382.265000</ele>
        <time>2021-01-01T16:42:57.537Z</time>
      </trkpt>
      <trkpt lat="28.040139" lon="-15.621750">
        <ele>1381.911000</ele>
        <time>2021-01-01T16:42:58.697Z</time>
      </trkpt>
      <trkpt lat="28.040196" lon="-15.621734">
        <ele>1380.908000</ele>
        <time>2021-01-01T16:43:06.664Z</time>
      </trkpt>
      <trkpt lat="28.040234" lon="-15.621727">
        <ele>1380.247000</ele>
        <time>2021-01-01T16:43:11.888Z</time>
      </trkpt>
      <trkpt lat="28.040250" lon="-15.621717">
        <ele>1380.281000</ele>
        <time>2021-01-01T16:43:14.338Z</time>
      </trkpt>
      <trkpt lat="28.040294" lon="-15.621682">
        <ele>1380.574000</ele>
        <time>2021-01-01T16:43:21.556Z</time>
      </trkpt>
      <trkpt lat="28.040310" lon="-15.621669">
        <ele>1380.572000</ele>
        <time>2021-01-01T16:43:24.196Z</time>
      </trkpt>
      <trkpt lat="28.040294" lon="-15.621646">
        <ele>1381.661000</ele>
        <time>2021-01-01T16:43:27.902Z</time>
      </trkpt>
      <trkpt lat="28.040283" lon="-15.621638">
        <ele>1382.165000</ele>
        <time>2021-01-01T16:43:29.758Z</time>
      </trkpt>
      <trkpt lat="28.040288" lon="-15.621622">
        <ele>1382.522000</ele>
        <time>2021-01-01T16:43:31.812Z</time>
      </trkpt>
      <trkpt lat="28.040318" lon="-15.621614">
        <ele>1382.029000</ele>
        <time>2021-01-01T16:43:35.987Z</time>
      </trkpt>
      <trkpt lat="28.040423" lon="-15.621639">
        <ele>1378.873000</ele>
        <time>2021-01-01T16:43:50.869Z</time>
      </trkpt>
      <trkpt lat="28.040431" lon="-15.621647">
        <ele>1378.385000</ele>
        <time>2021-01-01T16:43:52.417Z</time>
      </trkpt>
      <trkpt lat="28.040438" lon="-15.621649">
        <ele>1378.113000</ele>
        <time>2021-01-01T16:43:53.439Z</time>
      </trkpt>
      <trkpt lat="28.040487" lon="-15.621669">
        <ele>1376.508000</ele>
        <time>2021-01-01T16:44:00.686Z</time>
      </trkpt>
      <trkpt lat="28.040506" lon="-15.621681">
        <ele>1375.933000</ele>
        <time>2021-01-01T16:44:03.684Z</time>
      </trkpt>
      <trkpt lat="28.040583" lon="-15.621689">
        <ele>1383.047000</ele>
        <time>2021-01-01T16:44:17.141Z</time>
      </trkpt>
      <trkpt lat="28.040795" lon="-15.621951">
        <ele>1373.680000</ele>
        <time>2021-01-01T16:45:00.699Z</time>
      </trkpt>
      <trkpt lat="28.041008" lon="-15.622121">
        <ele>1371.978000</ele>
        <time>2021-01-01T16:45:35.696Z</time>
      </trkpt>
      <trkpt lat="28.041226" lon="-15.622219">
        <ele>1370.197000</ele>
        <time>2021-01-01T16:46:07.218Z</time>
      </trkpt>
      <trkpt lat="28.041403" lon="-15.622335">
        <ele>1367.421000</ele>
        <time>2021-01-01T16:46:34.841Z</time>
      </trkpt>
      <trkpt lat="28.041569" lon="-15.622405">
        <ele>1364.168000</ele>
        <time>2021-01-01T16:46:58.914Z</time>
      </trkpt>
      <trkpt lat="28.042221" lon="-15.622562">
        <ele>1352.855000</ele>
        <time>2021-01-01T16:48:29.330Z</time>
      </trkpt>
      <trkpt lat="28.042942" lon="-15.622791">
        <ele>1336.236000</ele>
        <time>2021-01-01T16:50:11.719Z</time>
      </trkpt>
      <trkpt lat="28.043309" lon="-15.622900">
        <ele>1325.117000</ele>
        <time>2021-01-01T16:51:04.331Z</time>
      </trkpt>
      <trkpt lat="28.043482" lon="-15.622970">
        <ele>1322.618000</ele>
        <time>2021-01-01T16:51:29.147Z</time>
      </trkpt>
      <trkpt lat="28.043457" lon="-15.623030">
        <ele>1322.708000</ele>
        <time>2021-01-01T16:51:37Z</time>
      </trkpt>
      <trkpt lat="28.043547" lon="-15.623110">
        <ele>1320.599000</ele>
        <time>2021-01-01T16:51:52.549Z</time>
      </trkpt>
      <trkpt lat="28.043986" lon="-15.623125">
        <ele>1318.993000</ele>
        <time>2021-01-01T16:52:51.474Z</time>
      </trkpt>
      <trkpt lat="28.044358" lon="-15.623158">
        <ele>1315.796000</ele>
        <time>2021-01-01T16:53:41.658Z</time>
      </trkpt>
      <trkpt lat="28.044854" lon="-15.623423">
        <ele>1311.374000</ele>
        <time>2021-01-01T16:54:55.384Z</time>
      </trkpt>
      <trkpt lat="28.045365" lon="-15.623677">
        <ele>1309.853000</ele>
        <time>2021-01-01T16:56:10.232Z</time>
      </trkpt>
      <trkpt lat="28.046187" lon="-15.624246">
        <ele>1302.957000</ele>
        <time>2021-01-01T16:58:19.666Z</time>
      </trkpt>
      <trkpt lat="28.046646" lon="-15.624580">
        <ele>1300.854000</ele>
        <time>2021-01-01T16:59:32.858Z</time>
      </trkpt>
      <trkpt lat="28.046881" lon="-15.624710">
        <ele>1299.831000</ele>
        <time>2021-01-01T17:00:07.947Z</time>
      </trkpt>
      <trkpt lat="28.047156" lon="-15.624875">
        <ele>1301.814000</ele>
        <time>2021-01-01T17:00:49.742Z</time>
      </trkpt>
      <trkpt lat="28.047272" lon="-15.625078">
        <ele>1303.854000</ele>
        <time>2021-01-01T17:01:18.467Z</time>
      </trkpt>
      <trkpt lat="28.047331" lon="-15.625383">
        <ele>1300.609000</ele>
        <time>2021-01-01T17:01:55.626Z</time>
      </trkpt>
      <trkpt lat="28.047324" lon="-15.625669">
        <ele>1292.808000</ele>
        <time>2021-01-01T17:02:30.768Z</time>
      </trkpt>
      <trkpt lat="28.047331" lon="-15.625863">
        <ele>1286.097000</ele>
        <time>2021-01-01T17:02:55.130Z</time>
      </trkpt>
      <trkpt lat="28.047493" lon="-15.625944">
        <ele>1283.161000</ele>
        <time>2021-01-01T17:03:19.136Z</time>
      </trkpt>
      <trkpt lat="28.047680" lon="-15.626077">
        <ele>1274.614000</ele>
        <time>2021-01-01T17:03:50.485Z</time>
      </trkpt>
      <trkpt lat="28.047934" lon="-15.626276">
        <ele>1265.082000</ele>
        <time>2021-01-01T17:04:33.460Z</time>
      </trkpt>
      <trkpt lat="28.048111" lon="-15.626440">
        <ele>1259.711000</ele>
        <time>2021-01-01T17:05:04.796Z</time>
      </trkpt>
      <trkpt lat="28.048241" lon="-15.626571">
        <ele>1253.835000</ele>
        <time>2021-01-01T17:05:29.177Z</time>
      </trkpt>
      <trkpt lat="28.048643" lon="-15.626908">
        <ele>1248.412000</ele>
        <time>2021-01-01T17:06:36.550Z</time>
      </trkpt>
      <trkpt lat="28.048983" lon="-15.627032">
        <ele>1247.719000</ele>
        <time>2021-01-01T17:07:24.452Z</time>
      </trkpt>
      <trkpt lat="28.049143" lon="-15.627139">
        <ele>1251.821000</ele>
        <time>2021-01-01T17:07:49.852Z</time>
      </trkpt>
      <trkpt lat="28.049277" lon="-15.627291">
        <ele>1256.041000</ele>
        <time>2021-01-01T17:08:15.781Z</time>
      </trkpt>
      <trkpt lat="28.049380" lon="-15.627498">
        <ele>1260.605000</ele>
        <time>2021-01-01T17:08:44.437Z</time>
      </trkpt>
      <trkpt lat="28.049500" lon="-15.627651">
        <ele>1260.008000</ele>
        <time>2021-01-01T17:09:08.671Z</time>
      </trkpt>
      <trkpt lat="28.049658" lon="-15.627770">
        <ele>1258.558000</ele>
        <time>2021-01-01T17:09:34.171Z</time>
      </trkpt>
      <trkpt lat="28.049927" lon="-15.627819">
        <ele>1256.342000</ele>
        <time>2021-01-01T17:10:10.802Z</time>
      </trkpt>
      <trkpt lat="28.050131" lon="-15.627881">
        <ele>1257.385000</ele>
        <time>2021-01-01T17:10:39.152Z</time>
      </trkpt>
      <trkpt lat="28.050301" lon="-15.627968">
        <ele>1259.173000</ele>
        <time>2021-01-01T17:11:04.258Z</time>
      </trkpt>
      <trkpt lat="28.050606" lon="-15.628224">
        <ele>1257.172000</ele>
        <time>2021-01-01T17:11:55.212Z</time>
      </trkpt>
      <trkpt lat="28.050833" lon="-15.628575">
        <ele>1257.976000</ele>
        <time>2021-01-01T17:12:46.718Z</time>
      </trkpt>
      <trkpt lat="28.050906" lon="-15.628683">
        <ele>1258.433000</ele>
        <time>2021-01-01T17:13:02.826Z</time>
      </trkpt>
      <trkpt lat="28.051157" lon="-15.628808">
        <ele>1257.720000</ele>
        <time>2021-01-01T17:13:39.601Z</time>
      </trkpt>
      <trkpt lat="28.051379" lon="-15.628887">
        <ele>1249.238000</ele>
        <time>2021-01-01T17:14:12.437Z</time>
      </trkpt>
      <trkpt lat="28.051596" lon="-15.629004">
        <ele>1245.370000</ele>
        <time>2021-01-01T17:14:44.997Z</time>
      </trkpt>
      <trkpt lat="28.051756" lon="-15.629213">
        <ele>1252.717000</ele>
        <time>2021-01-01T17:15:18.916Z</time>
      </trkpt>
      <trkpt lat="28.051834" lon="-15.629245">
        <ele>1255.008000</ele>
        <time>2021-01-01T17:15:30.378Z</time>
      </trkpt>
      <trkpt lat="28.052088" lon="-15.629222">
        <ele>1256.729000</ele>
        <time>2021-01-01T17:16:04.609Z</time>
      </trkpt>
      <trkpt lat="28.052361" lon="-15.629136">
        <ele>1252.443000</ele>
        <time>2021-01-01T17:16:42.955Z</time>
      </trkpt>
      <trkpt lat="28.052477" lon="-15.629372">
        <ele>1254.496000</ele>
        <time>2021-01-01T17:17:15.018Z</time>
      </trkpt>
      <trkpt lat="28.052576" lon="-15.629482">
        <ele>1252.854000</ele>
        <time>2021-01-01T17:17:33.716Z</time>
      </trkpt>
      <trkpt lat="28.052857" lon="-15.629571">
        <ele>1245.173000</ele>
        <time>2021-01-01T17:18:13.922Z</time>
      </trkpt>
      <trkpt lat="28.053250" lon="-15.629694">
        <ele>1234.587000</ele>
        <time>2021-01-01T17:19:10.064Z</time>
      </trkpt>
      <trkpt lat="28.053574" lon="-15.629770">
        <ele>1226.244000</ele>
        <time>2021-01-01T17:19:55.558Z</time>
      </trkpt>
      <trkpt lat="28.053700" lon="-15.629835">
        <ele>1224.391000</ele>
        <time>2021-01-01T17:20:14.256Z</time>
      </trkpt>
      <trkpt lat="28.053833" lon="-15.629762">
        <ele>1219.792000</ele>
        <time>2021-01-01T17:20:34.834Z</time>
      </trkpt>
      <trkpt lat="28.053906" lon="-15.629689">
        <ele>1217.473000</ele>
        <time>2021-01-01T17:20:48.185Z</time>
      </trkpt>
      <trkpt lat="28.054026" lon="-15.629686">
        <ele>1216.620000</ele>
        <time>2021-01-01T17:21:04.313Z</time>
      </trkpt>
      <trkpt lat="28.054171" lon="-15.629690">
        <ele>1215.808000</ele>
        <time>2021-01-01T17:21:23.787Z</time>
      </trkpt>
      <trkpt lat="28.054358" lon="-15.629765">
        <ele>1214.765000</ele>
        <time>2021-01-01T17:21:50.417Z</time>
      </trkpt>
      <trkpt lat="28.054776" lon="-15.629809">
        <ele>1214.359000</ele>
        <time>2021-01-01T17:22:46.711Z</time>
      </trkpt>
      <trkpt lat="28.054884" lon="-15.629816">
        <ele>1214.922000</ele>
        <time>2021-01-01T17:23:01.232Z</time>
      </trkpt>
      <trkpt lat="28.055231" lon="-15.629855">
        <ele>1216.770000</ele>
        <time>2021-01-01T17:23:48.044Z</time>
      </trkpt>
      <trkpt lat="28.055533" lon="-15.629823">
        <ele>1218.829000</ele>
        <time>2021-01-01T17:24:28.792Z</time>
      </trkpt>
      <trkpt lat="28.056095" lon="-15.629807">
        <ele>1221.193000</ele>
        <time>2021-01-01T17:25:44.230Z</time>
      </trkpt>
      <trkpt lat="28.056906" lon="-15.629832">
        <ele>1222.320000</ele>
        <time>2021-01-01T17:27:33.028Z</time>
      </trkpt>
      <trkpt lat="28.057284" lon="-15.629857">
        <ele>1220.457000</ele>
        <time>2021-01-01T17:28:23.851Z</time>
      </trkpt>
      <trkpt lat="28.057431" lon="-15.629886">
        <ele>1219.743000</ele>
        <time>2021-01-01T17:28:43.878Z</time>
      </trkpt>
      <trkpt lat="28.057585" lon="-15.629976">
        <ele>1218.964000</ele>
        <time>2021-01-01T17:29:07.132Z</time>
      </trkpt>
      <trkpt lat="28.057932" lon="-15.630221">
        <ele>1219.910000</ele>
        <time>2021-01-01T17:30:01.967Z</time>
      </trkpt>
      <trkpt lat="28.058041" lon="-15.630271">
        <ele>1220.908000</ele>
        <time>2021-01-01T17:30:17.781Z</time>
      </trkpt>
      <trkpt lat="28.058741" lon="-15.630354">
        <ele>1221.470000</ele>
        <time>2021-01-01T17:31:52.161Z</time>
      </trkpt>
      <trkpt lat="28.058928" lon="-15.630343">
        <ele>1221.144000</ele>
        <time>2021-01-01T17:32:17.273Z</time>
      </trkpt>
      <trkpt lat="28.059277" lon="-15.630264">
        <ele>1220.227000</ele>
        <time>2021-01-01T17:33:05.009Z</time>
      </trkpt>
      <trkpt lat="28.059508" lon="-15.630195">
        <ele>1218.385000</ele>
        <time>2021-01-01T17:33:37.119Z</time>
      </trkpt>
      <trkpt lat="28.059634" lon="-15.630134">
        <ele>1217.914000</ele>
        <time>2021-01-01T17:33:55.501Z</time>
      </trkpt>
      <trkpt lat="28.059725" lon="-15.630034">
        <ele>1218.268000</ele>
        <time>2021-01-01T17:34:12.504Z</time>
      </trkpt>
      <trkpt lat="28.059744" lon="-15.629976">
        <ele>1218.385000</ele>
        <time>2021-01-01T17:34:19.826Z</time>
      </trkpt>
      <trkpt lat="28.059744" lon="-15.629976">
        <ele>1218.392000</ele>
        <time>2021-01-01T17:34:19.835Z</time>
      </trkpt>
      <trkpt lat="28.059784" lon="-15.629849">
        <ele>1217.741000</ele>
        <time>2021-01-01T17:34:35.810Z</time>
      </trkpt>
      <trkpt lat="28.059868" lon="-15.629502">
        <ele>1216.481000</ele>
        <time>2021-01-01T17:35:18.415Z</time>
      </trkpt>
      <trkpt lat="28.060059" lon="-15.629433">
        <ele>1214.709000</ele>
        <time>2021-01-01T17:35:45.382Z</time>
      </trkpt>
      <trkpt lat="28.060334" lon="-15.629474">
        <ele>1213.308000</ele>
        <time>2021-01-01T17:36:22.614Z</time>
      </trkpt>
      <trkpt lat="28.060442" lon="-15.629486">
        <ele>1212.420000</ele>
        <time>2021-01-01T17:36:37.204Z</time>
      </trkpt>
      <trkpt lat="28.060643" lon="-15.629599">
        <ele>1210.154000</ele>
        <time>2021-01-01T17:37:07.415Z</time>
      </trkpt>
      <trkpt lat="28.060919" lon="-15.630022">
        <ele>1200.157000</ele>
        <time>2021-01-01T17:38:10.822Z</time>
      </trkpt>
      <trkpt lat="28.060990" lon="-15.630184">
        <ele>1197.835000</ele>
        <time>2021-01-01T17:38:32.408Z</time>
      </trkpt>
      <trkpt lat="28.061102" lon="-15.630513">
        <ele>1194.384000</ele>
        <time>2021-01-01T17:39:14.342Z</time>
      </trkpt>
      <trkpt lat="28.061163" lon="-15.630623">
        <ele>1193.678000</ele>
        <time>2021-01-01T17:39:29.738Z</time>
      </trkpt>
      <trkpt lat="28.061333" lon="-15.630744">
        <ele>1191.665000</ele>
        <time>2021-01-01T17:39:56.767Z</time>
      </trkpt>
      <trkpt lat="28.061579" lon="-15.630983">
        <ele>1187.262000</ele>
        <time>2021-01-01T17:40:40.541Z</time>
      </trkpt>
      <trkpt lat="28.061669" lon="-15.631096">
        <ele>1186.456000</ele>
        <time>2021-01-01T17:40:58.579Z</time>
      </trkpt>
      <trkpt lat="28.061827" lon="-15.631398">
        <ele>1186.759000</ele>
        <time>2021-01-01T17:41:40.124Z</time>
      </trkpt>
      <trkpt lat="28.062031" lon="-15.631602">
        <ele>1181.614000</ele>
        <time>2021-01-01T17:42:17.131Z</time>
      </trkpt>
      <trkpt lat="28.062149" lon="-15.631766">
        <ele>1180.008000</ele>
        <time>2021-01-01T17:42:42.245Z</time>
      </trkpt>
      <trkpt lat="28.062250" lon="-15.632016">
        <ele>1181.911000</ele>
        <time>2021-01-01T17:43:14.860Z</time>
      </trkpt>
      <trkpt lat="28.062359" lon="-15.632175">
        <ele>1183.495000</ele>
        <time>2021-01-01T17:43:38.761Z</time>
      </trkpt>
      <trkpt lat="28.062451" lon="-15.632248">
        <ele>1183.378000</ele>
        <time>2021-01-01T17:43:53.822Z</time>
      </trkpt>
      <trkpt lat="28.062516" lon="-15.632341">
        <ele>1183.946000</ele>
        <time>2021-01-01T17:44:07.877Z</time>
      </trkpt>
      <trkpt lat="28.062867" lon="-15.632676">
        <ele>1184.115000</ele>
        <time>2021-01-01T17:45:09.412Z</time>
      </trkpt>
      <trkpt lat="28.062876" lon="-15.632718">
        <ele>1184.449000</ele>
        <time>2021-01-01T17:45:14.543Z</time>
      </trkpt>
      <trkpt lat="28.062882" lon="-15.632744">
        <ele>1184.576000</ele>
        <time>2021-01-01T17:45:17.726Z</time>
      </trkpt>
      <trkpt lat="28.062729" lon="-15.633304">
        <ele>1184.583000</ele>
        <time>2021-01-01T17:46:27.093Z</time>
      </trkpt>
      <trkpt lat="28.062615" lon="-15.633567">
        <ele>1183.981000</ele>
        <time>2021-01-01T17:47:01.773Z</time>
      </trkpt>
      <trkpt lat="28.062607" lon="-15.633666">
        <ele>1183.161000</ele>
        <time>2021-01-01T17:47:13.578Z</time>
      </trkpt>
      <trkpt lat="28.062649" lon="-15.633927">
        <ele>1181.117000</ele>
        <time>2021-01-01T17:47:45.067Z</time>
      </trkpt>
      <trkpt lat="28.062722" lon="-15.634189">
        <ele>1178.008000</ele>
        <time>2021-01-01T17:48:17.793Z</time>
      </trkpt>
      <trkpt lat="28.062825" lon="-15.634265">
        <ele>1177.334000</ele>
        <time>2021-01-01T17:48:34.295Z</time>
      </trkpt>
      <trkpt lat="28.063065" lon="-15.634345">
        <ele>1178.198000</ele>
        <time>2021-01-01T17:49:07.856Z</time>
      </trkpt>
      <trkpt lat="28.063237" lon="-15.634590">
        <ele>1173.711000</ele>
        <time>2021-01-01T17:49:45.295Z</time>
      </trkpt>
      <trkpt lat="28.063294" lon="-15.634777">
        <ele>1169.889000</ele>
        <time>2021-01-01T17:50:09.155Z</time>
      </trkpt>
      <trkpt lat="28.063443" lon="-15.635011">
        <ele>1164.518000</ele>
        <time>2021-01-01T17:50:43.908Z</time>
      </trkpt>
      <trkpt lat="28.063528" lon="-15.635097">
        <ele>1162.852000</ele>
        <time>2021-01-01T17:50:59.319Z</time>
      </trkpt>
      <trkpt lat="28.063641" lon="-15.635260">
        <ele>1158.479000</ele>
        <time>2021-01-01T17:51:24.407Z</time>
      </trkpt>
      <trkpt lat="28.063916" lon="-15.635459">
        <ele>1151.676000</ele>
        <time>2021-01-01T17:52:08.922Z</time>
      </trkpt>
      <trkpt lat="28.064110" lon="-15.635518">
        <ele>1147.519000</ele>
        <time>2021-01-01T17:52:36.319Z</time>
      </trkpt>
      <trkpt lat="28.064431" lon="-15.635537">
        <ele>1145.909000</ele>
        <time>2021-01-01T17:53:19.465Z</time>
      </trkpt>
      <trkpt lat="28.064589" lon="-15.635606">
        <ele>1141.919000</ele>
        <time>2021-01-01T17:53:42.675Z</time>
      </trkpt>
      <trkpt lat="28.064717" lon="-15.635732">
        <ele>1138.708000</ele>
        <time>2021-01-01T17:54:05.737Z</time>
      </trkpt>
      <trkpt lat="28.064829" lon="-15.635908">
        <ele>1135.997000</ele>
        <time>2021-01-01T17:54:31.620Z</time>
      </trkpt>
      <trkpt lat="28.065010" lon="-15.636342">
        <ele>1134.731000</ele>
        <time>2021-01-01T17:55:28.441Z</time>
      </trkpt>
      <trkpt lat="28.065119" lon="-15.636568">
        <ele>1129.864000</ele>
        <time>2021-01-01T17:55:59.476Z</time>
      </trkpt>
      <trkpt lat="28.065224" lon="-15.636745">
        <ele>1126.812000</ele>
        <time>2021-01-01T17:56:24.979Z</time>
      </trkpt>
      <trkpt lat="28.065371" lon="-15.636921">
        <ele>1124.391000</ele>
        <time>2021-01-01T17:56:53.802Z</time>
      </trkpt>
      <trkpt lat="28.065581" lon="-15.637057">
        <ele>1121.365000</ele>
        <time>2021-01-01T17:57:26.440Z</time>
      </trkpt>
      <trkpt lat="28.065867" lon="-15.637253">
        <ele>1120.252000</ele>
        <time>2021-01-01T17:58:11.278Z</time>
      </trkpt>
      <trkpt lat="28.066166" lon="-15.637360">
        <ele>1122.349000</ele>
        <time>2021-01-01T17:58:53.399Z</time>
      </trkpt>
      <trkpt lat="28.066521" lon="-15.637510">
        <ele>1126.224000</ele>
        <time>2021-01-01T17:59:44.418Z</time>
      </trkpt>
      <trkpt lat="28.066933" lon="-15.637697">
        <ele>1118.104000</ele>
        <time>2021-01-01T18:00:44.730Z</time>
      </trkpt>
      <trkpt lat="28.067025" lon="-15.637680">
        <ele>1116.114000</ele>
        <time>2021-01-01T18:00:57.458Z</time>
      </trkpt>
      <trkpt lat="28.067143" lon="-15.637521">
        <ele>1116.008000</ele>
        <time>2021-01-01T18:01:22.041Z</time>
      </trkpt>
      <trkpt lat="28.067255" lon="-15.637429">
        <ele>1113.668000</ele>
        <time>2021-01-01T18:01:40.803Z</time>
      </trkpt>
      <trkpt lat="28.067395" lon="-15.637399">
        <ele>1110.412000</ele>
        <time>2021-01-01T18:02:00.308Z</time>
      </trkpt>
      <trkpt lat="28.067555" lon="-15.637462">
        <ele>1106.745000</ele>
        <time>2021-01-01T18:02:23.447Z</time>
      </trkpt>
      <trkpt lat="28.067732" lon="-15.637526">
        <ele>1102.543000</ele>
        <time>2021-01-01T18:02:48.871Z</time>
      </trkpt>
      <trkpt lat="28.068091" lon="-15.637578">
        <ele>1097.532000</ele>
        <time>2021-01-01T18:03:37.776Z</time>
      </trkpt>
      <trkpt lat="28.068261" lon="-15.637660">
        <ele>1097.146000</ele>
        <time>2021-01-01T18:04:02.556Z</time>
      </trkpt>
      <trkpt lat="28.068486" lon="-15.637843">
        <ele>1090.953000</ele>
        <time>2021-01-01T18:04:40.436Z</time>
      </trkpt>
      <trkpt lat="28.068619" lon="-15.637901">
        <ele>1087.390000</ele>
        <time>2021-01-01T18:05:00.022Z</time>
      </trkpt>
      <trkpt lat="28.069022" lon="-15.637951">
        <ele>1084.988000</ele>
        <time>2021-01-01T18:05:54.461Z</time>
      </trkpt>
      <trkpt lat="28.069180" lon="-15.637947">
        <ele>1085.024000</ele>
        <time>2021-01-01T18:06:15.653Z</time>
      </trkpt>
      <trkpt lat="28.069510" lon="-15.637898">
        <ele>1083.726000</ele>
        <time>2021-01-01T18:07:00.310Z</time>
      </trkpt>
      <trkpt lat="28.069874" lon="-15.637900">
        <ele>1082.608000</ele>
        <time>2021-01-01T18:07:49.139Z</time>
      </trkpt>
      <trkpt lat="28.069968" lon="-15.637922">
        <ele>1081.894000</ele>
        <time>2021-01-01T18:08:02.038Z</time>
      </trkpt>
      <trkpt lat="28.070021" lon="-15.638003">
        <ele>1081.738000</ele>
        <time>2021-01-01T18:08:13.971Z</time>
      </trkpt>
      <trkpt lat="28.070128" lon="-15.638400">
        <ele>1078.261000</ele>
        <time>2021-01-01T18:09:03.265Z</time>
      </trkpt>
      <trkpt lat="28.070246" lon="-15.638634">
        <ele>1074.349000</ele>
        <time>2021-01-01T18:09:35.501Z</time>
      </trkpt>
      <trkpt lat="28.070391" lon="-15.638762">
        <ele>1068.568000</ele>
        <time>2021-01-01T18:10:01.114Z</time>
      </trkpt>
      <trkpt lat="28.070996" lon="-15.638975">
        <ele>1054.182000</ele>
        <time>2021-01-01T18:11:27.818Z</time>
      </trkpt>
      <trkpt lat="28.071190" lon="-15.639043">
        <ele>1052.359000</ele>
        <time>2021-01-01T18:11:55.136Z</time>
      </trkpt>
      <trkpt lat="28.071314" lon="-15.639215">
        <ele>1050.116000</ele>
        <time>2021-01-01T18:12:21.555Z</time>
      </trkpt>
      <trkpt lat="28.071354" lon="-15.639397">
        <ele>1046.321000</ele>
        <time>2021-01-01T18:12:44.214Z</time>
      </trkpt>
      <trkpt lat="28.071329" lon="-15.639634">
        <ele>1042.241000</ele>
        <time>2021-01-01T18:13:12.881Z</time>
      </trkpt>
      <trkpt lat="28.071375" lon="-15.639678">
        <ele>1040.805000</ele>
        <time>2021-01-01T18:13:21.136Z</time>
      </trkpt>
      <trkpt lat="28.071543" lon="-15.639679">
        <ele>1039.708000</ele>
        <time>2021-01-01T18:13:43.702Z</time>
      </trkpt>
      <trkpt lat="28.071732" lon="-15.639627">
        <ele>1038.238000</ele>
        <time>2021-01-01T18:14:09.842Z</time>
      </trkpt>
      <trkpt lat="28.071823" lon="-15.639619">
        <ele>1037.252000</ele>
        <time>2021-01-01T18:14:22.139Z</time>
      </trkpt>
      <trkpt lat="28.071930" lon="-15.639612">
        <ele>1036.125000</ele>
        <time>2021-01-01T18:14:36.575Z</time>
      </trkpt>
      <trkpt lat="28.072230" lon="-15.639618">
        <ele>1029.783000</ele>
        <time>2021-01-01T18:15:17.530Z</time>
      </trkpt>
      <trkpt lat="28.072560" lon="-15.639656">
        <ele>1026.522000</ele>
        <time>2021-01-01T18:16:02.181Z</time>
      </trkpt>
      <trkpt lat="28.072815" lon="-15.639689">
        <ele>1023.956000</ele>
        <time>2021-01-01T18:16:36.736Z</time>
      </trkpt>
      <trkpt lat="28.072995" lon="-15.639725">
        <ele>1021.883000</ele>
        <time>2021-01-01T18:17:01.373Z</time>
      </trkpt>
      <trkpt lat="28.073300" lon="-15.639802">
        <ele>1018.230000</ele>
        <time>2021-01-01T18:17:43.505Z</time>
      </trkpt>
      <trkpt lat="28.073429" lon="-15.639841">
        <ele>1016.138000</ele>
        <time>2021-01-01T18:18:01.584Z</time>
      </trkpt>
      <trkpt lat="28.073468" lon="-15.639959">
        <ele>1012.970000</ele>
        <time>2021-01-01T18:18:16.975Z</time>
      </trkpt>
      <trkpt lat="28.073450" lon="-15.640079">
        <ele>1010.717000</ele>
        <time>2021-01-01T18:18:31.630Z</time>
      </trkpt>
      <trkpt lat="28.073332" lon="-15.640206">
        <ele>1011.908000</ele>
        <time>2021-01-01T18:18:53.498Z</time>
      </trkpt>
      <trkpt lat="28.073258" lon="-15.640388">
        <ele>1011.699000</ele>
        <time>2021-01-01T18:19:17.210Z</time>
      </trkpt>
      <trkpt lat="28.073269" lon="-15.640519">
        <ele>1009.723000</ele>
        <time>2021-01-01T18:19:32.960Z</time>
      </trkpt>
      <trkpt lat="28.073342" lon="-15.640921">
        <ele>1007.146000</ele>
        <time>2021-01-01T18:20:21.620Z</time>
      </trkpt>
      <trkpt lat="28.073347" lon="-15.640951">
        <ele>1007.494000</ele>
        <time>2021-01-01T18:20:25.256Z</time>
      </trkpt>
      <trkpt lat="28.073487" lon="-15.641068">
        <ele>1007.573000</ele>
        <time>2021-01-01T18:20:48.581Z</time>
      </trkpt>
      <trkpt lat="28.073744" lon="-15.641138">
        <ele>1006.067000</ele>
        <time>2021-01-01T18:21:24.071Z</time>
      </trkpt>
      <trkpt lat="28.073952" lon="-15.641146">
        <ele>1003.714000</ele>
        <time>2021-01-01T18:21:52.122Z</time>
      </trkpt>
      <trkpt lat="28.074086" lon="-15.641139">
        <ele>1002.441000</ele>
        <time>2021-01-01T18:22:10.175Z</time>
      </trkpt>
      <trkpt lat="28.074213" lon="-15.641183">
        <ele>1002.681000</ele>
        <time>2021-01-01T18:22:27.985Z</time>
      </trkpt>
      <trkpt lat="28.074267" lon="-15.641295">
        <ele>1005.061000</ele>
        <time>2021-01-01T18:22:43.356Z</time>
      </trkpt>
      <trkpt lat="28.074337" lon="-15.641366">
        <ele>1006.217000</ele>
        <time>2021-01-01T18:22:56.030Z</time>
      </trkpt>
      <trkpt lat="28.074427" lon="-15.641363">
        <ele>1005.508000</ele>
        <time>2021-01-01T18:23:08.134Z</time>
      </trkpt>
      <trkpt lat="28.074726" lon="-15.641171">
        <ele>1000.424000</ele>
        <time>2021-01-01T18:23:54.622Z</time>
      </trkpt>
      <trkpt lat="28.074923" lon="-15.641093">
        <ele>1000.968000</ele>
        <time>2021-01-01T18:24:22.611Z</time>
      </trkpt>
      <trkpt lat="28.075108" lon="-15.641094">
        <ele>1001.671000</ele>
        <time>2021-01-01T18:24:47.433Z</time>
      </trkpt>
      <trkpt lat="28.075331" lon="-15.641214">
        <ele>1000.739000</ele>
        <time>2021-01-01T18:25:20.554Z</time>
      </trkpt>
      <trkpt lat="28.075516" lon="-15.641338">
        <ele>997.888000</ele>
        <time>2021-01-01T18:25:49.579Z</time>
      </trkpt>
      <trkpt lat="28.075835" lon="-15.641425">
        <ele>999.132000</ele>
        <time>2021-01-01T18:26:33.601Z</time>
      </trkpt>
      <trkpt lat="28.075978" lon="-15.641496">
        <ele>999.899000</ele>
        <time>2021-01-01T18:26:54.556Z</time>
      </trkpt>
      <trkpt lat="28.076432" lon="-15.641556">
        <ele>1004.256000</ele>
        <time>2021-01-01T18:27:56.072Z</time>
      </trkpt>
      <trkpt lat="28.076615" lon="-15.641673">
        <ele>1002.811000</ele>
        <time>2021-01-01T18:28:24.300Z</time>
      </trkpt>
      <trkpt lat="28.076670" lon="-15.641757">
        <ele>1001.321000</ele>
        <time>2021-01-01T18:28:36.805Z</time>
      </trkpt>
      <trkpt lat="28.077013" lon="-15.642414">
        <ele>1000.903000</ele>
        <time>2021-01-01T18:30:07.126Z</time>
      </trkpt>
      <trkpt lat="28.077128" lon="-15.642549">
        <ele>1001.208000</ele>
        <time>2021-01-01T18:30:29.331Z</time>
      </trkpt>
      <trkpt lat="28.077210" lon="-15.642719">
        <ele>1001.217000</ele>
        <time>2021-01-01T18:30:52.253Z</time>
      </trkpt>
      <trkpt lat="28.077231" lon="-15.642950">
        <ele>996.761000</ele>
        <time>2021-01-01T18:31:20.248Z</time>
      </trkpt>
      <trkpt lat="28.077429" lon="-15.643280">
        <ele>991.714000</ele>
        <time>2021-01-01T18:32:07.854Z</time>
      </trkpt>
      <trkpt lat="28.077509" lon="-15.643357">
        <ele>991.792000</ele>
        <time>2021-01-01T18:32:21.928Z</time>
      </trkpt>
      <trkpt lat="28.077610" lon="-15.643383">
        <ele>992.761000</ele>
        <time>2021-01-01T18:32:35.866Z</time>
      </trkpt>
      <trkpt lat="28.077923" lon="-15.643318">
        <ele>992.385000</ele>
        <time>2021-01-01T18:33:18.538Z</time>
      </trkpt>
      <trkpt lat="28.078244" lon="-15.643216">
        <ele>985.552000</ele>
        <time>2021-01-01T18:34:03.994Z</time>
      </trkpt>
      <trkpt lat="28.078457" lon="-15.643193">
        <ele>980.349000</ele>
        <time>2021-01-01T18:34:33.363Z</time>
      </trkpt>
      <trkpt lat="28.078507" lon="-15.643231">
        <ele>979.111000</ele>
        <time>2021-01-01T18:34:41.573Z</time>
      </trkpt>
      <trkpt lat="28.078535" lon="-15.643279">
        <ele>978.321000</ele>
        <time>2021-01-01T18:34:48.447Z</time>
      </trkpt>
      <trkpt lat="28.078516" lon="-15.643406">
        <ele>978.003000</ele>
        <time>2021-01-01T18:35:03.692Z</time>
      </trkpt>
      <trkpt lat="28.078471" lon="-15.643565">
        <ele>978.308000</ele>
        <time>2021-01-01T18:35:23.451Z</time>
      </trkpt>
      <trkpt lat="28.078396" lon="-15.643673">
        <ele>980.777000</ele>
        <time>2021-01-01T18:35:39.982Z</time>
      </trkpt>
      <trkpt lat="28.078343" lon="-15.643798">
        <ele>982.171000</ele>
        <time>2021-01-01T18:35:56.475Z</time>
      </trkpt>
      <trkpt lat="28.078326" lon="-15.643932">
        <ele>981.054000</ele>
        <time>2021-01-01T18:36:12.549Z</time>
      </trkpt>
      <trkpt lat="28.078358" lon="-15.644285">
        <ele>969.952000</ele>
        <time>2021-01-01T18:36:56.615Z</time>
      </trkpt>
      <trkpt lat="28.078459" lon="-15.644552">
        <ele>961.191000</ele>
        <time>2021-01-01T18:37:32.572Z</time>
      </trkpt>
      <trkpt lat="28.078568" lon="-15.644658">
        <ele>957.745000</ele>
        <time>2021-01-01T18:37:52.274Z</time>
      </trkpt>
      <trkpt lat="28.078801" lon="-15.644782">
        <ele>954.012000</ele>
        <time>2021-01-01T18:38:27.083Z</time>
      </trkpt>
      <trkpt lat="28.078873" lon="-15.644881">
        <ele>953.159000</ele>
        <time>2021-01-01T18:38:42.297Z</time>
      </trkpt>
      <trkpt lat="28.078953" lon="-15.644919">
        <ele>953.048000</ele>
        <time>2021-01-01T18:38:53.929Z</time>
      </trkpt>
      <trkpt lat="28.079113" lon="-15.644954">
        <ele>953.461000</ele>
        <time>2021-01-01T18:39:15.786Z</time>
      </trkpt>
      <trkpt lat="28.079274" lon="-15.644947">
        <ele>952.817000</ele>
        <time>2021-01-01T18:39:37.404Z</time>
      </trkpt>
      <trkpt lat="28.079382" lon="-15.644947">
        <ele>952.208000</ele>
        <time>2021-01-01T18:39:51.905Z</time>
      </trkpt>
      <trkpt lat="28.079651" lon="-15.644972">
        <ele>949.380000</ele>
        <time>2021-01-01T18:40:28.257Z</time>
      </trkpt>
      <trkpt lat="28.079779" lon="-15.645054">
        <ele>948.634000</ele>
        <time>2021-01-01T18:40:47.994Z</time>
      </trkpt>
      <trkpt lat="28.079865" lon="-15.645212">
        <ele>949.287000</ele>
        <time>2021-01-01T18:41:09.972Z</time>
      </trkpt>
      <trkpt lat="28.079853" lon="-15.645330">
        <ele>950.155000</ele>
        <time>2021-01-01T18:41:24.063Z</time>
      </trkpt>
      <trkpt lat="28.080044" lon="-15.645317">
        <ele>946.734000</ele>
        <time>2021-01-01T18:41:50.051Z</time>
      </trkpt>
      <trkpt lat="28.080115" lon="-15.645321">
        <ele>946.268000</ele>
        <time>2021-01-01T18:41:59.600Z</time>
      </trkpt>
      <trkpt lat="28.080313" lon="-15.645152">
        <ele>942.655000</ele>
        <time>2021-01-01T18:42:33.121Z</time>
      </trkpt>
      <trkpt lat="28.080813" lon="-15.645107">
        <ele>946.062000</ele>
        <time>2021-01-01T18:43:40.504Z</time>
      </trkpt>
      <trkpt lat="28.081080" lon="-15.645050">
        <ele>949.236000</ele>
        <time>2021-01-01T18:44:17.137Z</time>
      </trkpt>
      <trkpt lat="28.081255" lon="-15.644905">
        <ele>944.517000</ele>
        <time>2021-01-01T18:44:46.756Z</time>
      </trkpt>
      <trkpt lat="28.081305" lon="-15.644845">
        <ele>941.818000</ele>
        <time>2021-01-01T18:44:57.049Z</time>
      </trkpt>
      <trkpt lat="28.081385" lon="-15.644660">
        <ele>932.508000</ele>
        <time>2021-01-01T18:45:23.885Z</time>
      </trkpt>
      <trkpt lat="28.081473" lon="-15.644543">
        <ele>926.199000</ele>
        <time>2021-01-01T18:45:43.601Z</time>
      </trkpt>
      <trkpt lat="28.081555" lon="-15.644416">
        <ele>920.123000</ele>
        <time>2021-01-01T18:46:03.609Z</time>
      </trkpt>
      <trkpt lat="28.081713" lon="-15.644087">
        <ele>908.656000</ele>
        <time>2021-01-01T18:46:50.032Z</time>
      </trkpt>
      <trkpt lat="28.082203" lon="-15.643555">
        <ele>891.324000</ele>
        <time>2021-01-01T18:48:23.389Z</time>
      </trkpt>
      <trkpt lat="28.082407" lon="-15.643410">
        <ele>883.063000</ele>
        <time>2021-01-01T18:48:57.180Z</time>
      </trkpt>
      <trkpt lat="28.082692" lon="-15.643218">
        <ele>876.427000</ele>
        <time>2021-01-01T18:49:42.351Z</time>
      </trkpt>
      <trkpt lat="28.082871" lon="-15.643067">
        <ele>872.514000</ele>
        <time>2021-01-01T18:50:12.642Z</time>
      </trkpt>
      <trkpt lat="28.082913" lon="-15.642995">
        <ele>870.881000</ele>
        <time>2021-01-01T18:50:23.042Z</time>
      </trkpt>
      <trkpt lat="28.083041" lon="-15.642881">
        <ele>867.965000</ele>
        <time>2021-01-01T18:50:45.152Z</time>
      </trkpt>
      <trkpt lat="28.083208" lon="-15.642709">
        <ele>863.168000</ele>
        <time>2021-01-01T18:51:15.958Z</time>
      </trkpt>
      <trkpt lat="28.083321" lon="-15.642662">
        <ele>861.314000</ele>
        <time>2021-01-01T18:51:32.252Z</time>
      </trkpt>
      <trkpt lat="28.083451" lon="-15.642669">
        <ele>860.908000</ele>
        <time>2021-01-01T18:51:49.711Z</time>
      </trkpt>
      <trkpt lat="28.083603" lon="-15.642726">
        <ele>861.152000</ele>
        <time>2021-01-01T18:52:11.181Z</time>
      </trkpt>
      <trkpt lat="28.083786" lon="-15.642757">
        <ele>856.716000</ele>
        <time>2021-01-01T18:52:36.563Z</time>
      </trkpt>
      <trkpt lat="28.084126" lon="-15.642739">
        <ele>851.539000</ele>
        <time>2021-01-01T18:53:22.629Z</time>
      </trkpt>
      <trkpt lat="28.084442" lon="-15.642750">
        <ele>848.997000</ele>
        <time>2021-01-01T18:54:05.133Z</time>
      </trkpt>
      <trkpt lat="28.084557" lon="-15.642809">
        <ele>848.016000</ele>
        <time>2021-01-01T18:54:22.101Z</time>
      </trkpt>
      <trkpt lat="28.084734" lon="-15.642783">
        <ele>846.820000</ele>
        <time>2021-01-01T18:54:46.078Z</time>
      </trkpt>
      <trkpt lat="28.085118" lon="-15.642758">
        <ele>843.037000</ele>
        <time>2021-01-01T18:55:37.856Z</time>
      </trkpt>
      <trkpt lat="28.085347" lon="-15.642740">
        <ele>840.674000</ele>
        <time>2021-01-01T18:56:08.768Z</time>
      </trkpt>
      <trkpt lat="28.085465" lon="-15.642747">
        <ele>840.863000</ele>
        <time>2021-01-01T18:56:24.615Z</time>
      </trkpt>
      <trkpt lat="28.085638" lon="-15.642781">
        <ele>841.744000</ele>
        <time>2021-01-01T18:56:48.183Z</time>
      </trkpt>
      <trkpt lat="28.085867" lon="-15.642854">
        <ele>841.418000</ele>
        <time>2021-01-01T18:57:20.084Z</time>
      </trkpt>
      <trkpt lat="28.086071" lon="-15.642900">
        <ele>841.208000</ele>
        <time>2021-01-01T18:57:47.976Z</time>
      </trkpt>
      <trkpt lat="28.086277" lon="-15.642921">
        <ele>839.082000</ele>
        <time>2021-01-01T18:58:15.829Z</time>
      </trkpt>
      <trkpt lat="28.086480" lon="-15.642899">
        <ele>836.716000</ele>
        <time>2021-01-01T18:58:43.322Z</time>
      </trkpt>
      <trkpt lat="28.086954" lon="-15.642757">
        <ele>834.879000</ele>
        <time>2021-01-01T18:59:49.102Z</time>
      </trkpt>
      <trkpt lat="28.087166" lon="-15.642732">
        <ele>833.627000</ele>
        <time>2021-01-01T19:00:17.723Z</time>
      </trkpt>
      <trkpt lat="28.087382" lon="-15.642750">
        <ele>831.496000</ele>
        <time>2021-01-01T19:00:46.879Z</time>
      </trkpt>
      <trkpt lat="28.087746" lon="-15.642847">
        <ele>827.340000</ele>
        <time>2021-01-01T19:01:37.269Z</time>
      </trkpt>
      <trkpt lat="28.087956" lon="-15.642909">
        <ele>824.657000</ele>
        <time>2021-01-01T19:02:06.547Z</time>
      </trkpt>
      <trkpt lat="28.088379" lon="-15.643069">
        <ele>819.154000</ele>
        <time>2021-01-01T19:03:06.711Z</time>
      </trkpt>
      <trkpt lat="28.089163" lon="-15.643323">
        <ele>809.961000</ele>
        <time>2021-01-01T19:04:56.610Z</time>
      </trkpt>
      <trkpt lat="28.089365" lon="-15.643398">
        <ele>807.721000</ele>
        <time>2021-01-01T19:05:25.240Z</time>
      </trkpt>
      <trkpt lat="28.089478" lon="-15.643463">
        <ele>806.313000</ele>
        <time>2021-01-01T19:05:42.317Z</time>
      </trkpt>
      <trkpt lat="28.089936" lon="-15.643805">
        <ele>799.608000</ele>
        <time>2021-01-01T19:06:56.303Z</time>
      </trkpt>
      <trkpt lat="28.090048" lon="-15.643871">
        <ele>797.962000</ele>
        <time>2021-01-01T19:07:13.346Z</time>
      </trkpt>
      <trkpt lat="28.090023" lon="-15.643780">
        <ele>798.636000</ele>
        <time>2021-01-01T19:07:24.650Z</time>
      </trkpt>
      <trkpt lat="28.090023" lon="-15.643780">
        <ele>798.679000</ele>
        <time>2021-01-01T19:07:24.702Z</time>
      </trkpt>
      <trkpt lat="28.090048" lon="-15.643871">
        <ele>797.927000</ele>
        <time>2021-01-01T19:07:36.013Z</time>
      </trkpt>
      <trkpt lat="28.090102" lon="-15.643891">
        <ele>797.586000</ele>
        <time>2021-01-01T19:07:43.642Z</time>
      </trkpt>
      <trkpt lat="28.090247" lon="-15.643869">
        <ele>797.120000</ele>
        <time>2021-01-01T19:08:03.267Z</time>
      </trkpt>
      <trkpt lat="28.090426" lon="-15.643803">
        <ele>796.687000</ele>
        <time>2021-01-01T19:08:28.513Z</time>
      </trkpt>
      <trkpt lat="28.090527" lon="-15.643745">
        <ele>796.544000</ele>
        <time>2021-01-01T19:08:43.696Z</time>
      </trkpt>
      <trkpt lat="28.090607" lon="-15.643670">
        <ele>796.629000</ele>
        <time>2021-01-01T19:08:57.618Z</time>
      </trkpt>
      <trkpt lat="28.090826" lon="-15.643431">
        <ele>794.700000</ele>
        <time>2021-01-01T19:09:38.448Z</time>
      </trkpt>
      <trkpt lat="28.091095" lon="-15.643225">
        <ele>791.120000</ele>
        <time>2021-01-01T19:10:22.193Z</time>
      </trkpt>
      <trkpt lat="28.091175" lon="-15.643161">
        <ele>789.808000</ele>
        <time>2021-01-01T19:10:35.418Z</time>
      </trkpt>
      <trkpt lat="28.091317" lon="-15.643097">
        <ele>788.668000</ele>
        <time>2021-01-01T19:10:55.955Z</time>
      </trkpt>
      <trkpt lat="28.091442" lon="-15.643086">
        <ele>788.592000</ele>
        <time>2021-01-01T19:11:12.768Z</time>
      </trkpt>
      <trkpt lat="28.091631" lon="-15.643136">
        <ele>789.275000</ele>
        <time>2021-01-01T19:11:38.805Z</time>
      </trkpt>
      <trkpt lat="28.091765" lon="-15.643141">
        <ele>789.333000</ele>
        <time>2021-01-01T19:11:56.784Z</time>
      </trkpt>
      <trkpt lat="28.091891" lon="-15.643094">
        <ele>789.122000</ele>
        <time>2021-01-01T19:12:14.572Z</time>
      </trkpt>
      <trkpt lat="28.092335" lon="-15.642739">
        <ele>785.836000</ele>
        <time>2021-01-01T19:13:27.538Z</time>
      </trkpt>
      <trkpt lat="28.092526" lon="-15.642583">
        <ele>783.763000</ele>
        <time>2021-01-01T19:13:59.204Z</time>
      </trkpt>
      <trkpt lat="28.092713" lon="-15.642444">
        <ele>778.670000</ele>
        <time>2021-01-01T19:14:29.813Z</time>
      </trkpt>
      <trkpt lat="28.093104" lon="-15.642241">
        <ele>772.856000</ele>
        <time>2021-01-01T19:15:27.905Z</time>
      </trkpt>
      <trkpt lat="28.093800" lon="-15.641964">
        <ele>763.159000</ele>
        <time>2021-01-01T19:17:07.508Z</time>
      </trkpt>
      <trkpt lat="28.094427" lon="-15.641718">
        <ele>758.714000</ele>
        <time>2021-01-01T19:18:36.639Z</time>
      </trkpt>
      <trkpt lat="28.094609" lon="-15.641656">
        <ele>757.808000</ele>
        <time>2021-01-01T19:19:02.145Z</time>
      </trkpt>
      <trkpt lat="28.094736" lon="-15.641616">
        <ele>757.091000</ele>
        <time>2021-01-01T19:19:19.842Z</time>
      </trkpt>
      <trkpt lat="28.094876" lon="-15.641573">
        <ele>756.225000</ele>
        <time>2021-01-01T19:19:39.319Z</time>
      </trkpt>
      <trkpt lat="28.095394" lon="-15.641406">
        <ele>754.818000</ele>
        <time>2021-01-01T19:20:51.554Z</time>
      </trkpt>
      <trkpt lat="28.096043" lon="-15.641143">
        <ele>755.196000</ele>
        <time>2021-01-01T19:22:23.975Z</time>
      </trkpt>
      <trkpt lat="28.096894" lon="-15.640829">
        <ele>754.685000</ele>
        <time>2021-01-01T19:24:23.982Z</time>
      </trkpt>
      <trkpt lat="28.097342" lon="-15.640718">
        <ele>752.079000</ele>
        <time>2021-01-01T19:25:25.555Z</time>
      </trkpt>
      <trkpt lat="28.097405" lon="-15.640713">
        <ele>751.496000</ele>
        <time>2021-01-01T19:25:34.052Z</time>
      </trkpt>
      <trkpt lat="28.098057" lon="-15.640670">
        <ele>745.693000</ele>
        <time>2021-01-01T19:27:01.908Z</time>
      </trkpt>
      <trkpt lat="28.098330" lon="-15.640689">
        <ele>742.476000</ele>
        <time>2021-01-01T19:27:38.789Z</time>
      </trkpt>
      <trkpt lat="28.098933" lon="-15.640846">
        <ele>740.590000</ele>
        <time>2021-01-01T19:29:01.783Z</time>
      </trkpt>
      <trkpt lat="28.099184" lon="-15.640866">
        <ele>737.619000</ele>
        <time>2021-01-01T19:29:35.713Z</time>
      </trkpt>
      <trkpt lat="28.099499" lon="-15.640854">
        <ele>734.408000</ele>
        <time>2021-01-01T19:30:18.153Z</time>
      </trkpt>
      <trkpt lat="28.099793" lon="-15.640792">
        <ele>732.733000</ele>
        <time>2021-01-01T19:30:58.304Z</time>
      </trkpt>
      <trkpt lat="28.099966" lon="-15.640726">
        <ele>731.867000</ele>
        <time>2021-01-01T19:31:22.802Z</time>
      </trkpt>
      <trkpt lat="28.100275" lon="-15.640480">
        <ele>730.050000</ele>
        <time>2021-01-01T19:32:13.481Z</time>
      </trkpt>
      <trkpt lat="28.100401" lon="-15.640430">
        <ele>727.068000</ele>
        <time>2021-01-01T19:32:31.740Z</time>
      </trkpt>
      <trkpt lat="28.100956" lon="-15.640326">
        <ele>715.767000</ele>
        <time>2021-01-01T19:33:48.392Z</time>
      </trkpt>
      <trkpt lat="28.101508" lon="-15.640189">
        <ele>709.721000</ele>
        <time>2021-01-01T19:35:04.515Z</time>
      </trkpt>
      <trkpt lat="28.101679" lon="-15.640166">
        <ele>707.598000</ele>
        <time>2021-01-01T19:35:27.747Z</time>
      </trkpt>
      <trkpt lat="28.101742" lon="-15.640172">
        <ele>705.635000</ele>
        <time>2021-01-01T19:35:36.549Z</time>
      </trkpt>
      <trkpt lat="28.101923" lon="-15.640156">
        <ele>701.366000</ele>
        <time>2021-01-01T19:36:01.432Z</time>
      </trkpt>
      <trkpt lat="28.101992" lon="-15.640111">
        <ele>700.529000</ele>
        <time>2021-01-01T19:36:12.154Z</time>
      </trkpt>
      <trkpt lat="28.102114" lon="-15.640087">
        <ele>696.921000</ele>
        <time>2021-01-01T19:36:29.318Z</time>
      </trkpt>
      <trkpt lat="28.102280" lon="-15.639959">
        <ele>694.208000</ele>
        <time>2021-01-01T19:36:56.437Z</time>
      </trkpt>
      <trkpt lat="28.102333" lon="-15.639876">
        <ele>693.152000</ele>
        <time>2021-01-01T19:37:08.623Z</time>
      </trkpt>
      <trkpt lat="28.102341" lon="-15.639825">
        <ele>693.266000</ele>
        <time>2021-01-01T19:37:14.752Z</time>
      </trkpt>
      <trkpt lat="28.102373" lon="-15.639804">
        <ele>692.459000</ele>
        <time>2021-01-01T19:37:19.805Z</time>
      </trkpt>
      <trkpt lat="28.102423" lon="-15.639835">
        <ele>690.857000</ele>
        <time>2021-01-01T19:37:27.687Z</time>
      </trkpt>
      <trkpt lat="28.102505" lon="-15.639917">
        <ele>687.726000</ele>
        <time>2021-01-01T19:37:42.827Z</time>
      </trkpt>
      <trkpt lat="28.102597" lon="-15.639948">
        <ele>685.730000</ele>
        <time>2021-01-01T19:37:55.921Z</time>
      </trkpt>
      <trkpt lat="28.102785" lon="-15.639918">
        <ele>682.797000</ele>
        <time>2021-01-01T19:38:21.623Z</time>
      </trkpt>
      <trkpt lat="28.102911" lon="-15.639930">
        <ele>680.864000</ele>
        <time>2021-01-01T19:38:38.738Z</time>
      </trkpt>
      <trkpt lat="28.103165" lon="-15.639909">
        <ele>677.625000</ele>
        <time>2021-01-01T19:39:13.110Z</time>
      </trkpt>
      <trkpt lat="28.103409" lon="-15.639851">
        <ele>674.026000</ele>
        <time>2021-01-01T19:39:46.821Z</time>
      </trkpt>
      <trkpt lat="28.103524" lon="-15.639779">
        <ele>672.108000</ele>
        <time>2021-01-01T19:40:04.588Z</time>
      </trkpt>
      <trkpt lat="28.103573" lon="-15.639704">
        <ele>671.908000</ele>
        <time>2021-01-01T19:40:15.631Z</time>
      </trkpt>
      <trkpt lat="28.103670" lon="-15.639718">
        <ele>669.038000</ele>
        <time>2021-01-01T19:40:29.192Z</time>
      </trkpt>
      <trkpt lat="28.103970" lon="-15.639705">
        <ele>660.432000</ele>
        <time>2021-01-01T19:41:10.765Z</time>
      </trkpt>
      <trkpt lat="28.104048" lon="-15.639670">
        <ele>659.495000</ele>
        <time>2021-01-01T19:41:22.070Z</time>
      </trkpt>
      <trkpt lat="28.104346" lon="-15.639516">
        <ele>655.973000</ele>
        <time>2021-01-01T19:42:06.191Z</time>
      </trkpt>
      <trkpt lat="28.104565" lon="-15.639450">
        <ele>651.752000</ele>
        <time>2021-01-01T19:42:37Z</time>
      </trkpt>
      <trkpt lat="28.104756" lon="-15.639321">
        <ele>646.326000</ele>
        <time>2021-01-01T19:43:07.523Z</time>
      </trkpt>
      <trkpt lat="28.104817" lon="-15.639201">
        <ele>645.033000</ele>
        <time>2021-01-01T19:43:23.979Z</time>
      </trkpt>
      <trkpt lat="28.104952" lon="-15.639017">
        <ele>643.620000</ele>
        <time>2021-01-01T19:43:52.338Z</time>
      </trkpt>
      <trkpt lat="28.105059" lon="-15.638990">
        <ele>643.187000</ele>
        <time>2021-01-01T19:44:07.047Z</time>
      </trkpt>
      <trkpt lat="28.105044" lon="-15.638913">
        <ele>644.142000</ele>
        <time>2021-01-01T19:44:16.445Z</time>
      </trkpt>
      <trkpt lat="28.105046" lon="-15.638848">
        <ele>643.026000</ele>
        <time>2021-01-01T19:44:24.254Z</time>
      </trkpt>
      <trkpt lat="28.105101" lon="-15.638816">
        <ele>641.508000</ele>
        <time>2021-01-01T19:44:32.744Z</time>
      </trkpt>
      <trkpt lat="28.105177" lon="-15.638812">
        <ele>640.954000</ele>
        <time>2021-01-01T19:44:42.968Z</time>
      </trkpt>
      <trkpt lat="28.105173" lon="-15.638749">
        <ele>639.248000</ele>
        <time>2021-01-01T19:44:50.717Z</time>
      </trkpt>
      <trkpt lat="28.105114" lon="-15.638728">
        <ele>638.671000</ele>
        <time>2021-01-01T19:44:59.038Z</time>
      </trkpt>
      <trkpt lat="28.105173" lon="-15.638640">
        <ele>636.159000</ele>
        <time>2021-01-01T19:45:12.459Z</time>
      </trkpt>
      <trkpt lat="28.105284" lon="-15.638688">
        <ele>637.888000</ele>
        <time>2021-01-01T19:45:28.525Z</time>
      </trkpt>
      <trkpt lat="28.105240" lon="-15.638481">
        <ele>632.412000</ele>
        <time>2021-01-01T19:45:54.561Z</time>
      </trkpt>
      <trkpt lat="28.105360" lon="-15.638499">
        <ele>634.879000</ele>
        <time>2021-01-01T19:46:11.063Z</time>
      </trkpt>
      <trkpt lat="28.105454" lon="-15.638590">
        <ele>638.746000</ele>
        <time>2021-01-01T19:46:28.282Z</time>
      </trkpt>
      <trkpt lat="28.105505" lon="-15.638716">
        <ele>640.834000</ele>
        <time>2021-01-01T19:46:44.871Z</time>
      </trkpt>
      <trkpt lat="28.105521" lon="-15.638849">
        <ele>641.755000</ele>
        <time>2021-01-01T19:47:00.787Z</time>
      </trkpt>
      <trkpt lat="28.105498" lon="-15.638996">
        <ele>639.710000</ele>
        <time>2021-01-01T19:47:18.617Z</time>
      </trkpt>
      <trkpt lat="28.105343" lon="-15.639307">
        <ele>630.308000</ele>
        <time>2021-01-01T19:48:02.363Z</time>
      </trkpt>
      <trkpt lat="28.105242" lon="-15.639571">
        <ele>619.899000</ele>
        <time>2021-01-01T19:48:38.641Z</time>
      </trkpt>
      <trkpt lat="28.105181" lon="-15.639680">
        <ele>617.793000</ele>
        <time>2021-01-01T19:48:54.119Z</time>
      </trkpt>
      <trkpt lat="28.105067" lon="-15.639775">
        <ele>621.666000</ele>
        <time>2021-01-01T19:49:13.658Z</time>
      </trkpt>
      <trkpt lat="28.104784" lon="-15.639896">
        <ele>632.414000</ele>
        <time>2021-01-01T19:49:56.236Z</time>
      </trkpt>
      <trkpt lat="28.104714" lon="-15.639951">
        <ele>634.053000</ele>
        <time>2021-01-01T19:50:07.826Z</time>
      </trkpt>
      <trkpt lat="28.104691" lon="-15.640002">
        <ele>632.877000</ele>
        <time>2021-01-01T19:50:14.748Z</time>
      </trkpt>
      <trkpt lat="28.104685" lon="-15.640048">
        <ele>630.734000</ele>
        <time>2021-01-01T19:50:20.825Z</time>
      </trkpt>
      <trkpt lat="28.104697" lon="-15.640092">
        <ele>628.191000</ele>
        <time>2021-01-01T19:50:27.076Z</time>
      </trkpt>
      <trkpt lat="28.104735" lon="-15.640127">
        <ele>624.775000</ele>
        <time>2021-01-01T19:50:34.827Z</time>
      </trkpt>
      <trkpt lat="28.104781" lon="-15.640139">
        <ele>622.028000</ele>
        <time>2021-01-01T19:50:41.971Z</time>
      </trkpt>
      <trkpt lat="28.104866" lon="-15.640109">
        <ele>619.220000</ele>
        <time>2021-01-01T19:50:54.379Z</time>
      </trkpt>
      <trkpt lat="28.105246" lon="-15.639851">
        <ele>607.008000</ele>
        <time>2021-01-01T19:51:55.572Z</time>
      </trkpt>
      <trkpt lat="28.105309" lon="-15.639797">
        <ele>605.473000</ele>
        <time>2021-01-01T19:52:06.323Z</time>
      </trkpt>
      <trkpt lat="28.105368" lon="-15.639712">
        <ele>605.827000</ele>
        <time>2021-01-01T19:52:19.124Z</time>
      </trkpt>
      <trkpt lat="28.105507" lon="-15.639451">
        <ele>617.080000</ele>
        <time>2021-01-01T19:52:57.654Z</time>
      </trkpt>
      <trkpt lat="28.105589" lon="-15.639354">
        <ele>621.738000</ele>
        <time>2021-01-01T19:53:14.509Z</time>
      </trkpt>
      <trkpt lat="28.105706" lon="-15.639276">
        <ele>625.267000</ele>
        <time>2021-01-01T19:53:33.201Z</time>
      </trkpt>
      <trkpt lat="28.106436" lon="-15.639059">
        <ele>619.061000</ele>
        <time>2021-01-01T19:55:14.674Z</time>
      </trkpt>
      <trkpt lat="28.106577" lon="-15.639038">
        <ele>616.078000</ele>
        <time>2021-01-01T19:55:34.080Z</time>
      </trkpt>
      <trkpt lat="28.106802" lon="-15.639044">
        <ele>612.935000</ele>
        <time>2021-01-01T19:56:04.496Z</time>
      </trkpt>
      <trkpt lat="28.107460" lon="-15.639096">
        <ele>601.762000</ele>
        <time>2021-01-01T19:57:33.964Z</time>
      </trkpt>
      <trkpt lat="28.107436" lon="-15.639125">
        <ele>600.783000</ele>
        <time>2021-01-01T19:57:38.813Z</time>
      </trkpt>
      <trkpt lat="28.107256" lon="-15.639195">
        <ele>599.911000</ele>
        <time>2021-01-01T19:58:04.352Z</time>
      </trkpt>
      <trkpt lat="28.107167" lon="-15.639246">
        <ele>599.008000</ele>
        <time>2021-01-01T19:58:17.769Z</time>
      </trkpt>
      <trkpt lat="28.107195" lon="-15.639283">
        <ele>596.592000</ele>
        <time>2021-01-01T19:58:24.229Z</time>
      </trkpt>
      <trkpt lat="28.107510" lon="-15.639376">
        <ele>589.646000</ele>
        <time>2021-01-01T19:59:08.674Z</time>
      </trkpt>
      <trkpt lat="28.107596" lon="-15.639439">
        <ele>587.139000</ele>
        <time>2021-01-01T19:59:22.732Z</time>
      </trkpt>
      <trkpt lat="28.107609" lon="-15.639462">
        <ele>586.227000</ele>
        <time>2021-01-01T19:59:26.145Z</time>
      </trkpt>
      <trkpt lat="28.107609" lon="-15.639462">
        <ele>586.246000</ele>
        <time>2021-01-01T19:59:26.168Z</time>
      </trkpt>
      <trkpt lat="28.107647" lon="-15.639533">
        <ele>583.450000</ele>
        <time>2021-01-01T19:59:36.554Z</time>
      </trkpt>
      <trkpt lat="28.107731" lon="-15.639622">
        <ele>580.317000</ele>
        <time>2021-01-01T19:59:52.427Z</time>
      </trkpt>
      <trkpt lat="28.107899" lon="-15.639668">
        <ele>577.624000</ele>
        <time>2021-01-01T20:00:15.829Z</time>
      </trkpt>
      <trkpt lat="28.108080" lon="-15.639680">
        <ele>575.193000</ele>
        <time>2021-01-01T20:00:40.317Z</time>
      </trkpt>
      <trkpt lat="28.108286" lon="-15.639725">
        <ele>569.565000</ele>
        <time>2021-01-01T20:01:09.255Z</time>
      </trkpt>
      <trkpt lat="28.108494" lon="-15.639730">
        <ele>567.221000</ele>
        <time>2021-01-01T20:01:37.296Z</time>
      </trkpt>
      <trkpt lat="28.108681" lon="-15.639803">
        <ele>560.108000</ele>
        <time>2021-01-01T20:02:05.169Z</time>
      </trkpt>
      <trkpt lat="28.108933" lon="-15.639574">
        <ele>565.945000</ele>
        <time>2021-01-01T20:02:49.044Z</time>
      </trkpt>
      <trkpt lat="28.109070" lon="-15.639521">
        <ele>563.619000</ele>
        <time>2021-01-01T20:03:08.656Z</time>
      </trkpt>
      <trkpt lat="28.109372" lon="-15.639448">
        <ele>556.032000</ele>
        <time>2021-01-01T20:03:51.061Z</time>
      </trkpt>
      <trkpt lat="28.109518" lon="-15.639210">
        <ele>560.450000</ele>
        <time>2021-01-01T20:04:25.761Z</time>
      </trkpt>
      <trkpt lat="28.109558" lon="-15.639211">
        <ele>559.439000</ele>
        <time>2021-01-01T20:04:31.263Z</time>
      </trkpt>
      <trkpt lat="28.109740" lon="-15.639150">
        <ele>557.333000</ele>
        <time>2021-01-01T20:04:56.839Z</time>
      </trkpt>
      <trkpt lat="28.109955" lon="-15.639115">
        <ele>554.960000</ele>
        <time>2021-01-01T20:05:26.104Z</time>
      </trkpt>
      <trkpt lat="28.110297" lon="-15.639082">
        <ele>549.737000</ele>
        <time>2021-01-01T20:06:12.559Z</time>
      </trkpt>
      <trkpt lat="28.110525" lon="-15.639103">
        <ele>544.341000</ele>
        <time>2021-01-01T20:06:43.915Z</time>
      </trkpt>
      <trkpt lat="28.110726" lon="-15.639153">
        <ele>541.681000</ele>
        <time>2021-01-01T20:07:11.695Z</time>
      </trkpt>
      <trkpt lat="28.110890" lon="-15.639241">
        <ele>539.509000</ele>
        <time>2021-01-01T20:07:36.166Z</time>
      </trkpt>
      <trkpt lat="28.111033" lon="-15.639300">
        <ele>536.508000</ele>
        <time>2021-01-01T20:07:56.890Z</time>
      </trkpt>
      <trkpt lat="28.111191" lon="-15.639302">
        <ele>533.140000</ele>
        <time>2021-01-01T20:08:18.463Z</time>
      </trkpt>
      <trkpt lat="28.111555" lon="-15.639240">
        <ele>526.784000</ele>
        <time>2021-01-01T20:09:08.412Z</time>
      </trkpt>
      <trkpt lat="28.111832" lon="-15.639202">
        <ele>521.087000</ele>
        <time>2021-01-01T20:09:46.453Z</time>
      </trkpt>
      <trkpt lat="28.111973" lon="-15.639224">
        <ele>518.265000</ele>
        <time>2021-01-01T20:10:05.839Z</time>
      </trkpt>
      <trkpt lat="28.112070" lon="-15.639195">
        <ele>519.054000</ele>
        <time>2021-01-01T20:10:19.324Z</time>
      </trkpt>
      <trkpt lat="28.112124" lon="-15.639154">
        <ele>519.788000</ele>
        <time>2021-01-01T20:10:28.084Z</time>
      </trkpt>
      <trkpt lat="28.112217" lon="-15.639109">
        <ele>520.455000</ele>
        <time>2021-01-01T20:10:41.667Z</time>
      </trkpt>
      <trkpt lat="28.112351" lon="-15.639054">
        <ele>518.682000</ele>
        <time>2021-01-01T20:11:00.895Z</time>
      </trkpt>
      <trkpt lat="28.112423" lon="-15.639014">
        <ele>517.866000</ele>
        <time>2021-01-01T20:11:11.692Z</time>
      </trkpt>
      <trkpt lat="28.112559" lon="-15.638932">
        <ele>516.029000</ele>
        <time>2021-01-01T20:11:32.465Z</time>
      </trkpt>
      <trkpt lat="28.112656" lon="-15.638899">
        <ele>514.321000</ele>
        <time>2021-01-01T20:11:46.201Z</time>
      </trkpt>
      <trkpt lat="28.112801" lon="-15.638846">
        <ele>511.808000</ele>
        <time>2021-01-01T20:12:06.853Z</time>
      </trkpt>
      <trkpt lat="28.112946" lon="-15.638750">
        <ele>510.382000</ele>
        <time>2021-01-01T20:12:29.435Z</time>
      </trkpt>
      <trkpt lat="28.112994" lon="-15.638697">
        <ele>509.786000</ele>
        <time>2021-01-01T20:12:38.448Z</time>
      </trkpt>
      <trkpt lat="28.113049" lon="-15.638666">
        <ele>509.039000</ele>
        <time>2021-01-01T20:12:46.733Z</time>
      </trkpt>
      <trkpt lat="28.113175" lon="-15.638620">
        <ele>507.667000</ele>
        <time>2021-01-01T20:13:04.560Z</time>
      </trkpt>
      <trkpt lat="28.113280" lon="-15.638571">
        <ele>506.456000</ele>
        <time>2021-01-01T20:13:19.856Z</time>
      </trkpt>
      <trkpt lat="28.113375" lon="-15.638525">
        <ele>505.240000</ele>
        <time>2021-01-01T20:13:33.785Z</time>
      </trkpt>
      <trkpt lat="28.113516" lon="-15.638445">
        <ele>503.487000</ele>
        <time>2021-01-01T20:13:55.033Z</time>
      </trkpt>
      <trkpt lat="28.113663" lon="-15.638359">
        <ele>501.914000</ele>
        <time>2021-01-01T20:14:17.295Z</time>
      </trkpt>
      <trkpt lat="28.113810" lon="-15.638276">
        <ele>500.111000</ele>
        <time>2021-01-01T20:14:39.423Z</time>
      </trkpt>
      <trkpt lat="28.113961" lon="-15.638209">
        <ele>499.321000</ele>
        <time>2021-01-01T20:15:01.187Z</time>
      </trkpt>
      <trkpt lat="28.114085" lon="-15.638209">
        <ele>499.203000</ele>
        <time>2021-01-01T20:15:17.815Z</time>
      </trkpt>
      <trkpt lat="28.114334" lon="-15.638317">
        <ele>494.908000</ele>
        <time>2021-01-01T20:15:53.938Z</time>
      </trkpt>
      <trkpt lat="28.114434" lon="-15.638403">
        <ele>490.547000</ele>
        <time>2021-01-01T20:16:11.571Z</time>
      </trkpt>
      <trkpt lat="28.114508" lon="-15.638475">
        <ele>486.911000</ele>
        <time>2021-01-01T20:16:25.362Z</time>
      </trkpt>
      <trkpt lat="28.114661" lon="-15.638525">
        <ele>483.114000</ele>
        <time>2021-01-01T20:16:47.199Z</time>
      </trkpt>
      <trkpt lat="28.114836" lon="-15.638502">
        <ele>483.112000</ele>
        <time>2021-01-01T20:17:10.822Z</time>
      </trkpt>
      <trkpt lat="28.114941" lon="-15.638510">
        <ele>482.691000</ele>
        <time>2021-01-01T20:17:24.943Z</time>
      </trkpt>
      <trkpt lat="28.115166" lon="-15.638509">
        <ele>486.085000</ele>
        <time>2021-01-01T20:17:55.390Z</time>
      </trkpt>
      <trkpt lat="28.115324" lon="-15.638614">
        <ele>480.472000</ele>
        <time>2021-01-01T20:18:20.864Z</time>
      </trkpt>
      <trkpt lat="28.115393" lon="-15.638647">
        <ele>478.569000</ele>
        <time>2021-01-01T20:18:31.165Z</time>
      </trkpt>
      <trkpt lat="28.115496" lon="-15.638672">
        <ele>476.885000</ele>
        <time>2021-01-01T20:18:45.435Z</time>
      </trkpt>
      <trkpt lat="28.115660" lon="-15.638693">
        <ele>469.589000</ele>
        <time>2021-01-01T20:19:09.251Z</time>
      </trkpt>
      <trkpt lat="28.115713" lon="-15.638712">
        <ele>465.117000</ele>
        <time>2021-01-01T20:19:18.451Z</time>
      </trkpt>
      <trkpt lat="28.115738" lon="-15.638759">
        <ele>459.608000</ele>
        <time>2021-01-01T20:19:27.739Z</time>
      </trkpt>
      <trkpt lat="28.115792" lon="-15.638795">
        <ele>454.524000</ele>
        <time>2021-01-01T20:19:38.138Z</time>
      </trkpt>
      <trkpt lat="28.115822" lon="-15.638809">
        <ele>452.428000</ele>
        <time>2021-01-01T20:19:43.170Z</time>
      </trkpt>
      <trkpt lat="28.115927" lon="-15.638808">
        <ele>451.321000</ele>
        <time>2021-01-01T20:19:57.313Z</time>
      </trkpt>
      <trkpt lat="28.115956" lon="-15.638821">
        <ele>449.949000</ele>
        <time>2021-01-01T20:20:01.810Z</time>
      </trkpt>
      <trkpt lat="28.116022" lon="-15.638807">
        <ele>450.698000</ele>
        <time>2021-01-01T20:20:10.859Z</time>
      </trkpt>
      <trkpt lat="28.116267" lon="-15.638630">
        <ele>489.012000</ele>
        <time>2021-01-01T20:21:11.293Z</time>
      </trkpt>
      <trkpt lat="28.116322" lon="-15.638610">
        <ele>498.819000</ele>
        <time>2021-01-01T20:21:25.430Z</time>
      </trkpt>
      <trkpt lat="28.116442" lon="-15.638621">
        <ele>503.926000</ele>
        <time>2021-01-01T20:21:42.709Z</time>
      </trkpt>
      <trkpt lat="28.116524" lon="-15.638659">
        <ele>495.315000</ele>
        <time>2021-01-01T20:21:58.486Z</time>
      </trkpt>
      <trkpt lat="28.116642" lon="-15.638633">
        <ele>497.665000</ele>
        <time>2021-01-01T20:22:14.852Z</time>
      </trkpt>
      <trkpt lat="28.116730" lon="-15.638590">
        <ele>502.011000</ele>
        <time>2021-01-01T20:22:28.730Z</time>
      </trkpt>
      <trkpt lat="28.116782" lon="-15.638591">
        <ele>501.608000</ele>
        <time>2021-01-01T20:22:35.720Z</time>
      </trkpt>
      <trkpt lat="28.116906" lon="-15.638624">
        <ele>499.127000</ele>
        <time>2021-01-01T20:22:53.060Z</time>
      </trkpt>
      <trkpt lat="28.116999" lon="-15.638620">
        <ele>499.341000</ele>
        <time>2021-01-01T20:23:05.542Z</time>
      </trkpt>
      <trkpt lat="28.117165" lon="-15.638544">
        <ele>500.584000</ele>
        <time>2021-01-01T20:23:29.594Z</time>
      </trkpt>
      <trkpt lat="28.117337" lon="-15.638588">
        <ele>496.932000</ele>
        <time>2021-01-01T20:23:53.645Z</time>
      </trkpt>
      <trkpt lat="28.117730" lon="-15.638624">
        <ele>491.911000</ele>
        <time>2021-01-01T20:24:46.861Z</time>
      </trkpt>
      <trkpt lat="28.117785" lon="-15.638636">
        <ele>491.635000</ele>
        <time>2021-01-01T20:24:54.378Z</time>
      </trkpt>
      <trkpt lat="28.117869" lon="-15.638688">
        <ele>487.262000</ele>
        <time>2021-01-01T20:25:08.253Z</time>
      </trkpt>
      <trkpt lat="28.118140" lon="-15.638645">
        <ele>485.549000</ele>
        <time>2021-01-01T20:25:45.004Z</time>
      </trkpt>
      <trkpt lat="28.118355" lon="-15.638647">
        <ele>484.259000</ele>
        <time>2021-01-01T20:26:13.877Z</time>
      </trkpt>
      <trkpt lat="28.118504" lon="-15.638739">
        <ele>453.503000</ele>
        <time>2021-01-01T20:26:57.388Z</time>
      </trkpt>
      <trkpt lat="28.118601" lon="-15.638750">
        <ele>443.323000</ele>
        <time>2021-01-01T20:27:15.321Z</time>
      </trkpt>
      <trkpt lat="28.118721" lon="-15.638716">
        <ele>433.708000</ele>
        <time>2021-01-01T20:27:35.558Z</time>
      </trkpt>
      <trkpt lat="28.118748" lon="-15.638668">
        <ele>443.611000</ele>
        <time>2021-01-01T20:27:49.267Z</time>
      </trkpt>
      <trkpt lat="28.118756" lon="-15.638579">
        <ele>462.895000</ele>
        <time>2021-01-01T20:28:14.816Z</time>
      </trkpt>
      <trkpt lat="28.118859" lon="-15.638526">
        <ele>454.238000</ele>
        <time>2021-01-01T20:28:33.229Z</time>
      </trkpt>
      <trkpt lat="28.118946" lon="-15.638553">
        <ele>452.256000</ele>
        <time>2021-01-01T20:28:45.558Z</time>
      </trkpt>
      <trkpt lat="28.119204" lon="-15.638551">
        <ele>467.895000</ele>
        <time>2021-01-01T20:29:24.961Z</time>
      </trkpt>
      <trkpt lat="28.119477" lon="-15.638457">
        <ele>444.629000</ele>
        <time>2021-01-01T20:30:12.405Z</time>
      </trkpt>
      <trkpt lat="28.119658" lon="-15.638362">
        <ele>449.916000</ele>
        <time>2021-01-01T20:30:39.899Z</time>
      </trkpt>
      <trkpt lat="28.119778" lon="-15.638436">
        <ele>421.423000</ele>
        <time>2021-01-01T20:31:18.837Z</time>
      </trkpt>
      <trkpt lat="28.119892" lon="-15.638422">
        <ele>420.221000</ele>
        <time>2021-01-01T20:31:34.281Z</time>
      </trkpt>
      <trkpt lat="28.119965" lon="-15.638432">
        <ele>414.541000</ele>
        <time>2021-01-01T20:31:46.287Z</time>
      </trkpt>
      <trkpt lat="28.120131" lon="-15.638503">
        <ele>378.405000</ele>
        <time>2021-01-01T20:32:35.935Z</time>
      </trkpt>
      <trkpt lat="28.120266" lon="-15.638531">
        <ele>354.508000</ele>
        <time>2021-01-01T20:33:10.128Z</time>
      </trkpt>
      <trkpt lat="28.120552" lon="-15.638633">
        <ele>337.518000</ele>
        <time>2021-01-01T20:33:55.251Z</time>
      </trkpt>
      <trkpt lat="28.120610" lon="-15.638682">
        <ele>341.492000</ele>
        <time>2021-01-01T20:34:06.069Z</time>
      </trkpt>
      <trkpt lat="28.120669" lon="-15.638752">
        <ele>343.255000</ele>
        <time>2021-01-01T20:34:17.716Z</time>
      </trkpt>
      <trkpt lat="28.120793" lon="-15.638870">
        <ele>343.613000</ele>
        <time>2021-01-01T20:34:39.428Z</time>
      </trkpt>
      <trkpt lat="28.120858" lon="-15.638898">
        <ele>344.712000</ele>
        <time>2021-01-01T20:34:48.845Z</time>
      </trkpt>
      <trkpt lat="28.120909" lon="-15.638965">
        <ele>344.076000</ele>
        <time>2021-01-01T20:34:59.340Z</time>
      </trkpt>
      <trkpt lat="28.121004" lon="-15.639027">
        <ele>345.063000</ele>
        <time>2021-01-01T20:35:14.087Z</time>
      </trkpt>
      <trkpt lat="28.121144" lon="-15.639071">
        <ele>347.970000</ele>
        <time>2021-01-01T20:35:33.880Z</time>
      </trkpt>
      <trkpt lat="28.121300" lon="-15.639153">
        <ele>348.867000</ele>
        <time>2021-01-01T20:35:56.963Z</time>
      </trkpt>
      <trkpt lat="28.121395" lon="-15.639241">
        <ele>348.181000</ele>
        <time>2021-01-01T20:36:13.433Z</time>
      </trkpt>
      <trkpt lat="28.121460" lon="-15.639356">
        <ele>344.019000</ele>
        <time>2021-01-01T20:36:30.348Z</time>
      </trkpt>
      <trkpt lat="28.121468" lon="-15.639554">
        <ele>330.808000</ele>
        <time>2021-01-01T20:36:58.691Z</time>
      </trkpt>
      <trkpt lat="28.121590" lon="-15.639701">
        <ele>319.282000</ele>
        <time>2021-01-01T20:37:26.314Z</time>
      </trkpt>
      <trkpt lat="28.121725" lon="-15.639719">
        <ele>319.186000</ele>
        <time>2021-01-01T20:37:44.542Z</time>
      </trkpt>
      <trkpt lat="28.121905" lon="-15.639672">
        <ele>324.979000</ele>
        <time>2021-01-01T20:38:10.276Z</time>
      </trkpt>
      <trkpt lat="28.122010" lon="-15.639733">
        <ele>321.857000</ele>
        <time>2021-01-01T20:38:26.538Z</time>
      </trkpt>
      <trkpt lat="28.122151" lon="-15.639885">
        <ele>315.596000</ele>
        <time>2021-01-01T20:38:53.698Z</time>
      </trkpt>
      <trkpt lat="28.122233" lon="-15.639931">
        <ele>314.730000</ele>
        <time>2021-01-01T20:39:06.010Z</time>
      </trkpt>
      <trkpt lat="28.122319" lon="-15.639927">
        <ele>313.587000</ele>
        <time>2021-01-01T20:39:17.633Z</time>
      </trkpt>
      <trkpt lat="28.122441" lon="-15.639916">
        <ele>311.974000</ele>
        <time>2021-01-01T20:39:34.159Z</time>
      </trkpt>
      <trkpt lat="28.122706" lon="-15.639768">
        <ele>315.066000</ele>
        <time>2021-01-01T20:40:13.946Z</time>
      </trkpt>
      <trkpt lat="28.122811" lon="-15.639763">
        <ele>316.029000</ele>
        <time>2021-01-01T20:40:28.086Z</time>
      </trkpt>
      <trkpt lat="28.122927" lon="-15.639779">
        <ele>317.821000</ele>
        <time>2021-01-01T20:40:43.903Z</time>
      </trkpt>
      <trkpt lat="28.123072" lon="-15.639876">
        <ele>316.408000</ele>
        <time>2021-01-01T20:41:06.543Z</time>
      </trkpt>
      <trkpt lat="28.123213" lon="-15.639997">
        <ele>312.212000</ele>
        <time>2021-01-01T20:41:30.788Z</time>
      </trkpt>
      <trkpt lat="28.123318" lon="-15.640089">
        <ele>308.386000</ele>
        <time>2021-01-01T20:41:49.170Z</time>
      </trkpt>
      <trkpt lat="28.123385" lon="-15.640182">
        <ele>304.219000</ele>
        <time>2021-01-01T20:42:04.235Z</time>
      </trkpt>
      <trkpt lat="28.123469" lon="-15.640232">
        <ele>302.637000</ele>
        <time>2021-01-01T20:42:17.098Z</time>
      </trkpt>
      <trkpt lat="28.123631" lon="-15.640259">
        <ele>302.866000</ele>
        <time>2021-01-01T20:42:39.057Z</time>
      </trkpt>
      <trkpt lat="28.123759" lon="-15.640259">
        <ele>303.550000</ele>
        <time>2021-01-01T20:42:56.240Z</time>
      </trkpt>
      <trkpt lat="28.123883" lon="-15.640265">
        <ele>303.747000</ele>
        <time>2021-01-01T20:43:12.885Z</time>
      </trkpt>
      <trkpt lat="28.123984" lon="-15.640250">
        <ele>305.894000</ele>
        <time>2021-01-01T20:43:26.787Z</time>
      </trkpt>
      <trkpt lat="28.124138" lon="-15.640292">
        <ele>304.835000</ele>
        <time>2021-01-01T20:43:48.064Z</time>
      </trkpt>
      <trkpt lat="28.124274" lon="-15.640328">
        <ele>304.486000</ele>
        <time>2021-01-01T20:44:06.796Z</time>
      </trkpt>
      <trkpt lat="28.124379" lon="-15.640434">
        <ele>300.214000</ele>
        <time>2021-01-01T20:44:26.339Z</time>
      </trkpt>
      <trkpt lat="28.124501" lon="-15.640502">
        <ele>297.708000</ele>
        <time>2021-01-01T20:44:44.817Z</time>
      </trkpt>
      <trkpt lat="28.124661" lon="-15.640592">
        <ele>293.749000</ele>
        <time>2021-01-01T20:45:09.238Z</time>
      </trkpt>
      <trkpt lat="28.124770" lon="-15.640624">
        <ele>291.763000</ele>
        <time>2021-01-01T20:45:24.525Z</time>
      </trkpt>
      <trkpt lat="28.124863" lon="-15.640631">
        <ele>290.146000</ele>
        <time>2021-01-01T20:45:37.174Z</time>
      </trkpt>
      <trkpt lat="28.124974" lon="-15.640618">
        <ele>289.254000</ele>
        <time>2021-01-01T20:45:52.176Z</time>
      </trkpt>
      <trkpt lat="28.125044" lon="-15.640563">
        <ele>290.073000</ele>
        <time>2021-01-01T20:46:03.638Z</time>
      </trkpt>
      <trkpt lat="28.125155" lon="-15.640521">
        <ele>288.477000</ele>
        <time>2021-01-01T20:46:19.447Z</time>
      </trkpt>
      <trkpt lat="28.125264" lon="-15.640537">
        <ele>284.164000</ele>
        <time>2021-01-01T20:46:35.076Z</time>
      </trkpt>
      <trkpt lat="28.125431" lon="-15.640541">
        <ele>281.391000</ele>
        <time>2021-01-01T20:46:57.723Z</time>
      </trkpt>
      <trkpt lat="28.125637" lon="-15.640563">
        <ele>278.675000</ele>
        <time>2021-01-01T20:47:25.661Z</time>
      </trkpt>
      <trkpt lat="28.125880" lon="-15.640635">
        <ele>277.028000</ele>
        <time>2021-01-01T20:47:59.398Z</time>
      </trkpt>
      <trkpt lat="28.125954" lon="-15.640603">
        <ele>278.720000</ele>
        <time>2021-01-01T20:48:10.212Z</time>
      </trkpt>
      <trkpt lat="28.126036" lon="-15.640525">
        <ele>282.408000</ele>
        <time>2021-01-01T20:48:25.238Z</time>
      </trkpt>
      <trkpt lat="28.126112" lon="-15.640470">
        <ele>284.993000</ele>
        <time>2021-01-01T20:48:37.723Z</time>
      </trkpt>
      <trkpt lat="28.126276" lon="-15.640541">
        <ele>280.017000</ele>
        <time>2021-01-01T20:49:02.015Z</time>
      </trkpt>
      <trkpt lat="28.126374" lon="-15.640656">
        <ele>275.570000</ele>
        <time>2021-01-01T20:49:21.672Z</time>
      </trkpt>
      <trkpt lat="28.126442" lon="-15.640728">
        <ele>273.528000</ele>
        <time>2021-01-01T20:49:34.389Z</time>
      </trkpt>
      <trkpt lat="28.126551" lon="-15.640871">
        <ele>269.057000</ele>
        <time>2021-01-01T20:49:57.382Z</time>
      </trkpt>
      <trkpt lat="28.126742" lon="-15.640959">
        <ele>266.491000</ele>
        <time>2021-01-01T20:50:25.200Z</time>
      </trkpt>
      <trkpt lat="28.126944" lon="-15.641062">
        <ele>264.528000</ele>
        <time>2021-01-01T20:50:54.993Z</time>
      </trkpt>
      <trkpt lat="28.127051" lon="-15.641059">
        <ele>264.195000</ele>
        <time>2021-01-01T20:51:09.351Z</time>
      </trkpt>
      <trkpt lat="28.127261" lon="-15.641019">
        <ele>264.339000</ele>
        <time>2021-01-01T20:51:37.906Z</time>
      </trkpt>
      <trkpt lat="28.127701" lon="-15.641029">
        <ele>259.901000</ele>
        <time>2021-01-01T20:52:37.161Z</time>
      </trkpt>
      <trkpt lat="28.127859" lon="-15.641056">
        <ele>257.421000</ele>
        <time>2021-01-01T20:52:58.794Z</time>
      </trkpt>
      <trkpt lat="28.127953" lon="-15.641072">
        <ele>256.508000</ele>
        <time>2021-01-01T20:53:11.588Z</time>
      </trkpt>
      <trkpt lat="28.128176" lon="-15.641115">
        <ele>253.949000</ele>
        <time>2021-01-01T20:53:42.076Z</time>
      </trkpt>
      <trkpt lat="28.128392" lon="-15.641081">
        <ele>252.863000</ele>
        <time>2021-01-01T20:54:11.347Z</time>
      </trkpt>
      <trkpt lat="28.128479" lon="-15.641134">
        <ele>250.346000</ele>
        <time>2021-01-01T20:54:24.934Z</time>
      </trkpt>
      <trkpt lat="28.128643" lon="-15.641228">
        <ele>245.774000</ele>
        <time>2021-01-01T20:54:50.184Z</time>
      </trkpt>
      <trkpt lat="28.128828" lon="-15.641306">
        <ele>239.333000</ele>
        <time>2021-01-01T20:55:17.767Z</time>
      </trkpt>
      <trkpt lat="28.128939" lon="-15.641312">
        <ele>237.617000</ele>
        <time>2021-01-01T20:55:32.811Z</time>
      </trkpt>
      <trkpt lat="28.129132" lon="-15.641221">
        <ele>239.794000</ele>
        <time>2021-01-01T20:56:00.962Z</time>
      </trkpt>
      <trkpt lat="28.129359" lon="-15.641178">
        <ele>235.551000</ele>
        <time>2021-01-01T20:56:32.244Z</time>
      </trkpt>
      <trkpt lat="28.129568" lon="-15.641171">
        <ele>231.248000</ele>
        <time>2021-01-01T20:57:00.758Z</time>
      </trkpt>
      <trkpt lat="28.129679" lon="-15.641220">
        <ele>227.961000</ele>
        <time>2021-01-01T20:57:17.215Z</time>
      </trkpt>
      <trkpt lat="28.129835" lon="-15.641360">
        <ele>223.217000</ele>
        <time>2021-01-01T20:57:44.498Z</time>
      </trkpt>
      <trkpt lat="28.129895" lon="-15.641423">
        <ele>221.508000</ele>
        <time>2021-01-01T20:57:55.655Z</time>
      </trkpt>
      <trkpt lat="28.129954" lon="-15.641509">
        <ele>219.160000</ele>
        <time>2021-01-01T20:58:08.848Z</time>
      </trkpt>
      <trkpt lat="28.130028" lon="-15.641735">
        <ele>213.384000</ele>
        <time>2021-01-01T20:58:38.194Z</time>
      </trkpt>
      <trkpt lat="28.130118" lon="-15.641991">
        <ele>207.057000</ele>
        <time>2021-01-01T20:59:11.665Z</time>
      </trkpt>
      <trkpt lat="28.130144" lon="-15.642040">
        <ele>206.055000</ele>
        <time>2021-01-01T20:59:18.535Z</time>
      </trkpt>
      <trkpt lat="28.130297" lon="-15.642316">
        <ele>200.774000</ele>
        <time>2021-01-01T20:59:57.608Z</time>
      </trkpt>
      <trkpt lat="28.130392" lon="-15.642457">
        <ele>199.098000</ele>
        <time>2021-01-01T21:00:18.688Z</time>
      </trkpt>
      <trkpt lat="28.130480" lon="-15.642574">
        <ele>197.085000</ele>
        <time>2021-01-01T21:00:37.034Z</time>
      </trkpt>
      <trkpt lat="28.130623" lon="-15.642681">
        <ele>193.962000</ele>
        <time>2021-01-01T21:01:00.314Z</time>
      </trkpt>
      <trkpt lat="28.130696" lon="-15.642777">
        <ele>191.471000</ele>
        <time>2021-01-01T21:01:15.602Z</time>
      </trkpt>
      <trkpt lat="28.130751" lon="-15.642885">
        <ele>189.341000</ele>
        <time>2021-01-01T21:01:30.572Z</time>
      </trkpt>
      <trkpt lat="28.130999" lon="-15.642977">
        <ele>186.215000</ele>
        <time>2021-01-01T21:02:05.764Z</time>
      </trkpt>
      <trkpt lat="28.131190" lon="-15.643146">
        <ele>183.308000</ele>
        <time>2021-01-01T21:02:38.438Z</time>
      </trkpt>
      <trkpt lat="28.131388" lon="-15.643222">
        <ele>181.553000</ele>
        <time>2021-01-01T21:03:06.548Z</time>
      </trkpt>
      <trkpt lat="28.131499" lon="-15.643238">
        <ele>181.627000</ele>
        <time>2021-01-01T21:03:21.553Z</time>
      </trkpt>
      <trkpt lat="28.131646" lon="-15.643240">
        <ele>181.940000</ele>
        <time>2021-01-01T21:03:41.269Z</time>
      </trkpt>
      <trkpt lat="28.131874" lon="-15.643325">
        <ele>180.238000</ele>
        <time>2021-01-01T21:04:13.518Z</time>
      </trkpt>
      <trkpt lat="28.131943" lon="-15.643377">
        <ele>179.427000</ele>
        <time>2021-01-01T21:04:24.670Z</time>
      </trkpt>
      <trkpt lat="28.132061" lon="-15.643604">
        <ele>176.121000</ele>
        <time>2021-01-01T21:04:56.084Z</time>
      </trkpt>
      <trkpt lat="28.132174" lon="-15.643844">
        <ele>175.158000</ele>
        <time>2021-01-01T21:05:28.277Z</time>
      </trkpt>
      <trkpt lat="28.132258" lon="-15.643975">
        <ele>173.975000</ele>
        <time>2021-01-01T21:05:47.483Z</time>
      </trkpt>
      <trkpt lat="28.132058" lon="-15.644050">
        <ele>173.318000</ele>
        <time>2021-01-01T21:06:15.741Z</time>
      </trkpt>
      <trkpt lat="28.131947" lon="-15.643978">
        <ele>174.398000</ele>
        <time>2021-01-01T21:06:32.938Z</time>
      </trkpt>
      <trkpt lat="28.131907" lon="-15.643993">
        <ele>173.917000</ele>
        <time>2021-01-01T21:06:38.617Z</time>
      </trkpt>
      <trkpt lat="28.131817" lon="-15.644126">
        <ele>171.808000</ele>
        <time>2021-01-01T21:06:58.604Z</time>
      </trkpt>
      <trkpt lat="28.131821" lon="-15.644233">
        <ele>170.457000</ele>
        <time>2021-01-01T21:07:11.372Z</time>
      </trkpt>
      <trkpt lat="28.131871" lon="-15.644370">
        <ele>168.261000</ele>
        <time>2021-01-01T21:07:29.104Z</time>
      </trkpt>
      <trkpt lat="28.131926" lon="-15.644543">
        <ele>166.344000</ele>
        <time>2021-01-01T21:07:50.973Z</time>
      </trkpt>
      <trkpt lat="28.131981" lon="-15.644618">
        <ele>165.612000</ele>
        <time>2021-01-01T21:08:02.541Z</time>
      </trkpt>
      <trkpt lat="28.132471" lon="-15.645070">
        <ele>162.831000</ele>
        <time>2021-01-01T21:09:27.308Z</time>
      </trkpt>
      <trkpt lat="28.132519" lon="-15.645168">
        <ele>162.445000</ele>
        <time>2021-01-01T21:09:40.572Z</time>
      </trkpt>
      <trkpt lat="28.132656" lon="-15.645603">
        <ele>159.822000</ele>
        <time>2021-01-01T21:10:35.285Z</time>
      </trkpt>
      <trkpt lat="28.132691" lon="-15.645683">
        <ele>158.819000</ele>
        <time>2021-01-01T21:10:45.914Z</time>
      </trkpt>
      <trkpt lat="28.132828" lon="-15.646035">
        <ele>154.754000</ele>
        <time>2021-01-01T21:11:31.675Z</time>
      </trkpt>
      <trkpt lat="28.133103" lon="-15.646588">
        <ele>152.156000</ele>
        <time>2021-01-01T21:12:46.814Z</time>
      </trkpt>
      <trkpt lat="28.133126" lon="-15.646749">
        <ele>150.511000</ele>
        <time>2021-01-01T21:13:06.202Z</time>
      </trkpt>
      <trkpt lat="28.133091" lon="-15.646877">
        <ele>148.308000</ele>
        <time>2021-01-01T21:13:22.270Z</time>
      </trkpt>
      <trkpt lat="28.132899" lon="-15.647039">
        <ele>147.091000</ele>
        <time>2021-01-01T21:13:54.395Z</time>
      </trkpt>
      <trkpt lat="28.132853" lon="-15.647099">
        <ele>146.995000</ele>
        <time>2021-01-01T21:14:03.797Z</time>
      </trkpt>
      <trkpt lat="28.132849" lon="-15.647185">
        <ele>146.618000</ele>
        <time>2021-01-01T21:14:13.991Z</time>
      </trkpt>
      <trkpt lat="28.133047" lon="-15.647681">
        <ele>142.056000</ele>
        <time>2021-01-01T21:15:18.607Z</time>
      </trkpt>
      <trkpt lat="28.133026" lon="-15.647851">
        <ele>142.265000</ele>
        <time>2021-01-01T21:15:38.907Z</time>
      </trkpt>
      <trkpt lat="28.133026" lon="-15.647851">
        <ele>142.219000</ele>
        <time>2021-01-01T21:15:38.963Z</time>
      </trkpt>
      <trkpt lat="28.133025" lon="-15.647872">
        <ele>142.296000</ele>
        <time>2021-01-01T21:15:41.451Z</time>
      </trkpt>
      <trkpt lat="28.133034" lon="-15.647961">
        <ele>142.183000</ele>
        <time>2021-01-01T21:15:52.046Z</time>
      </trkpt>
      <trkpt lat="28.133301" lon="-15.648475">
        <ele>137.226000</ele>
        <time>2021-01-01T21:17:02.840Z</time>
      </trkpt>
      <trkpt lat="28.133421" lon="-15.648657">
        <ele>135.547000</ele>
        <time>2021-01-01T21:17:29.788Z</time>
      </trkpt>
      <trkpt lat="28.133648" lon="-15.648988">
        <ele>133.511000</ele>
        <time>2021-01-01T21:18:19.432Z</time>
      </trkpt>
      <trkpt lat="28.133778" lon="-15.649146">
        <ele>132.408000</ele>
        <time>2021-01-01T21:18:45.020Z</time>
      </trkpt>
      <trkpt lat="28.133938" lon="-15.649379">
        <ele>130.468000</ele>
        <time>2021-01-01T21:19:20.019Z</time>
      </trkpt>
      <trkpt lat="28.133988" lon="-15.649491">
        <ele>129.882000</ele>
        <time>2021-01-01T21:19:34.880Z</time>
      </trkpt>
      <trkpt lat="28.134035" lon="-15.649598">
        <ele>129.485000</ele>
        <time>2021-01-01T21:19:49.023Z</time>
      </trkpt>
      <trkpt lat="28.134156" lon="-15.649604">
        <ele>129.453000</ele>
        <time>2021-01-01T21:20:05.264Z</time>
      </trkpt>
      <trkpt lat="28.134356" lon="-15.649760">
        <ele>130.282000</ele>
        <time>2021-01-01T21:20:37.830Z</time>
      </trkpt>
      <trkpt lat="28.134486" lon="-15.649779">
        <ele>130.956000</ele>
        <time>2021-01-01T21:20:55.425Z</time>
      </trkpt>
      <trkpt lat="28.134724" lon="-15.649719">
        <ele>132.093000</ele>
        <time>2021-01-01T21:21:28.147Z</time>
      </trkpt>
      <trkpt lat="28.134987" lon="-15.649601">
        <ele>133.370000</ele>
        <time>2021-01-01T21:22:06.104Z</time>
      </trkpt>
      <trkpt lat="28.135090" lon="-15.649517">
        <ele>133.082000</ele>
        <time>2021-01-01T21:22:23.120Z</time>
      </trkpt>
      <trkpt lat="28.135203" lon="-15.649461">
        <ele>132.443000</ele>
        <time>2021-01-01T21:22:39.674Z</time>
      </trkpt>
      <trkpt lat="28.135493" lon="-15.649414">
        <ele>130.517000</ele>
        <time>2021-01-01T21:23:19.025Z</time>
      </trkpt>
      <trkpt lat="28.135575" lon="-15.649389">
        <ele>130.108000</ele>
        <time>2021-01-01T21:23:30.422Z</time>
      </trkpt>
      <trkpt lat="28.135794" lon="-15.649400">
        <ele>129.274000</ele>
        <time>2021-01-01T21:23:59.834Z</time>
      </trkpt>
      <trkpt lat="28.136465" lon="-15.649722">
        <ele>122.418000</ele>
        <time>2021-01-01T21:25:37.884Z</time>
      </trkpt>
      <trkpt lat="28.137068" lon="-15.649879">
        <ele>118.041000</ele>
        <time>2021-01-01T21:27:01.014Z</time>
      </trkpt>
      <trkpt lat="28.137614" lon="-15.650101">
        <ele>115.039000</ele>
        <time>2021-01-01T21:28:18.876Z</time>
      </trkpt>
      <trkpt lat="28.138054" lon="-15.650348">
        <ele>110.978000</ele>
        <time>2021-01-01T21:29:24.892Z</time>
      </trkpt>
      <trkpt lat="28.138340" lon="-15.650528">
        <ele>108.852000</ele>
        <time>2021-01-01T21:30:08.828Z</time>
      </trkpt>
      <trkpt lat="28.138628" lon="-15.650523">
        <ele>106.569000</ele>
        <time>2021-01-01T21:30:47.549Z</time>
      </trkpt>
      <trkpt lat="28.138834" lon="-15.650571">
        <ele>103.836000</ele>
        <time>2021-01-01T21:31:15.942Z</time>
      </trkpt>
      <trkpt lat="28.138964" lon="-15.650531">
        <ele>102.718000</ele>
        <time>2021-01-01T21:31:34.054Z</time>
      </trkpt>
      <trkpt lat="28.139075" lon="-15.650471">
        <ele>102.598000</ele>
        <time>2021-01-01T21:31:50.543Z</time>
      </trkpt>
      <trkpt lat="28.139187" lon="-15.650463">
        <ele>102.317000</ele>
        <time>2021-01-01T21:32:05.595Z</time>
      </trkpt>
      <trkpt lat="28.139252" lon="-15.650488">
        <ele>102.308000</ele>
        <time>2021-01-01T21:32:14.799Z</time>
      </trkpt>
      <trkpt lat="28.139450" lon="-15.650603">
        <ele>101.567000</ele>
        <time>2021-01-01T21:32:44.642Z</time>
      </trkpt>
      <trkpt lat="28.139550" lon="-15.650622">
        <ele>101.831000</ele>
        <time>2021-01-01T21:32:58.242Z</time>
      </trkpt>
      <trkpt lat="28.139716" lon="-15.650583">
        <ele>103.494000</ele>
        <time>2021-01-01T21:33:21.063Z</time>
      </trkpt>
      <trkpt lat="28.139836" lon="-15.650557">
        <ele>103.912000</ele>
        <time>2021-01-01T21:33:37.453Z</time>
      </trkpt>
      <trkpt lat="28.139946" lon="-15.650593">
        <ele>103.281000</ele>
        <time>2021-01-01T21:33:52.824Z</time>
      </trkpt>
      <trkpt lat="28.140105" lon="-15.650674">
        <ele>101.855000</ele>
        <time>2021-01-01T21:34:16.260Z</time>
      </trkpt>
      <trkpt lat="28.140637" lon="-15.651109">
        <ele>97.362000</ele>
        <time>2021-01-01T21:35:44.373Z</time>
      </trkpt>
      <trkpt lat="28.140749" lon="-15.651218">
        <ele>96.979000</ele>
        <time>2021-01-01T21:36:04.169Z</time>
      </trkpt>
      <trkpt lat="28.140801" lon="-15.651344">
        <ele>96.254000</ele>
        <time>2021-01-01T21:36:20.642Z</time>
      </trkpt>
      <trkpt lat="28.140845" lon="-15.651588">
        <ele>93.856000</ele>
        <time>2021-01-01T21:36:50.232Z</time>
      </trkpt>
      <trkpt lat="28.140839" lon="-15.651829">
        <ele>91.811000</ele>
        <time>2021-01-01T21:37:18.846Z</time>
      </trkpt>
      <trkpt lat="28.140807" lon="-15.652129">
        <ele>91.008000</ele>
        <time>2021-01-01T21:37:54.590Z</time>
      </trkpt>
      <trkpt lat="28.140829" lon="-15.652302">
        <ele>90.911000</ele>
        <time>2021-01-01T21:38:15.258Z</time>
      </trkpt>
      <trkpt lat="28.140860" lon="-15.652676">
        <ele>89.835000</ele>
        <time>2021-01-01T21:38:59.694Z</time>
      </trkpt>
      <trkpt lat="28.140906" lon="-15.652762">
        <ele>89.378000</ele>
        <time>2021-01-01T21:39:11.600Z</time>
      </trkpt>
      <trkpt lat="28.140967" lon="-15.652854">
        <ele>88.956000</ele>
        <time>2021-01-01T21:39:25.220Z</time>
      </trkpt>
      <trkpt lat="28.141016" lon="-15.652905">
        <ele>88.515000</ele>
        <time>2021-01-01T21:39:34.154Z</time>
      </trkpt>
      <trkpt lat="28.141325" lon="-15.653066">
        <ele>86.979000</ele>
        <time>2021-01-01T21:40:19.791Z</time>
      </trkpt>
      <trkpt lat="28.141434" lon="-15.653071">
        <ele>86.896000</ele>
        <time>2021-01-01T21:40:34.419Z</time>
      </trkpt>
      <trkpt lat="28.141726" lon="-15.652824">
        <ele>88.053000</ele>
        <time>2021-01-01T21:41:23.287Z</time>
      </trkpt>
      <trkpt lat="28.141835" lon="-15.652709">
        <ele>88.953000</ele>
        <time>2021-01-01T21:41:43.279Z</time>
      </trkpt>
      <trkpt lat="28.142062" lon="-15.652593">
        <ele>89.604000</ele>
        <time>2021-01-01T21:42:16.675Z</time>
      </trkpt>
      <trkpt lat="28.142416" lon="-15.652486">
        <ele>90.014000</ele>
        <time>2021-01-01T21:43:05.804Z</time>
      </trkpt>
      <trkpt lat="28.142569" lon="-15.652494">
        <ele>90.508000</ele>
        <time>2021-01-01T21:43:26.350Z</time>
      </trkpt>
      <trkpt lat="28.142741" lon="-15.652577">
        <ele>91.751000</ele>
        <time>2021-01-01T21:43:51.460Z</time>
      </trkpt>
      <trkpt lat="28.142897" lon="-15.652633">
        <ele>93.585000</ele>
        <time>2021-01-01T21:44:13.513Z</time>
      </trkpt>
      <trkpt lat="28.143132" lon="-15.652757">
        <ele>97.088000</ele>
        <time>2021-01-01T21:44:48.524Z</time>
      </trkpt>
      <trkpt lat="28.143261" lon="-15.652779">
        <ele>99.046000</ele>
        <time>2021-01-01T21:45:06.175Z</time>
      </trkpt>
      <trkpt lat="28.143307" lon="-15.652736">
        <ele>99.385000</ele>
        <time>2021-01-01T21:45:14.179Z</time>
      </trkpt>
      <trkpt lat="28.143345" lon="-15.652657">
        <ele>99.279000</ele>
        <time>2021-01-01T21:45:24.820Z</time>
      </trkpt>
      <trkpt lat="28.143484" lon="-15.652603">
        <ele>100.266000</ele>
        <time>2021-01-01T21:45:44.558Z</time>
      </trkpt>
      <trkpt lat="28.143692" lon="-15.652556">
        <ele>101.883000</ele>
        <time>2021-01-01T21:46:13.065Z</time>
      </trkpt>
      <trkpt lat="28.143750" lon="-15.652516">
        <ele>102.069000</ele>
        <time>2021-01-01T21:46:22.170Z</time>
      </trkpt>
      <trkpt lat="28.143811" lon="-15.652412">
        <ele>103.304000</ele>
        <time>2021-01-01T21:46:37.014Z</time>
      </trkpt>
      <trkpt lat="28.143927" lon="-15.652408">
        <ele>104.124000</ele>
        <time>2021-01-01T21:46:52.607Z</time>
      </trkpt>
      <trkpt lat="28.143984" lon="-15.652400">
        <ele>104.508000</ele>
        <time>2021-01-01T21:47:00.323Z</time>
      </trkpt>
      <trkpt lat="28.144026" lon="-15.652360">
        <ele>104.952000</ele>
        <time>2021-01-01T21:47:07.697Z</time>
      </trkpt>
      <trkpt lat="28.144211" lon="-15.652247">
        <ele>106.086000</ele>
        <time>2021-01-01T21:47:35.906Z</time>
      </trkpt>
      <trkpt lat="28.144415" lon="-15.652152">
        <ele>107.619000</ele>
        <time>2021-01-01T21:48:05.535Z</time>
      </trkpt>
      <trkpt lat="28.144478" lon="-15.652139">
        <ele>108.327000</ele>
        <time>2021-01-01T21:48:14.164Z</time>
      </trkpt>
      <trkpt lat="28.144478" lon="-15.652139">
        <ele>108.346000</ele>
        <time>2021-01-01T21:48:14.187Z</time>
      </trkpt>
      <trkpt lat="28.144507" lon="-15.652133">
        <ele>108.770000</ele>
        <time>2021-01-01T21:48:18.173Z</time>
      </trkpt>
      <trkpt lat="28.144585" lon="-15.652138">
        <ele>109.617000</ele>
        <time>2021-01-01T21:48:28.698Z</time>
      </trkpt>
      <trkpt lat="28.144669" lon="-15.652152">
        <ele>110.354000</ele>
        <time>2021-01-01T21:48:40.118Z</time>
      </trkpt>
      <trkpt lat="28.144762" lon="-15.652177">
        <ele>111.449000</ele>
        <time>2021-01-01T21:48:53.002Z</time>
      </trkpt>
      <trkpt lat="28.144999" lon="-15.652130">
        <ele>118.602000</ele>
        <time>2021-01-01T21:49:26.397Z</time>
      </trkpt>
      <trkpt lat="28.145119" lon="-15.651836">
        <ele>123.822000</ele>
        <time>2021-01-01T21:50:05.216Z</time>
      </trkpt>
      <trkpt lat="28.145462" lon="-15.652084">
        <ele>121.808000</ele>
        <time>2021-01-01T21:50:59.816Z</time>
      </trkpt>
      <trkpt lat="28.145468" lon="-15.652206">
        <ele>120.180000</ele>
        <time>2021-01-01T21:51:14.396Z</time>
      </trkpt>
      <trkpt lat="28.145451" lon="-15.652422">
        <ele>119.734000</ele>
        <time>2021-01-01T21:51:40.043Z</time>
      </trkpt>
      <trkpt lat="28.145426" lon="-15.652778">
        <ele>119.577000</ele>
        <time>2021-01-01T21:52:22.269Z</time>
      </trkpt>
      <trkpt lat="28.145424" lon="-15.652828">
        <ele>119.625000</ele>
        <time>2021-01-01T21:52:28.187Z</time>
      </trkpt>
      <trkpt lat="28.145424" lon="-15.652828">
        <ele>119.674000</ele>
        <time>2021-01-01T21:52:28.246Z</time>
      </trkpt>
      <trkpt lat="28.145420" lon="-15.653108">
        <ele>120.458000</ele>
        <time>2021-01-01T21:53:01.370Z</time>
      </trkpt>
      <trkpt lat="28.145390" lon="-15.654031">
        <ele>122.625000</ele>
        <time>2021-01-01T21:54:50.608Z</time>
      </trkpt>
      <trkpt lat="28.145373" lon="-15.654604">
        <ele>125.572000</ele>
        <time>2021-01-01T21:55:58.489Z</time>
      </trkpt>
      <trkpt lat="28.145369" lon="-15.654833">
        <ele>126.758000</ele>
        <time>2021-01-01T21:56:25.609Z</time>
      </trkpt>
      <trkpt lat="28.145363" lon="-15.655056">
        <ele>127.552000</ele>
        <time>2021-01-01T21:56:52.005Z</time>
      </trkpt>
      <trkpt lat="28.145361" lon="-15.655166">
        <ele>127.917000</ele>
        <time>2021-01-01T21:57:05.021Z</time>
      </trkpt>
      <trkpt lat="28.145222" lon="-15.655178">
        <ele>127.408000</ele>
        <time>2021-01-01T21:57:23.724Z</time>
      </trkpt>
      <trkpt lat="28.144976" lon="-15.655199">
        <ele>126.651000</ele>
        <time>2021-01-01T21:57:56.817Z</time>
      </trkpt>
      <trkpt lat="28.144771" lon="-15.655201">
        <ele>125.895000</ele>
        <time>2021-01-01T21:58:30.132Z</time>
      </trkpt>
      <trkpt lat="28.144753" lon="-15.655244">
        <ele>125.898000</ele>
        <time>2021-01-01T21:58:30.135Z</time>
      </trkpt>
      <trkpt lat="28.144755" lon="-15.655459">
        <ele>127.356000</ele>
        <time>2021-01-01T21:58:59.952Z</time>
      </trkpt>
      <trkpt lat="28.144765" lon="-15.655610">
        <ele>129.485000</ele>
        <time>2021-01-01T21:59:33.630Z</time>
      </trkpt>
      <trkpt lat="28.144792" lon="-15.655703">
        <ele>129.469000</ele>
        <time>2021-01-01T21:59:33.649Z</time>
      </trkpt>
      <trkpt lat="28.144864" lon="-15.655722">
        <ele>129.376000</ele>
        <time>2021-01-01T21:59:57.006Z</time>
      </trkpt>
      <trkpt lat="28.144927" lon="-15.655720">
        <ele>129.323000</ele>
        <time>2021-01-01T22:00:01.571Z</time>
      </trkpt>
    </trkseg>
  </trk>
</gpx>
